     2              OBSERVATION DATA    GPS                 RINEX VERSION / TYPE
teqc 2000Feb29 20030805 02:54:17UTC                         PGM / RUN BY / DATE
                                                            COMMENT
L2: 1 -> 1; 150 -> 5; 250 -> 9                              COMMENT
L2: 1 -> 1; 150 -> 5; 250 -> 9                              COMMENT
L2: 1 -> 1; 150 -> 5; 250 -> 9                              COMMENT
L2: 1 -> 1; 150 -> 5; 250 -> 9                              COMMENT
L2: 1 -> 1; 150 -> 5; 250 -> 9                              COMMENT
Original Marker Name: FARF                                  COMMENT
Campaign Name: USC/SCEC 2003                                COMMENT
4-Character Station Name: FARF                              COMMENT
6-Character Antenna Code: DMRCHT                            COMMENT
Vertical Measurement Point: BCR                             COMMENT
Vertical Offset to Rinex Ref. Point: 0.0348                 COMMENT
Radial Measurement Point: ECF                               COMMENT
Radial Offset to Rinex Ref. Point: 0.1897                   COMMENT
Antenna Height from Field Measurement: 0.5450 m             COMMENT
Additional Antenna Identification Info.:                    COMMENT
Turborogue and Ashtech Choke Ring                           COMMENT
Original XYZ: -2661892.6456 -4519863.2268 3616767.8719      COMMENT
New XYZ position is based on association with SCEC monument COMMENT
E1E9E6X2+0011. Position of that monument is believed to be  COMMENT
valid to within 1 m horizontally; vertical accuracy         COMMENT
should be no worse than 3-times this value.                 COMMENT
                                                            COMMENT
Revised Rinex header created by UCSD GPS archive for        COMMENT
GSAC on 09-Nov-2004 (2004:314) 22:44:27 GMT                 COMMENT
For assistance contact dagnew@ucsd.edu                      COMMENT
or anderson@python.ucsd.edu                                 COMMENT
                                                            COMMENT
FARFIELD 1970                                               MARKER NAME
KEA UNIV SOUTHERN CALIFORNIA                                OBSERVER / AGENCY
174 ASHTECH Z-XII3 CD00                                     REC # / TYPE / VERS
376 DORNE-MARGOL. TYPE T                                    ANT # / TYPE
 -2661885.0000 -4519852.0000  3616765.0000                  APPROX POSITION XYZ
        0.4761        0.0000        0.0000                  ANTENNA: DELTA H/E/N
     1     1     0                                          WAVELENGTH FACT L1/2
     7    C1    L1    L2    P1    P2    S1    S2            # / TYPES OF OBSERV
     0                                                      INTERVAL
  2003     3    19     0     0   30.000000                  TIME OF FIRST OBS
  2003     3    19    23    59    0.000000                  TIME OF LAST OBS
                                                            END OF HEADER
 03  3 19  0  0 30.0000000  0 10G 3G23G15G18G 6G26G17G29G 2G16
  23712570.460    -6092549.13949  -4708734.75845  23712570.519    23712578.584
       215.000         154.000
  20726040.835     -254687.73449   -190163.21447  20726040.301    20726046.323
       242.000         211.000
  20799552.187    -4693427.10549  -3642412.81147  20799551.300    20799558.048
       242.000         207.000
  20419980.952    -2501480.23649  -1937851.76348  20419980.502    20419985.434
       242.000         213.000
  22557697.379     6892105.87249   5368334.33246  22557696.821    22557705.333
       224.000         173.000
  22489391.900     2799183.19749   2188145.18246  22489391.778    22489399.788
       223.000         171.000
  20862280.106    -1078742.46649   -827479.17947  20862279.484    20862286.289
       242.000         208.000
  24352945.102     5010073.30149   3905288.43145  24352945.077    24352953.189
       209.000         149.000
  24690127.825    -2231406.52049  -1728963.33245  24690128.220    24690136.672
       206.000         143.000
  23501387.081      859396.00049    681657.21445  23501385.589    23501394.550
       219.000         159.000
 03  3 19  0  1  0.0000000  0 10G 3G23G15G18G 6G26G17G29G 2G16
  23694977.395    -6185000.88749  -4780774.99745  23694976.899    23694985.244
       215.000         154.000
  20730810.088     -229625.15749   -170633.93747  20730809.609    20730815.683
       242.000         211.000
  20792716.870    -4729346.82149  -3670402.18647  20792715.972    20792722.770
       243.000         207.000
  20417639.629    -2513783.85349  -1947438.98748  20417639.242    20417643.956
       242.000         213.000
  22575959.256     6988072.50249   5443113.43446  22575960.448    22575967.245
       225.000         174.000
  22501684.588     2863781.45949   2238481.44746  22501684.528    22501692.192
       223.000         171.000
  20864394.453    -1067631.44249   -818821.24447  20864393.831    20864400.422
       242.000         208.000
  24368156.365     5090008.35949   3967575.41645  24368154.837    24368165.623
       208.000         147.000
  24690021.987    -2231963.21949  -1729397.14045  24690021.524    24690031.409
       207.000         143.000
  23508915.524      898958.04549    712484.72745  23508915.207    23508922.993
       219.000         159.000
 03  3 19  0  1 30.0000000  0 10G 3G23G15G18G 6G26G17G29G 2G16
  23677429.415    -6277215.91349  -4852630.77045  23677428.457    23677436.828
       214.000         154.000
  20735640.406     -204241.56149   -150854.51447  20735639.895    20735645.814
       243.000         211.000
  20785918.876    -4765070.50749  -3698238.81547  20785917.908    20785924.684
       243.000         207.000
  20415375.614    -2525681.32049  -1956709.73348  20415375.150    20415379.862
       242.000         213.000
  22594273.305     7084313.24849   5518106.14946  22594273.540    22594281.255
       224.000         173.000
  22514080.068     2928920.03049   2289238.74346  22514080.197    22514087.733
       222.000         170.000
  20866549.930    -1056304.43149   -809995.00947  20866549.309    20866555.941
       242.000         208.000
  24383431.104     5170277.61149   4030122.80145  24383430.732    24383439.569
       211.000         147.000
  24689994.451    -2232108.32249  -1729510.25745  24689994.183    24690004.370
       209.000         143.000
  23516522.471      938932.62049    743633.69945  23516521.751    23516530.716
       217.000         159.000
 03  3 19  0  2  0.0000000  0 10G 3G23G15G18G 6G26G17G29G 2G16
  23659926.811    -6369191.87149  -4924300.25245  23659926.364    23659933.835
       214.000         154.000
  20740531.477     -178538.92049   -130826.48147  20740531.009    20740537.142
       242.000         211.000
  20779158.293    -4800597.51949  -3725922.18547  20779157.409    20779164.039
       242.000         207.000
  20413188.704    -2537173.54649  -1965664.70248  20413188.374    20413193.196
       242.000         213.000
  22612639.058     7180825.75049   5593310.60546  22612638.646    22612646.974
       224.000         172.000
  22526577.897     2994596.38849   2340415.09346  22526578.154    22526584.858
       222.000         170.000
  20868746.523    -1044761.13049   -801000.23347  20868745.888    20868752.652
       241.000         208.000
  24398769.107     5250878.75949   4092928.80745  24398769.194    24398778.447
       210.000         148.000
  24690045.002    -2231842.78049  -1729303.36745  24690044.158    24690054.000
       207.000         143.000
  23524207.411      979317.11349    775102.07445  23524207.350    23524215.188
       218.000         159.000
 03  3 19  0  2 30.0000000  0 10G 3G23G15G18G 6G26G17G29G 2G16
  23642470.329    -6460925.98449  -4995781.26445  23642469.419    23642478.861
       215.000         154.000
  20745482.973     -152518.64849   -110550.94847  20745482.411    20745488.544
       242.000         211.000
  20772435.323    -4835926.79049  -3753451.47447  20772434.773    20772441.058
       243.000         208.000
  20411078.807    -2548261.11949  -1974304.35948  20411078.374    20411083.333
       242.000         213.000
  22631056.228     7277608.40249   5668725.58846  22631056.126    22631065.172
       223.000         172.000
  22539177.731     3060808.60649   2392008.99546  22539177.802    22539184.845
       222.000         170.000
  20870984.551    -1033000.43849   -791836.06647  20870983.899    20870990.580
       241.000         208.000
  24414169.746     5331809.39849   4155991.57445  24414170.491    24414179.429
       212.000         149.000
  24690173.579    -2231167.08049  -1728776.86045  24690173.069    24690183.880
       203.000         142.000
  23531970.006     1020109.36349    806888.17345  23531970.116    23531977.397
       218.000         158.000
 03  3 19  0  3  0.0000000  0 10G 3G23G15G18G 6G26G17G29G 2G16
  23625060.180    -6552416.42449  -5067072.41145  23625059.901    23625068.180
       214.000         154.000
  20750494.501     -126182.89349    -90029.58647  20750493.982    20750500.165
       242.000         211.000
  20765750.054    -4871058.12749  -3780826.53047  20765749.371    20765755.853
       243.000         208.000
  20409045.753    -2558945.09049  -1982629.52348  20409045.302    20409050.033
       242.000         213.000
  22649524.389     7374658.53949   5744348.97946  22649524.301    22649532.350
       223.000         172.000
  22551878.856     3127553.60949   2444018.04346  22551879.169    22551886.214
       221.000         169.000
  20873263.852    -1021022.55149   -782502.66047  20873263.101    20873269.870
       241.000         207.000
  24429632.538     5413066.75749   4219308.92445  24429632.347    24429642.057
       209.000         148.000
  24690379.859    -2230082.70849  -1727931.91745  24690378.816    24690389.661
       206.000         143.000
  23539809.673     1061306.94149    838990.11245  23539809.479    23539817.227
       217.000         159.000
 03  3 19  0  3 30.0000000  0 11G 3G23G15G14G18G 6G26G17G29G 2G16
  23607697.035    -6643660.44649  -5138171.53745  23607696.072    23607704.325
       215.000         155.000
  20755565.754      -99533.11449    -69263.52847  20755565.391    20755571.477
       242.000         211.000
  20759102.621    -4905990.59949  -3808046.62247  20759101.953    20759108.439
       243.000         208.000
                   -998188.54359   -761478.19643
       204.000          74.000
  20407089.287    -2569226.19849  -1990640.76448  20407088.766    20407093.609
       242.000         213.000
  22668042.996     7471973.93349   5820179.07446  22668043.200    22668051.086
       223.000         171.000
  22564681.094     3194829.40149   2496440.71246  22564681.626    22564688.315
       223.000         169.000
  20875584.615    -1008826.78649   -772999.47247  20875584.184    20875590.576
       241.000         207.000
  24445157.108     5494648.67349   4282879.17345  24445157.430    24445165.535
       209.000         146.000
  24690663.925    -2228590.25349  -1726768.98545  24690662.510    24690673.139
       206.000         142.000
  23547725.947     1102907.24649    871405.87545  23547725.979    23547733.697
       217.000         158.000
 03  3 19  0  4  0.0000000  0 10G 3G23G15G18G 6G26G17G29G 2G16
  23590380.951    -6734656.32649  -5209077.29945  23590380.270    23590388.600
       215.000         155.000
  20760696.332      -72571.90049    -48254.79247  20760695.679    20760702.117
       242.000         211.000
  20752493.050    -4940724.06949  -3835111.64947  20752492.398    20752498.860
       243.000         208.000
  20405209.197    -2579106.25349  -1998339.49948  20405208.708    20405213.513
       241.000         213.000
  22686611.480     7569551.56849   5896213.51146  22686611.326    22686619.021
       223.000         170.000
  22577583.669     3262632.66149   2549274.38046  22577583.015    22577591.024
       221.000         170.000
  20877946.892     -996413.09449   -763326.47547  20877946.279    20877952.851
       241.000         207.000
  24460742.865     5576552.02949   4346699.91045  24460743.130    24460750.796
       210.000         146.000
  24691025.257    -2226691.35449  -1725289.34745  24691024.899    24691035.208
       207.000         142.000
  23555718.339     1144907.33549    904133.15045  23555718.296    23555726.650
       219.000         158.000
 03  3 19  0  4 30.0000000  0 10G 3G23G15G18G 6G26G17G29G 2G16
  23573112.511    -6825401.81749  -5279787.95445  23573111.714    23573119.542
       216.000         155.000
  20765885.755      -45301.26249    -27004.94547  20765885.357    20765891.379
       243.000         211.000
  20745921.449    -4975258.00849  -3862021.19647  20745920.768    20745927.363
       243.000         208.000
  20403405.157    -2588586.46549  -2005726.66748  20403404.647    20403409.479
       243.000         213.000
  22705229.306     7667389.13249   5972450.49046  22705229.667    22705237.434
       223.000         170.000
  22590586.089     3330960.81749   2602517.05946  22590586.362    22590593.428
       222.000         169.000
  20880350.748     -983780.75349   -753483.10547  20880350.074    20880356.941
       241.000         207.000
  24476389.310     5658774.03649   4410768.95445  24476389.448    24476398.599
       212.000         147.000
  24691463.610    -2224387.37149  -1723494.05645  24691462.686    24691473.736
       207.000         142.000
  23563786.344     1187304.49349    937169.82745  23563786.070    23563794.093
       219.000         158.000
 03  3 19  0  5  0.0000000  0 10G 3G23G15G18G 6G26G17G29G 2G16
  23555892.759    -6915891.61149  -5350299.37045  23555892.085    23555901.196
       215.000         156.000
  20771134.302      -17720.03349     -5513.07747  20771133.793    20771139.945
       242.000         211.000
  20739388.525    -5009588.68949  -3888772.35947  20739387.811    20739394.501
       243.000         208.000
  20401677.631    -2597664.53249  -2012800.47448  20401677.033    20401681.984
       242.000         213.000
  22723896.905     7765487.31749   6048890.54646  22723896.034    22723905.244
       223.000         170.000
  22603688.515     3399814.37849   2656169.15546  22603689.062    22603696.150
       221.000         169.000
  20882796.879     -970926.13349   -743466.52547  20882796.291    20882802.828
       241.000         207.000
  24492096.491     5741315.37849   4475086.79545  24492096.355    24492105.251
       210.000         147.000
  24691979.559    -2221676.24749  -1721381.51645  24691978.629    24691989.962
       207.000         142.000
  23571929.982     1230099.44149    970516.47445  23571929.693    23571938.143
       218.000         158.000
 03  3 19  0  5 30.0000000  0 11G 3G23G15G14G18G 6G26G17G29G 2G16
  23538721.527    -7006126.96549  -5420612.50045  23538721.232    23538729.360
       216.000         156.000
  20776440.902       10166.40949     16216.62047  20776440.420    20776446.570
       242.000         211.000
  20732893.756    -5043718.86649  -3915367.28747  20732893.077    20732899.613
       243.000         208.000
                  -1449864.03749   -336862.83343
       204.000          74.000
  20400025.745    -2606345.30949  -2019564.70548  20400025.206    20400030.095
       242.000         213.000
  22742612.876     7863840.17149   6125529.04146  22742613.396    22742622.442
       223.000         170.000
  22616889.740     3469187.07649   2710225.76146  22616889.613    22616897.696
       221.000         169.000
  20885284.654     -957852.76049   -733279.49447  20885283.969    20885290.788
       241.000         207.000
  24507863.259     5824169.84449   4539648.63445  24507862.950    24507871.386
       212.000         147.000
  24692572.042    -2218562.61949  -1718955.33845  24692571.229    24692582.241
       207.000         142.000
  23580148.124     1273285.76149   1004168.08345  23580147.484    23580155.074
       218.000         158.000
 03  3 19  0  6  0.0000000  0 11G 3G23G15G14G18G 6G26G17G29G 2G16
  23521599.637    -7096102.69349  -5490723.33545  23521598.466    23521607.660
       217.000         156.000
  20781805.788       38358.91849     38184.81247  20781805.176    20781811.568
       242.000         211.000
  20726437.727    -5077645.52149  -3941803.62547  20726436.896    20726443.519
       242.000         208.000
                  -1562811.99449   -424873.24243
       207.000          74.000
  20398449.842    -2614626.82549  -2026017.82248  20398449.407    20398454.243
       242.000         213.000
  22761377.466     7962448.20749   6202366.38946  22761377.496    22761386.498
       223.000         170.000
  22630189.766     3539079.12749   2764687.06646  22630189.876    22630197.537
       221.000         168.000
  20887814.755     -944557.02549   -722919.19447  20887814.007    20887820.974
       241.000         207.000
  24523689.590     5907337.44849   4604454.48245  24523689.443    24523699.067
       212.000         145.000
  24693241.430    -2215044.93749  -1716214.32345  24693241.804    24693251.495
       205.000         142.000
  23588440.745     1316863.58249   1038124.75345  23588440.373    23588448.212
       217.000         158.000
 03  3 19  0  6 30.0000000  0 11G 3G23G15G14G18G 6G26G17G29G 2G16
  23504527.179    -7185818.32149  -5560631.49645  23504526.425    23504534.738
       217.000         157.000
  20787228.204       66853.91549     60388.70247  20787227.522    20787233.770
       242.000         211.000
  20720020.264    -5111369.37249  -3968081.94047  20720019.419    20720026.048
       243.000         208.000
                  -1675767.50349   -512889.51843
       206.000          74.000
  20396949.348    -2622511.77149  -2032161.93148  20396948.856    20396953.733
       242.000         213.000
  22780189.802     8061307.51949   6279399.53346  22780190.163    22780198.001
       223.000         170.000
  22643587.875     3609486.38549   2819549.82546  22643588.050    22643596.143
       221.000         168.000
  20890386.999     -931039.92449   -712386.40447  20890386.466    20890393.192
       241.000         207.000
  24539574.706     5990814.21649   4669501.26845  24539574.306    24539582.978
       212.000         145.000
  24693987.224    -2211125.88949  -1713160.56245  24693986.639    24693997.214
       206.000         142.000
  23596807.092     1360828.94049   1072383.40445  23596807.280    23596815.179
       216.000         157.000
 03  3 19  0  7  0.0000000  0 11G 3G23G15G14G18G 6G26G17G29G 2G16
  23487505.167    -7275269.37849  -5630333.51545  23487504.389    23487511.999
       217.000         158.000
  20792708.222       95651.62749     82828.47747  20792707.638    20792713.924
       242.000         210.000
  20713641.971    -5144887.57949  -3994200.00247  20713641.095    20713647.568
       243.000         208.000
                  -1788726.04949   -212749.44143
       205.000          74.000
  20395524.465    -2629999.56449  -2037996.56348  20395523.883    20395528.788
       241.000         213.000
  22799049.904     8160417.69349   6356628.14746  22799050.256    22799058.744
       222.000         170.000
  22657083.851     3680408.04749   2874813.42346  22657083.268    22657092.017
       220.000         168.000
  20893001.793     -917299.06949   -701679.26047  20893001.346    20893008.023
       241.000         207.000
  24555518.577     6074599.54049   4734788.48345  24555517.809    24555527.053
       212.000         144.000
  24694809.615    -2206804.49249  -1709793.27345  24694808.940    24694819.710
       207.000         141.000
  23605247.038     1405181.03449   1106943.41545  23605246.978    23605254.290
       217.000         157.000
 03  3 19  0  7 30.0000000  0 10G 3G23G15G18G 6G26G17G29G 2G16
  23470533.356    -7364456.32149  -5699829.71945  23470532.988    23470540.674
       218.000         158.000
  20798244.938      124747.31949    105500.44747  20798244.325    20798250.578
       242.000         210.000
  20707302.394    -5178202.28149  -4020159.48547  20707301.473    20707307.979
       243.000         208.000
  20394174.569    -2637093.34049  -2043524.16848  20394174.037    20394178.917
       242.000         214.000
  22817956.794     8259773.53549   6434048.20246  22817957.417    22817965.283
       224.000         170.000
  22670676.721     3751838.95349   2930473.83746  22670677.177    22670684.204
       221.000         168.000
  20895658.778     -903336.71849   -690799.51147  20895658.257    20895664.664
       240.000         207.000
  24571520.215     6158688.11749   4800312.00745  24571521.270    24571528.755
       211.000         145.000
  24695707.808    -2202084.70249  -1706115.54845  24695707.358    24695717.247
       207.000         141.000
  23613759.603     1449914.57449   1141800.64845  23613759.914    23613767.458
       215.000         157.000
 03  3 19  0  8  0.0000000  0 11G 3G23G15G14G18G 6G26G17G29G 2G16
  23453613.308    -7453371.27549  -5769113.98945  23453612.642    23453620.281
       217.000         158.000
  20803839.011      154144.34249    128407.21947  20803838.422    20803844.724
       241.000         210.000
  20701002.678    -5211307.35949  -4045955.63047  20701001.845    20701008.421
       243.000         208.000
                  -2014645.03649   -388789.94844                  24460335.366
       205.000         110.000
  20392900.406    -2643789.14149  -2048741.66748  20392899.769    20392904.868
       242.000         213.000
  22836911.007     8359378.06049   6511662.02146  22836911.255    22836919.042
       223.000         170.000
  22684367.061     3823781.65649   2986533.06646  22684367.259    22684374.681
       223.000         169.000
  20898359.025     -889146.77549   -679742.42547  20898358.368    20898365.070
       240.000         206.000
  24587579.959     6243082.63649   4866073.90645  24587579.983    24587588.222
       211.000         145.000
  24696682.579    -2196962.54349  -1702124.29445  24696680.964    24696691.780
       208.000         141.000
  23622345.262     1495032.21949   1176957.18245  23622345.281    23622353.532
       217.000         157.000
 03  3 19  0  8 30.0000000  0 11G 3G23G15G14G18G 6G26G17G29G 2G16
  23436745.124    -7542013.33849  -5838185.61845  23436744.879    23436753.113
       216.000         158.000
  20809489.824      183839.53449    151546.32947  20809489.300    20809495.379
       242.000         210.000
  20694742.714    -5244203.67449  -4071589.09747  20694741.938    20694748.424
       243.000         209.000
  24438831.956    -2127596.67349   -476803.87844  24438829.470    24438841.072
       207.000         131.000
  20391701.454    -2650089.55949  -2053651.07848  20391701.049    20391705.720
       242.000         213.000
  22855911.805     8459227.54049   6589466.72446  22855911.981    22855920.055
       223.000         169.000
  22698153.951     3896232.12049   3042987.93546  22698153.665    22698162.133
       220.000         168.000
  20901102.457     -874730.09049   -668508.65147  20901101.828    20901108.423
       240.000         206.000
  24603697.189     6327779.17149   4932071.13245  24603697.005    24603705.953
       211.000         145.000
  24697733.437    -2191440.62649  -1697821.53045  24697733.565    24697742.427
       208.000         142.000
  23631003.263     1540530.08249   1212409.99945  23631003.557    23631011.250
       218.000         157.000
 03  3 19  0  9  0.0000000  0 11G 3G23G15G14G18G 6G26G17G29G 2G16
  23419928.933    -7630382.29349  -5907044.44345  23419928.231    23419935.998
       217.000         158.000
  20815196.586      213828.87149    174914.64047  20815195.940    20815202.247
       242.000         210.000
  20688522.257    -5276892.34449  -4097060.76947  20688521.455    20688528.038
       243.000         209.000
  24417338.939    -2240542.15949   -564813.03045  24417338.698    24417349.288
       206.000         135.000
  20390577.167    -2655997.77849  -2058254.88148  20390576.648    20390581.458
       242.000         214.000
  22874958.361     8559317.56949   6667458.86646  22874958.905    22874966.970
       221.000         168.000
  22712036.457     3969185.30249   3099834.54246  22712036.334    22712044.424
       219.000         167.000
  20903888.646     -860088.64749   -657099.74147  20903887.920    20903894.845
       240.000         206.000
  24619871.022     6412773.09049   4998300.09145  24619871.797    24619879.225
       209.000         144.000
  24698859.674    -2185522.30549  -1693209.90545  24698858.776    24698869.481
       208.000         142.000
  23639732.713     1586403.24549   1248155.24645  23639732.824    23639739.445
       217.000         157.000
 03  3 19  0  9 30.0000000  0 11G 3G23G15G14G18G 6G26G17G29G 2G16
  23403165.434    -7718474.83549  -5975687.87545  23403164.616    23403173.041
       217.000         159.000
  20820959.197      244111.50349    198511.49547  20820958.730    20820964.916
       242.000         210.000
  20682341.620    -5309371.72749  -4122369.35147  20682340.993    20682347.374
       244.000         209.000
  24395847.759    -2353478.10849   -652814.77045  24395845.977    24395857.750
       206.000         136.000
  20389527.488    -2661513.88149  -2062553.13748  20389526.774    20389531.698
       240.000         213.000
  22894050.483     8659646.67649   6745637.29246  22894050.019    22894059.309
       221.000         168.000
  22726014.436     4042639.81049   3157071.78546  22726014.727    22726022.644
       223.000         168.000
  20906717.958     -845220.40049   -645514.09547  20906717.241    20906723.980
       241.000         206.000
  24636101.154     6498062.61449   5064759.39745  24636100.852    24636109.601
       211.000         142.000
  24700061.336    -2179207.70749  -1688289.47245  24700060.824    24700071.546
       208.000         142.000
  23648533.236     1632650.04249   1284191.64045  23648532.632    23648542.140
       217.000         156.000
 03  3 19  0 10  0.0000000  0 11G 3G23G15G14G18G 6G26G17G29G 2G16
  23386454.706    -7806290.04549  -6044115.20845  23386454.424    23386462.405
       218.000         160.000
  20826776.978      274684.07549    222334.28147  20826776.383    20826782.689
       242.000         210.000
  20676200.675    -5341642.50249  -4147515.38347  20676199.895    20676206.385
       245.000         209.000
  24374358.580    -2466403.41049   -740808.19145  24374357.124    24374367.788
       208.000         136.000
  20388551.904    -2666640.38449  -2066547.80748  20388551.490    20388556.259
       240.000         213.000
  22913187.282     8760211.03749   6823999.04146  22913187.720    22913195.411
       220.000         167.000
  22740086.992     4116591.42049   3214696.37946  22740086.985    22740094.311
       220.000         168.000
  20909590.265     -830126.23349   -633752.40747  20909589.852    20909596.538
       241.000         206.000
  24652386.688     6583643.99149   5131446.14745  24652386.568    24652396.023
       208.000         140.000
  24701337.861    -2172499.56449  -1683062.38845  24701338.000    24701348.147
       208.000         142.000
  23657404.065     1679266.49449   1320516.07945  23657403.550    23657412.802
       217.000         156.000
 03  3 19  0 10 30.0000000  0 11G 3G23G15G14G18G 6G26G17G29G 2G16
  23369797.516    -7893823.68249  -6112323.13545  23369796.816    23369805.682
       218.000         161.000
  20832649.948      305546.76049    246383.12547  20832649.467    20832655.368
       242.000         210.000
  20670099.963    -5373702.07449  -4172496.84347  20670098.968    20670105.613
       245.000         209.000
  24352872.202    -2579313.63649   -828789.86245  24352870.818    24352881.992
       207.000         138.000
  20387650.652    -2671376.43949  -2070238.23648  20387650.134    20387655.067
       240.000         213.000
  22932368.796     8861010.31349   6902543.82546  22932368.562    22932377.086
       220.000         167.000
  22754253.980     4191039.41949   3272707.77446  22754254.457    22754261.667
       221.000         167.000
  20912506.111     -814803.67449   -621812.75247  20912505.334    20912512.127
       241.000         206.000
  24668727.758     6669516.57149   5198359.78545  24668727.056    24668736.401
       209.000         139.000
  24702689.568    -2165397.12149  -1677528.04045  24702689.374    24702699.279
       207.000         142.000
  23666345.176     1726251.97849   1357128.06645  23666344.830    23666353.169
       216.000         155.000
 03  3 19  0 11  0.0000000  0 11G 3G23G15G14G18G 6G26G17G29G 2G16
  23353194.383    -7981073.63049  -6180310.01145  23353193.680    23353202.333
       220.000         162.000
  20838577.691      336697.21449    270656.20047  20838577.053    20838583.497
       242.000         210.000
  20664039.445    -5405550.12049  -4197313.48147  20664038.724    20664045.204
       245.000         209.000
  24331389.096    -2692206.52949   -916758.01945  24331387.631    24331398.110
       208.000         139.000
  20386823.442    -2675723.43349  -2073625.50248  20386822.976    20386827.881
       240.000         213.000
  22951594.479     8962041.65549   6981269.46346  22951594.552    22951602.976
       221.000         166.000
  22768514.886     4265980.59449   3331103.45746  22768515.225    22768523.061
       220.000         167.000
  20915465.383     -799252.45449   -609694.92147  20915464.735    20915471.646
       240.000         206.000
  24685123.612     6755677.22749   5265497.88845  24685124.684    24685132.215
       209.000         139.000
  24704115.868    -2157902.01449  -1671687.72845  24704115.067    24704125.546
       206.000         142.000
  23675355.894     1773603.03949   1394024.92145  23675356.052    23675364.322
       215.000         155.000
 03  3 19  0 11 30.0000000  0 11G 3G23G15G14G18G 6G26G17G29G 2G16
  23336645.784    -8068037.07549  -6248073.63646  23336645.736    23336652.882
       219.000         163.000
  20844559.919      368133.98749    295152.38847  20844559.202    20844565.723
       242.000         210.000
  20658019.456    -5437185.34349  -4221964.27847  20658018.801    20658025.064
       245.000         209.000
  24309909.889    -2805079.11149  -1004710.35545  24309908.820    24309919.810
       210.000         140.000
  20386070.125    -2679682.12949  -2076710.19148  20386069.688    20386074.627
       240.000         213.000
  22970863.982     9063303.16949   7060174.42646  22970863.502    22970873.524
       219.000         167.000
  22782869.193     4341412.71349   3389881.70046  22782869.108    22782877.290
       221.000         167.000
  20918468.445     -783471.41449   -597398.00847  20918468.086    20918474.756
       240.000         206.000
  24701573.907     6842124.06349   5332858.98845  24701573.936    24701581.724
       207.000         139.000
  24705616.711    -2150015.14749  -1665542.14445  24705615.828    24705626.023
       208.000         142.000
  23684435.767     1821317.83049   1431205.21245  23684435.806    23684444.062
       215.000         154.000
 03  3 19  0 12  0.0000000  0 11G 3G23G15G14G18G 6G26G17G29G 2G16
  23320152.006    -8154712.12749  -6315612.53846  23320151.425    23320159.461
       219.000         164.000
  20850596.197      399854.92749    319869.99847  20850595.523    20850601.705
       241.000         210.000
  20652040.037    -5468607.39149  -4246448.97147  20652039.291    20652045.753
       244.000         209.000
  24288435.084    -2917929.35449  -1092645.29645  24288433.188    24288445.644
       209.000         139.000
  20385390.434    -2683253.92949  -2079493.40748  20385389.878    20385394.925
       240.000         213.000
  22990176.682     9164792.02549   7139256.57046  22990176.762    22990185.795
       221.000         166.000
  22797316.209     4417332.57749   3449039.98946  22797316.256    22797324.625
       220.000         165.000
  20921515.244     -767460.61049   -584922.05747  20921514.667    20921521.489
       240.000         206.000
  24718078.175     6928853.83949   5400440.56345  24718078.260    24718087.902
       210.000         141.000
  24707191.718    -2141738.28649  -1659092.68345  24707191.177    24707201.646
       206.000         142.000
  23693584.263     1869392.90149   1468666.21945  23693584.273    23693592.173
       215.000         153.000
 03  3 19  0 12 30.0000000  0 11G 3G23G15G14G18G 6G26G17G29G 2G16
  23303713.686    -8241095.99949  -6382924.55646  23303713.235    23303721.472
       219.000         164.000
  20856686.338      431858.75549    344808.04347  20856685.747    20856692.174
       241.000         210.000
  20646101.406    -5499814.87949  -4270766.47747  20646100.522    20646106.883
       245.000         209.000
  24266965.045    -3030754.00449  -1180560.30445  24266962.861    24266973.330
       209.000         138.000
  20384784.210    -2686439.64349  -2081975.77748  20384783.608    20384788.680
       240.000         214.000
  23009532.392     9266506.48849   7218514.48046  23009532.472    23009541.436
       219.000         166.000
  22811855.745     4493738.12449   3508576.75746  22811855.291    22811863.571
       219.000         165.000
  20924605.970     -751218.62749   -572265.96547  20924605.347    20924611.785
       241.000         206.000
  24734635.926     7015864.73149   5468241.19645  24734636.487    24734645.689
       210.000         141.000
  24708840.934    -2133071.89649  -1652339.67545  24708840.276    24708850.289
       206.000         141.000
  23702800.889     1917826.41849   1506406.53545  23702801.092    23702808.221
       215.000         153.000
 03  3 19  0 13  0.0000000  0 11G 3G23G15G14G18G 6G26G17G29G 2G16
  23287331.210    -8327186.19649  -6450007.72546  23287330.986    23287338.861
       218.000         164.000
  20862829.913      464143.54649    369965.01947  20862829.274    20862835.577
       241.000         210.000
  20640203.796    -5530806.93149  -4294916.10847  20640202.915    20640209.365
       244.000         209.000
  24245500.411    -3143550.41749  -1268453.32745  24245499.070    24245509.464
       206.000         138.000
  20384251.312    -2689240.18649  -2084158.01648  20384250.877    20384255.770
       240.000         214.000
  23028930.575     9368444.27949   7297946.41546  23028930.873    23028939.562
       220.000         166.000
  22826487.188     4570626.54449   3568489.77846  22826487.981    22826495.233
       219.000         165.000
  20927740.849     -734744.83249   -559429.24247  20927740.277    20927746.805
       240.000         206.000
  24751246.537     7103154.17349   5536258.89545  24751245.679    24751254.838
       207.000         138.000
  24710564.003    -2124017.23549  -1645284.12545  24710563.273    24710574.650
       204.000         141.000
  23712085.142     1966615.37949   1544423.83045  23712084.705    23712093.212
       213.000         152.000
 03  3 19  0 13 30.0000000  0 11G 3G23G15G14G18G 6G26G17G29G 2G16
  23271005.054    -8412980.15949  -6516860.07646  23271004.559    23271012.277
       219.000         164.000
  20869026.631      496707.57349    395339.58947  20869026.074    20869032.274
       242.000         209.000
  20634347.307    -5561582.88849  -4318897.35547  20634346.469    20634353.183
       245.000         209.000
  24224041.473    -3256316.10149  -1356322.35645  24224039.446    24224050.097
       206.000         141.000
  20383791.453    -2691656.76849  -2086041.06048  20383790.965    20383795.800
       240.000         214.000
  23048370.827     9470603.10149   7377550.60146  23048370.135    23048380.411
       219.000         165.000
  22841209.891     4647995.06849   3628776.89646  22841209.590    22841217.317
       218.000         164.000
  20930919.906     -718039.13249   -546411.81347  20930919.276    20930925.988
       241.000         206.000
  24767909.729     7190719.61149   5604491.63745  24767910.812    24767919.141
       206.000         137.000
  24712360.677    -2114575.90249  -1637927.28245  24712360.469    24712370.128
       206.000         140.000
  23721436.517     2015757.22749   1582716.10245  23721435.742    23721443.868
       215.000         152.000
 03  3 19  0 14  0.0000000  0 11G 3G23G15G14G18G 6G26G17G29G 2G16
  23254735.805    -8498475.54949  -6583479.77446  23254735.332    23254743.291
       219.000         164.000
  20875276.158      529549.01449    420930.31947  20875275.637    20875281.785
       241.000         209.000
  20628532.097    -5592141.85149  -4342709.52047  20628531.395    20628537.821
       245.000         209.000
  24202588.912    -3369048.38349  -1444165.35245  24202587.827    24202598.976
       210.000         143.000
  20383404.535    -2693690.08349  -2087625.45848  20383404.053    20383408.844
       240.000         214.000
  23067852.691     9572980.49949   7457325.07146  23067852.208    23067861.719
       220.000         165.000
  22856023.506     4725841.06749   3689436.09046  22856023.954    22856030.456
       218.000         163.000
  20934143.224     -701100.36449   -533212.77747  20934142.495    20934149.200
       240.000         206.000
  24784625.010     7278558.58349   5672937.51045  24784624.362    24784635.319
       209.000         136.000
  24714230.664    -2104748.95449  -1630269.94845  24714229.885    24714240.051
       206.000         140.000
  23730854.554     2065249.40649   1621281.35845  23730854.681    23730862.890
       216.000         152.000
 03  3 19  0 14 30.0000000  0 11G 3G23G15G14G18G 6G26G17G29G 2G16
  23238523.753    -8583669.97149  -6649864.95646  23238522.945    23238530.839
       220.000         165.000
  20881578.091      562665.88749    446735.67947  20881577.515    20881583.694
       242.000         209.000
  20622758.385    -5622482.90949  -4366351.88747  20622757.662    20622764.040
       245.000         209.000
  24181143.363    -3481744.55949  -1531980.25045  24181142.174    24181152.258
       210.000         144.000
  20383090.223    -2695341.74349  -2088912.46148  20383089.511    20383094.499
       241.000         214.000
  23087375.699     9675573.94749   7537267.91746  23087375.832    23087384.379
       219.000         164.000
  22870927.434     4804161.53049   3750464.98446  22870926.937    22870935.638
       219.000         163.000
  20937410.998     -683927.93849   -519831.67347  20937410.322    20937417.170
       240.000         205.000
  24801391.801     7366668.23649   5741594.31845  24801392.473    24801401.529
       209.000         137.000
  24716173.854    -2094537.93649  -1622313.36545  24716173.619    24716183.973
       206.000         139.000
  23740338.876     2115089.14649   1660117.45245  23740339.125    23740346.824
       216.000         152.000
 03  3 19  0 15  0.0000000  0 11G 3G23G15G14G18G 6G26G17G29G 2G16
  23222369.544    -8668560.73549  -6716013.52446  23222369.138    23222376.723
       220.000         165.000
  20887932.156      596056.56649    472754.38947  20887931.676    20887937.712
       242.000         209.000
  20617026.340    -5652605.02049  -4389823.64947  20617025.450    20617031.937
       245.000         209.000
  24159705.076    -3594402.22049  -1619765.16445  24159703.625    24159713.861
       207.000         143.000
  20382848.393    -2696612.62949  -2089902.75848  20382847.938    20382852.738
       240.000         214.000
  23106939.388     9778381.42549   7617377.52546  23106938.789    23106948.550
       217.000         163.000
  22885921.130     4882953.99149   3811861.67345  22885920.097    22885928.600
       218.000         162.000
  20940723.411     -666521.20549   -506267.99447  20940722.819    20940729.413
       240.000         205.000
  24818209.663     7455046.47349   5810460.39245  24818209.901    24818218.143
       207.000         135.000
  24718189.783    -2083943.94949  -1614058.36545  24718189.004    24718198.379
       204.000         139.000
  23749888.768     2165273.98349   1699222.44145  23749888.774    23749897.350
       215.000         152.000
 03  3 19  0 15 30.0000000  0 11G 3G23G15G14G18G 6G26G17G29G 2G16
  23206273.583    -8753145.30549  -6781923.50846  23206272.862    23206280.555
       220.000         165.000
  20894338.020      629719.64449    498985.35847  20894337.611    20894343.682
       242.000         209.000
  20611336.131    -5682507.16849  -4413124.01347  20611335.479    20611341.717
       245.000         210.000
  24138274.754    -3707018.34649  -1707517.70045  24138273.351    24138282.046
       209.000         140.000
  20382678.833    -2697503.70849  -2090597.10448  20382678.405    20382683.147
       241.000         214.000
  23126543.295     9881400.71449   7697652.16545  23126543.357    23126552.041
       217.000         162.000
  22901004.152     4962215.79449   3873624.08845  22901004.335    22901011.518
       220.000         162.000
  20944080.586     -648879.13049   -492520.93647  20944079.925    20944086.730
       240.000         205.000
  24835078.177     7543690.88549   5879533.88945  24835080.122    24835086.516
       209.000         134.000
  24720278.341    -2072968.20149  -1605505.89545  24720277.238    24720288.083
       205.000         140.000
  23759503.828     2215801.09149   1738594.12545  23759503.568    23759511.252
       215.000         151.000
 03  3 19  0 16  0.0000000  0 11G 3G23G15G14G18G 6G26G17G29G 2G16
  23190236.271    -8837421.60249  -6847593.27146  23190235.854    23190244.024
       220.000         165.000
  20900795.344      663653.04649    525426.97147  20900794.811    20900801.097
       241.000         209.000
  20605687.910    -5712188.81849  -4436252.55447  20605687.090    20605693.556
       245.000         210.000
  24116852.821    -3819590.42049  -1795235.91745  24116852.101    24116861.553
       209.000         141.000
  20382581.312    -2698016.21949  -2090996.45848  20382580.943    20382585.636
       240.000         214.000
  23146187.162     9984629.23949   7778089.88745  23146187.408    23146195.820
       219.000         161.000
  22916176.009     5041944.06549   3935749.98646  22916175.632    22916184.362
       219.000         163.000
  20947482.645     -631001.19749   -478590.09147  20947482.120    20947488.955
       240.000         205.000
  24851996.752     7632598.60549   5948812.55745  24851996.091    24852005.401
       205.000         134.000
  24722439.299    -2061612.33549  -1596657.21745  24722437.513    24722450.332
       205.000         139.000
  23769183.544     2266667.76049   1778230.41745  23769182.098    23769191.100
       215.000         151.000
 03  3 19  0 16 30.0000000  0 11G 3G23G15G14G18G 6G26G17G29G 2G16
  23174258.064    -8921387.04749  -6913020.81946  23174258.415    23174264.618
       220.000         166.000
  20907303.754      697855.08349    552077.91247  20907303.215    20907309.448
       241.000         209.000
  20600081.853    -5741648.75849  -4459208.33847  20600081.001    20600087.516
       245.000         210.000
  24095439.676    -3932115.65049  -1882917.62945  24095438.195    24095448.330
       211.000         146.000
  20382555.637    -2698151.18249  -2091101.61848  20382555.221    20382559.851
       241.000         214.000
  23165870.473    10088065.01749   7858689.06945  23165870.492    23165879.961
       217.000         162.000
  22931436.086     5122136.16949   3998237.29145  22931435.877    22931443.753
       220.000         162.000
  20950929.788     -612886.25649   -464474.56447  20950929.134    20950935.720
       241.000         205.000
  24868964.994     7721767.39749   6018294.65545  24868965.513    24868975.706
       207.000         133.000
  24724672.439    -2049877.29749  -1587513.08545  24724671.986    24724681.973
       205.000         139.000
  23778927.292     2317871.28549   1818129.18345  23778926.971    23778935.652
       216.000         151.000
 03  3 19  0 17  0.0000000  0 11G 3G23G15G14G18G 6G26G17G29G 2G16
  23158339.575    -9005039.32749  -6978204.34346  23158338.986    23158347.415
       221.000         167.000
  20913862.948      732323.86649    578936.70247  20913862.344    20913868.740
       241.000         209.000
  20594518.225    -5770886.01049  -4481990.59947  20594517.542    20594524.055
       244.000         210.000
  24074036.111    -4044591.41849  -1970560.81145  24074034.333    24074044.744
       208.000         146.000
  20382601.685    -2697909.29049  -2090913.12648  20382601.209    20382606.060
       240.000         214.000
  23185592.631    10191705.61149   7939447.84945  23185592.578    23185600.976
       218.000         161.000
  22946783.815     5202789.14349   4061083.72145  22946784.142    22946791.768
       219.000         162.000
  20954422.088     -594534.28549   -450174.34247  20954421.626    20954428.172
       240.000         205.000
  24885982.635     7811194.83649   6087978.29745  24885983.502    24885991.294
       204.000         132.000
  24726977.338    -2037764.73449  -1578074.77745  24726977.390    24726986.649
       204.000         139.000
  23788734.642     2369409.06049   1858288.40645  23788734.562    23788741.886
       214.000         152.000
 03  3 19  0 17 30.0000000  0 10G 3G23G15G14G18G 6G26G17G 2G16
  23142481.272    -9088375.03849  -7043141.19446  23142480.354    23142489.403
       219.000         167.000
  20920472.717      767058.41249    606002.58147  20920472.079    20920478.406
       241.000         209.000
  20588997.189    -5799899.08749  -4504598.17947  20588996.354    20589003.044
       245.000         210.000
  24052642.504    -4157014.28449  -2058162.76845  24052640.873    24052650.378
       205.000         144.000
  20382719.249    -2697291.36849  -2090431.62248  20382718.847    20382723.667
       241.000         214.000
  23205353.502    10295549.29749   8020364.90645  23205353.398    23205363.196
       217.000         160.000
  22962218.996     5283901.09949   4124287.82845  22962219.496    22962227.005
       220.000         162.000
  20957959.802     -575943.49049   -435688.02447  20957959.177    20957965.963
       239.000         205.000
  24729354.074    -2025275.19949  -1568342.73245  24729354.054    24729365.533
       205.000         139.000
  23798605.249     2421279.10849   1898706.54845  23798606.098    23798612.992
       216.000         152.000
 03  3 19  0 18  0.0000000  0 10G 3G23G15G14G18G 6G26G17G 2G16
  23126683.572    -9171391.80149  -7107829.51446  23126682.341    23126690.706
       219.000         167.000
  20927132.735      802057.03249    633274.23247  20927132.208    20927138.244
       241.000         209.000
  20583519.030    -5828686.92149  -4527030.24647  20583518.247    20583525.069
       245.000         210.000
  24031259.446    -4269381.62549  -2145721.48145  24031259.165    24031267.274
       209.000         142.000
  20382908.152    -2696298.63649  -2089658.05648  20382907.687    20382912.550
       240.000         214.000
  23225152.626    10399593.81749   8101438.43045  23225153.461    23225161.648
       217.000         160.000
  22977740.932     5365469.30149   4187847.42045  22977741.191    22977748.508
       219.000         161.000
  20961543.117     -557113.22249   -421015.10047  20961542.476    20961549.466
       240.000         205.000
  24731802.253    -2012410.09549  -1558318.03845  24731802.399    24731813.021
       204.000         139.000
  23808538.618     2473478.71149   1939381.46245  23808539.361    23808546.883
       216.000         152.000
 03  3 19  0 18 30.0000000  0 10G 3G23G15G14G18G 6G26G17G 2G16
  23110946.807    -9254088.78749  -7172268.66446  23110946.565    23110954.110
       219.000         166.000
  20933842.382      837316.40449    660749.06647  20933841.773    20933848.090
       241.000         209.000
  20578083.625    -5857250.10549  -4549287.26247  20578082.860    20578089.272
       246.000         210.000
  24009887.284    -4381692.01849  -2233235.82845  24009885.612    24009895.661
       210.000         145.000
  20383167.965    -2694933.36249  -2088594.19348  20383167.277    20383172.136
       242.000         214.000
  23244989.238    10503835.42649   8182665.54345  23244988.929    23244999.364
       218.000         159.000
  22993348.860     5447489.47449   4251759.20045  22993348.146    22993356.377
       220.000         161.000
  20965171.784     -538044.28549   -406156.20347  20965171.254    20965177.959
       240.000         204.000
  24734321.462    -1999172.22449  -1548002.86045  24734320.596    24734331.884
       206.000         139.000
  23818533.842     2526003.61049   1980309.88545  23818533.093    23818541.661
       215.000         151.000
 03  3 19  0 19  0.0000000  0 10G 3G23G15G14G18G 6G26G17G 2G16
  23095271.562    -9336462.36349  -7236455.79346  23095271.226    23095279.068
       219.000         166.000
  20940601.513      872835.85849    688426.56047  20940600.954    20940607.152
       241.000         208.000
  20572691.275    -5885586.86849  -4571367.84347  20572690.493    20572696.933
       246.000         210.000
  23988526.656    -4493941.91949  -2320703.03845  23988525.220    23988534.995
       208.000         145.000
  20383498.622    -2693195.84049  -2087240.27148  20383498.158    20383502.920
       241.000         214.000
  23264863.073    10608272.61349   8264045.05545  23264863.490    23264871.990
       216.000         159.000
  23009042.435     5529959.61449   4316021.61145  23009042.881    23009050.726
       219.000         161.000
  20968846.203     -518735.13149   -391110.12347  20968845.450    20968852.358
       240.000         204.000
  24736911.483    -1985561.89249  -1537397.46045  24736910.863    24736921.390
       206.000         139.000
  23828590.625     2578852.01949   2021490.37445  23828591.010    23828599.913
       214.000         151.000
 03  3 19  0 19 30.0000000  0 10G 3G23G15G14G18G 6G26G17G 2G16
  23079658.251    -9418510.46049  -7300389.30346  23079657.616    23079665.373
       220.000         167.000
  20947409.728      908613.27249    716305.06647  20947409.120    20947415.443
       241.000         208.000
  20567342.205    -5913696.36349  -4593271.33347  20567341.356    20567347.896
       243.000         210.000
  23967177.853    -4606129.14349  -2408121.37245  23967176.489    23967185.954
       206.000         145.000
  20383899.803    -2691087.48849  -2085597.38948  20383899.310    20383903.908
       240.000         214.000
  23284773.594    10712902.71449   8345574.87345  23284774.296    23284782.478
       218.000         159.000
  23024821.084     5612876.65249   4380632.26345  23024821.977    23024828.609
       220.000         161.000
  20972566.475     -499185.11249   -375876.35447  20972565.935    20972572.564
       241.000         204.000
  24739572.057    -1971580.97049  -1526503.28845  24739571.641    24739581.430
       204.000         139.000
  23838708.370     2632020.94549   2062920.63045  23838708.346    23838716.421
       215.000         151.000
 03  3 19  0 20  0.0000000  0 10G 3G23G15G14G18G 6G26G17G 2G16
  23064107.434    -9500230.57249  -7364067.25046  23064106.841    23064114.338
       220.000         168.000
  20954266.718      944646.94949    744383.24847  20954266.183    20954272.310
       241.000         208.000
  20562036.614    -5941577.38949  -4614996.79647  20562035.989    20562042.240
       243.000         210.000
  23945841.546    -4718250.67249  -2495488.53545  23945840.380    23945850.631
       208.000         145.000
  20384371.365    -2688609.30949  -2083666.32948  20384370.794    20384375.702
       240.000         214.000
  23304720.489    10817723.59749   8427253.37645  23304720.837    23304729.946
       217.000         158.000
  23040684.225     5696237.97749   4445589.10445  23040684.266    23040691.967
       219.000         160.000
  20976332.737     -479393.40949   -360454.26747  20976332.197    20976338.662
       240.000         204.000
  24742302.879    -1957230.76349  -1515321.34945  24742302.810    24742313.053
       205.000         138.000
  23848886.576     2685507.58149   2104598.44045  23848886.719    23848895.001
       215.000         150.000
 03  3 19  0 20 30.0000000  0 10G 3G23G15G14G18G 6G26G17G 2G16
  23048619.542    -9581620.06749  -7427487.55446  23048619.023    23048626.278
       222.000         168.000
  20961172.148      980935.34049    772659.90947  20961171.603    20961177.689
       241.000         208.000
  20556774.640    -5969229.14949  -4636543.61147  20556773.822    20556780.530
       244.000         210.000
  23924518.361    -4830303.59749  -2582802.27845  23924517.791    23924526.687
       210.000         145.000
  20384913.089    -2685762.47549  -2081448.00648  20384912.579    20384917.359
       241.000         214.000
  23324703.226    10922733.24749   8509078.95245  23324703.114    23324712.664
       217.000         158.000
  23056631.414     5780040.78149   4510889.95745  23056631.936    23056638.708
       220.000         160.000
  20980145.170     -459358.92449   -344842.99047  20980144.718    20980151.280
       240.000         204.000
  24745103.592    -1942512.69649  -1503852.78045  24745104.371    24745114.791
       206.000         140.000
  23859124.810     2739309.34249   2146521.81345  23859124.452    23859133.394
       215.000         150.000
 03  3 19  0 21  0.0000000  0 10G 3G23G15G14G18G 6G26G17G 2G16
  23033194.922    -9662676.76749  -7490648.55546  23033194.671    23033202.402
       221.000         168.000
  20968125.659     1017476.39549    801133.45247  20968125.109    20968131.201
       241.000         208.000
  20551556.495    -5996650.79549  -4657911.11447  20551555.964    20551562.204
       244.000         210.000
  23903208.760    -4942285.48249  -2670060.64945  23903208.123    23903216.984
       207.000         145.000
  20385524.716    -2682548.35049  -2078943.48848  20385524.245    20385529.038
       241.000         214.000
  23344721.380    11027929.04549   8591049.58445  23344721.126    23344730.854
       218.000         158.000
  23072662.093     5864282.01149   4576532.44245  23072661.929    23072669.091
       219.000         160.000
  20984003.853     -439081.46549   -329042.38847  20984003.257    20984009.820
       239.000         204.000
  24747974.180    -1927428.34149  -1492098.77545  24747973.774    24747984.490
       205.000         139.000
  23869422.355     2793423.23249   2188688.39845  23869422.503    23869430.149
       215.000         151.000
 03  3 19  0 21 30.0000000  0 10G 3G23G15G14G18G 6G26G17G 2G16
  23017834.002    -9743398.33149  -7553548.39846  23017833.815    23017841.478
       222.000         169.000
  20975126.962     1054268.31749    829802.47947  20975126.342    20975132.685
       241.000         208.000
  20546382.319    -6023841.27649  -4679098.48547  20546381.606    20546387.851
       244.000         210.000
  23881913.155    -5054193.55349  -2757261.48745  23881912.336    23881921.116
       210.000         146.000
  20386206.030    -2678968.01049  -2076153.60448  20386205.464    20386210.450
       241.000         214.000
  23364774.495    11133308.39849   8673163.25145  23364774.183    23364784.476
       214.000         156.000
  23088775.576     5948958.75349   4642514.27645  23088776.043    23088784.078
       219.000         160.000
  20987908.904     -418560.39449   -313051.95547  20987908.233    20987915.189
       240.000         204.000
  24750914.068    -1911979.34249  -1480060.65645  24750913.629    24750924.917
       207.000         140.000
  23879778.884     2847846.60449   2231096.14545  23879778.983    23879786.929
       216.000         151.000
 03  3 19  0 22  0.0000000  0 10G 3G23G15G14G18G 6G26G17G 2G16
  23002537.528    -9823781.64049  -7616184.67946  23002537.055    23002544.174
       221.000         169.000
  20982175.786     1091310.20349    858666.27947  20982175.122    20982181.403
       240.000         208.000
  20541252.471    -6050798.77849  -4700104.31947  20541251.767    20541258.429
       243.000         210.000
  23860632.346    -5166024.38249  -2844402.13945  23860631.089    23860640.266
       210.000         147.000
  20386956.948    -2675021.83949  -2073078.66348  20386956.504    20386961.270
       240.000         214.000
  23384862.259    11238869.66949   8755418.64145  23384862.587    23384872.159
       218.000         158.000
  23104971.516     6034068.97749   4708833.88945  23104971.311    23104979.561
       219.000         161.000
  20991860.554     -397794.26049   -296870.56847  20991859.978    20991866.562
       239.000         204.000
  24753923.254    -1896166.30349  -1467738.85545  24753923.126    24753933.324
       206.000         140.000
  23890193.918     2902577.34249   2273743.39945  23890194.043    23890201.629
       215.000         150.000
 03  3 19  0 22 30.0000000  0 10G 3G23G15G14G18G 6G26G17G 2G16
  22987305.678    -9903825.15049  -7678556.15546  22987304.930    22987313.406
       222.000         169.000
  20989271.728     1128599.58349    887722.93847  20989271.120    20989277.442
       240.000         207.000
  20536166.958    -6077523.27149  -4720928.58347  20536166.238    20536172.535
       243.000         210.000
  23839366.593    -5277776.12049  -2931481.17945  23839365.461    23839374.268
       211.000         147.000
  20387777.116    -2670711.84649  -2069720.22048  20387776.586    20387781.311
       240.000         214.000
  23404984.079    11344609.76949   8837813.40845  23404984.566    23404994.028
       218.000         156.000
  23121249.247     6119608.97049   4775488.38045  23121249.532    23121256.881
       218.000         161.000
  20995858.856     -376783.05149   -280498.21047  20995858.190    20995864.951
       239.000         204.000
  24757001.224    -1879991.79049  -1455135.39645  24757000.225    24757009.581
       207.000         139.000
  23900666.667     2957611.72349   2316627.26345  23900666.453    23900675.241
       214.000         150.000
 03  3 19  0 23  0.0000000  0 10G 3G23G15G14G18G 6G26G17G 2G16
  22972139.087    -9983525.73649  -7740660.43246  22972138.130    22972146.233
       222.000         170.000
  20996414.497     1166135.08449    916971.38147  20996414.065    20996420.255
       240.000         207.000
  20531126.069    -6104013.31849  -4741570.15947  20531125.348    20531131.687
       243.000         210.000
  23818116.391    -5389445.39249  -3018495.95545  23818115.931    23818123.575
       210.000         146.000
  20388666.384    -2666038.65949  -2066078.76948  20388665.860    20388670.631
       240.000         214.000
  23425139.503    11450526.94649   8920346.15045  23425139.314    23425149.504
       217.000         156.000
  23137608.350     6205576.43449   4842475.97745  23137608.697    23137616.837
       219.000         160.000
  20999904.107     -355525.30549   -263933.74547  20999903.589    20999910.261
       239.000         204.000
  24760147.903    -1863456.52149  -1442250.82845  24760147.926    24760158.418
       206.000         140.000
  23911196.827     3012947.76049   2359746.18045  23911196.393    23911204.333
       215.000         150.000
 03  3 19  0 23 30.0000000  0 10G 3G23G15G14G18G 6G26G17G 2G16
  22957038.347   -10062880.83749  -7802495.50646  22957038.003    22957045.119
       222.000         170.000
  21003603.749     1203914.82749    946410.14347  21003603.178    21003609.564
       241.000         207.000
  20526129.931    -6130268.10149  -4762028.41347  20526128.977    20526135.376
       243.000         210.000
  23796882.399    -5501029.69749  -3105444.51645  23796880.942    23796890.284
       214.000         147.000
  20389624.482    -2661003.63849  -2062155.37048  20389624.027    20389628.632
       240.000         214.000
  23445328.188    11556618.64849   9003014.88045  23445328.057    23445337.418
       217.000         157.000
  23154048.223     6291968.31249   4909794.28945  23154048.656    23154055.944
       219.000         160.000
  21003996.328     -334020.47849   -247176.74847  21003995.606    21004002.618
       239.000         203.000
  24763362.808    -1846562.24149  -1429086.51045  24763363.530    24763373.383
       204.000         141.000
  23921783.780     3068582.35049   2403097.73545  23921782.814    23921791.395
       215.000         149.000
 03  3 19  0 24  0.0000000  0 10G 3G23G15G14G18G 6G26G17G 2G16
  22942003.638   -10141888.57049  -7864059.90046  22942002.662    22942010.808
       222.000         170.000
  21010839.098     1241936.85749    976037.69947  21010838.549    21010844.833
       240.000         207.000
  20521178.751    -6156286.68949  -4782302.62447  20521177.994    20521184.221
       244.000         210.000
  23775665.089    -5612526.48949  -3192324.87245  23775663.521    23775672.946
       212.000         149.000
  20390651.210    -2655608.11649  -2057951.06448  20390650.756    20390655.407
       240.000         214.000
  23465549.627    11662882.32649   9085817.62645  23465550.467    23465558.362
       216.000         155.000
  23170568.288     6378781.60649   4977440.96945  23170569.349    23170576.483
       219.000         160.000
  21008135.750     -312267.79649   -230226.62347  21008134.991    21008142.073
       239.000         203.000
  24766645.697    -1829310.56949  -1415643.70245  24766645.208    24766655.136
       208.000         141.000
  23932426.853     3124512.39549   2446679.50845  23932426.736    23932435.050
       214.000         149.000
 03  3 19  0 24 30.0000000  0 10G 3G23G15G14G18G 6G26G17G 2G16
  22927035.393   -10220546.62249  -7925351.80446  22927034.954    22927042.080
       224.000         170.000
  21018120.235     1280199.48949   1005852.73847  21018119.609    21018126.047
       241.000         207.000
  20516272.712    -6182068.04149  -4802391.97147  20516271.920    20516278.178
       244.000         210.000
  23754464.979    -5723933.09949  -3279134.97745  23754463.487    23754472.820
       212.000         150.000
  20391746.274    -2649853.49149  -2053466.93348  20391745.808    20391750.590
       241.000         214.000
  23485803.253    11769315.59449   9168752.52945  23485803.547    23485812.228
       217.000         155.000
  23187167.953     6466013.21849   5045413.61645  23187168.048    23187175.742
       219.000         161.000
  21012322.368     -290267.07449   -213083.21247  21012321.922    21012328.456
       240.000         203.000
  24769996.390    -1811703.23949  -1401923.74245  24769996.079    24770005.733
       206.000         141.000
  23943125.756     3180735.03249   2490489.29745  23943126.628    23943133.462
       214.000         149.000
 03  3 19  0 25  0.0000000  0 10G 3G23G15G14G18G 6G26G17G 2G16
  22912134.341   -10298852.20649  -7986369.07446  22912134.369    22912141.202
       223.000         171.000
  21025446.907     1318701.36249   1035854.19547  21025446.296    21025452.669
       240.000         207.000
  20511412.055    -6207610.86249  -4822295.45147  20511411.325    20511417.591
       243.000         210.000
  23733282.556    -5835246.42649  -3365872.38845  23733281.561    23733289.534
       210.000         147.000
  20392909.568    -2643740.40749  -2048703.48848  20392909.183    20392913.892
       240.000         214.000
  23506088.851    11875916.50549   9251818.02045  23506088.164    23506097.806
       215.000         155.000
  23203846.745     6553660.62549   5113710.26145  23203847.091    23203853.884
       218.000         160.000
  21016556.420     -268017.10649   -195745.58247  21016555.771    21016562.412
       239.000         203.000
  24773414.369    -1793741.82049  -1387927.87845  24773414.882    24773424.609
       206.000         141.000
  23953879.885     3237247.81149   2534525.15345  23953879.614    23953887.739
       213.000         149.000
 03  3 19  0 25 30.0000000  0 10G 3G23G15G14G18G 6G26G17G 2G16
  22897300.696   -10376803.35049  -8047110.15446  22897300.639    22897307.509
       224.000         171.000
  21032818.670     1357440.26849   1066040.35247  21032818.043    21032824.485
       241.000         207.000
  20506596.905    -6232914.59049  -4842012.62547  20506596.149    20506602.419
       244.000         210.000
  23712118.279    -5946464.17949  -3452535.34945  23712116.513    23712126.053
       215.000         147.000
  20394140.763    -2637270.54649  -2043662.03848  20394140.221    20394144.952
       241.000         214.000
  23526405.781    11982682.13749   9335011.88145  23526405.728    23526415.223
       216.000         155.000
  23220604.077     6641720.52349   5182328.33845  23220604.530    23220612.313
       218.000         159.000
  21020837.872     -245517.83349   -178213.68847  21020837.227    21020844.098
       239.000         203.000
  24776899.389    -1775428.29049  -1373657.66045  24776898.170    24776909.446
       205.000         141.000
  23964688.559     3294047.59849   2578784.65545  23964688.481    23964696.130
       215.000         149.000
 03  3 19  0 26  0.0000000  0 10G 3G23G15G14G18G 6G26G17G 2G16
  22882534.944   -10454397.62049  -8107573.15546  22882534.481    22882542.605
       224.000         171.000
  21040235.197     1396414.38549   1096409.79247  21040234.699    21040240.989
       240.000         207.000
  20501827.442    -6257978.19349  -4861542.68347  20501826.601    20501833.109
       243.000         210.000
  23690972.860    -6057583.67449  -3539121.74645  23690971.432    23690980.347
       212.000         150.000
  20395439.606    -2630445.18749  -2038343.57148  20395439.011    20395443.982
       240.000         214.000
  23546753.641    12089610.17749   9418332.32345  23546753.512    23546763.616
       215.000         155.000
  23237439.223     6730189.89949   5251265.47145  23237438.986    23237447.005
       216.000         158.000
  21025166.941     -222768.36049   -160486.83247  21025166.470    21025173.313
       240.000         203.000
  24780451.088    -1756764.15649  -1359114.23545  24780449.662    24780462.143
       204.000         141.000
  23975551.289     3351131.23649   2623265.34245  23975550.891    23975559.338
       214.000         149.000
 03  3 19  0 26 30.0000000  0 10G 3G23G15G14G18G 6G26G17G 2G16
  22867837.732   -10531632.03849  -8167755.74646  22867837.635    22867844.524
       224.000         172.000
  21047696.317     1435622.81949   1126961.81547  21047695.873    21047701.999
       241.000         207.000
  20497104.021    -6282800.01649  -4880884.34147  20497103.221    20497109.502
       244.000         210.000
  23669846.735    -6168601.29149  -3625628.74045  23669845.447    23669854.421
       213.000         152.000
  20396805.974    -2623264.78349  -2032748.44648  20396805.465    20396810.210
       241.000         214.000
  23567132.021    12196698.89749   9501777.93345  23567131.934    23567142.584
       215.000         155.000
  23254351.897     6819066.71549   5320520.08745  23254352.317    23254360.661
       217.000         158.000
  21029543.962     -199767.17449   -142563.83147  21029543.230    21029550.134
       240.000         203.000
  24784069.288    -1737750.07849  -1344298.12345  24784067.587    24784079.577
       206.000         142.000
  23986467.636     3408496.77349   2667965.68245  23986467.804    23986476.733
       214.000         148.000
 03  3 19  0 27  0.0000000  0 10G 3G23G15G14G18G 6G26G17G 2G16
  22853209.360   -10608504.26749  -8227656.12646  22853208.873    22853215.592
       224.000         173.000
  21055201.684     1475063.63849   1157694.91147  21055201.267    21055207.391
       241.000         207.000
  20492426.696    -6307379.41049  -4900037.10047  20492425.799    20492432.351
       243.000         211.000
  23648740.391    -6279514.85749  -3712054.67545  23648739.398    23648749.178
       212.000         150.000
  20398239.629    -2615730.74849  -2026877.77048  20398239.343    20398244.085
       241.000         214.000
  23587540.548    12303945.69549   9585346.71945  23587540.396    23587549.422
       216.000         154.000
  23271341.573     6908347.71749   5390089.65745  23271341.615    23271349.023
       215.000         157.000
  21033968.997     -176513.67049   -124444.22747  21033968.377    21033974.989
       239.000         203.000
  24787753.778    -1718388.06749  -1329210.90745  24787753.415    24787764.238
       205.000         140.000
  23997437.071     3466141.08149   2712883.26045  23997436.940    23997446.494
       213.000         148.000
 03  3 19  0 27 30.0000000  0 10G 3G23G15G14G18G 6G26G17G 2G16
  22838650.315   -10685011.94749  -8287272.42946  22838649.632    22838657.099
       226.000         173.000
  21062750.942     1514735.19649   1188607.80647  21062750.311    21062756.402
       242.000         207.000
  20487795.778    -6331715.02149  -4918999.89447  20487795.055    20487801.179
       245.000         211.000
  23627654.538    -6390321.13149  -3798397.04645  23627653.346    23627662.053
       215.000         150.000
  20399740.371    -2607844.33849  -2020732.51248  20399739.834    20399744.611
       242.000         214.000
  23607978.674    12411348.21549   9669036.88445  23607979.166    23607988.691
       215.000         153.000
  23288407.548     6998029.90249   5459971.83445  23288407.991    23288415.318
       216.000         157.000
  21038442.123     -153007.09849   -106127.41847  21038441.490    21038448.356
       240.000         202.000
  24791504.267    -1698679.49749  -1313853.64545  24791504.089    24791514.255
       207.000         140.000
  24008459.052     3524061.35949   2758015.87345  24008458.960    24008467.436
       214.000         148.000
 03  3 19  0 28  0.0000000  0 10G 3G23G15G14G18G 6G26G17G 2G16
  22824161.069   -10761153.29649  -8346603.29246  22824161.142    22824167.938
       224.000         173.000
  21070343.663     1554635.18349   1219698.69247  21070343.215    21070349.330
       241.000         207.000
  20483211.384    -6355806.18449  -4937772.20847  20483210.538    20483216.959
       243.000         211.000
  23606589.367    -6501018.31549  -3884654.40145  23606587.500    23606596.211
       215.000         151.000
  20401307.727    -2599607.76049  -2014314.39648  20401307.179    20401312.036
       240.000         214.000
  23628445.916    12518903.69749   9752846.20145  23628446.447    23628455.870
       214.000         154.000
  23305549.220     7088109.98049   5530164.04845  23305549.284    23305557.421
       215.000         157.000
  21042963.437     -129247.35849    -87613.33847  21042962.840    21042969.519
       239.000         202.000
  24795320.192    -1678626.85149  -1298228.25645  24795318.858    24795330.672
       204.000         140.000
  24019532.810     3582254.09649   2803360.79045  24019532.634    24019541.746
       212.000         148.000
 03  3 19  0 28 30.0000000  0 10G 3G23G15G14G18G 6G26G17G 2G16
  22809742.090   -10836925.25049  -8405646.30746  22809741.455    22809748.578
       225.000         174.000
  21077979.650     1594762.43649   1250966.67747  21077979.079    21077985.282
       241.000         207.000
  20478673.740    -6379651.57349  -4956353.01247  20478672.910    20478679.299
       244.000         211.000
  23585545.722    -6611602.60749  -3970823.76845  23585544.887    23585552.985
       216.000         152.000
  20402941.777    -2591020.82649  -2007623.27548  20402941.318    20402946.225
       240.000         214.000
  23648941.971    12626610.37349   9836773.33745  23648942.358    23648951.746
       214.000         153.000
  23322766.204     7178585.56849   5600664.46745  23322766.095    23322773.814
       216.000         157.000
  21047533.243     -105233.04149    -68900.88847  21047532.696    21047539.154
       239.000         202.000
  24799201.433    -1658231.01849  -1282335.45545  24799201.170    24799212.818
       205.000         140.000
  24030657.971     3640717.42149   2848916.54845  24030657.812    24030666.937
       212.000         148.000
 03  3 19  0 29  0.0000000  0 10G 3G23G15G14G18G 6G26G17G 2G16
  22795393.695   -10912326.26349  -8464400.28246  22795393.118    22795400.626
       225.000         174.000
  21085658.417     1635114.60949   1282409.92047  21085657.993    21085663.919
       241.000         207.000
  20474182.964    -6403250.74049  -4974741.95547  20474182.199    20474188.598
       243.000         211.000
  23564523.934    -6722072.18549  -4056903.78845  23564523.410    23564530.729
       219.000         153.000
  20404642.078    -2582085.57449  -2000660.73948  20404641.681    20404646.263
       240.000         214.000
  23669466.122    12734465.10149   9920815.86445  23669465.340    23669476.162
       214.000         152.000
  23340057.715     7269452.93849   5671470.16945  23340057.195    23340064.889
       214.000         156.000
  21052151.504      -80963.83149    -49989.82647  21052151.029    21052157.598
       238.000         202.000
  24803147.460    -1637494.57549  -1266177.24145  24803146.349    24803157.693
       206.000         141.000
  24041834.000     3699447.60149   2894680.25045  24041833.175    24041843.248
       212.000         147.000
 03  3 19  0 29 30.0000000  0 10G 3G23G15G14G18G 6G26G17G 2G16
  22781116.450   -10987353.43649  -8522862.95746  22781116.191    22781122.682
       226.000         174.000
  21093379.749     1675690.45649   1314027.45447  21093379.327    21093385.541
       241.000         207.000
  20469739.285    -6426602.29149  -4992937.95047  20469738.705    20469744.833
       244.000         211.000
  23543524.664    -6832423.71449  -4142891.85345  23543523.788    23543531.800
       217.000         152.000
  20406408.479    -2572803.06649  -1993427.60748  20406408.028    20406412.765
       241.000         214.000
  23690018.142    12842465.99149  10004972.24845  23690017.732    23690027.531
       211.000         153.000
  23357423.296     7360709.71249   5742579.30145  23357423.332    23357431.268
       215.000         156.000
  21056818.471      -56438.91749    -30879.51547  21056817.988    21056824.637
       240.000         202.000
  24807158.020    -1616418.77949  -1249754.61845  24807156.913    24807167.876
       204.000         140.000
  24053060.349     3758442.10949   2940649.93345  24053060.073    24053069.609
       214.000         147.000
 03  3 19  0 30  0.0000000  0 10G 3G23G15G14G18G 6G26G17G 2G16
  22766910.823   -11062004.27449  -8581032.38546  22766910.046    22766916.827
       226.000         174.000
  21101143.382     1716488.55049   1345818.16747  21101142.903    21101149.032
       240.000         207.000
  20465343.040    -6449704.77349  -5010939.86747  20465342.278    20465348.566
       243.000         211.000
  23522548.410    -6942654.12049  -4228785.49845  23522547.609    23522554.901
       217.000         151.000
  20408240.800    -2563174.18349  -1985924.57548  20408240.239    20408244.906
       240.000         214.000
  23710597.572    12950610.86049  10089240.82445  23710597.645    23710607.259
       212.000         151.000
  23374862.512     7452353.08249   5813989.66145  23374862.499    23374870.590
       214.000         156.000
  21061534.277      -31657.29249    -11569.16647  21061533.754    21061540.474
       240.000         202.000
  24811232.953    -1595004.93249  -1233068.54845  24811232.171    24811243.415
       205.000         140.000
  24064336.428     3817698.29549   2986823.51345  24064335.657    24064344.815
       213.000         147.000
 03  3 19  0 30 30.0000000  0 10G 3G23G15G14G18G 6G26G17G 2G16
  22752777.158   -11136276.96349  -8638907.15746  22752776.870    22752783.781
       227.000         175.000
  21108948.849     1757506.48449   1377780.18547  21108948.239    21108954.536
       240.000         207.000
  20460994.208    -6472557.88549  -5028747.47347  20460993.459    20460999.901
       244.000         211.000
  23501595.521    -7052761.49749  -4314583.27545  23501594.904    23501602.600
       217.000         153.000
  20410138.616    -2553200.86449  -1978153.15148  20410138.075    20410142.883
       241.000         214.000
  23731203.819    13058896.73349  10173619.29745  23731203.520    23731213.801
       213.000         149.000
  23392374.524     7544379.52849   5885698.54045  23392374.186    23392382.564
       213.000         154.000
  21066298.924       -6619.02749      7941.16447  21066298.115    21066305.226
       240.000         202.000
  24815371.864    -1573255.33649  -1216120.88745  24815371.376    24815382.880
       205.000         141.000
  24075661.773     3877212.68949   3033198.30045  24075660.947    24075669.487
       215.000         148.000
 03  3 19  0 31  0.0000000  0 10G 3G23G15G14G18G 6G26G17G 2G16
  22738715.977   -11210168.72349  -8696485.10146  22738715.345    22738723.050
       227.000         175.000
  21116795.858     1798742.94149   1409912.48247  21116795.277    21116801.553
       241.000         207.000
  20456693.136    -6495160.10949  -5046359.57947  20456692.307    20456698.740
       244.000         211.000
  23480666.675    -7162742.77749  -4400282.81945  23480665.494    23480672.873
       217.000         154.000
  20412101.885    -2542883.99049  -1970114.02148  20412101.386    20412106.170
       241.000         214.000
  23751836.394    13167321.63949  10258106.08745  23751836.616    23751845.177
       211.000         148.000
  23409958.956     7636786.34449   5957703.80645  23409959.442    23409966.709
       212.000         154.000
  21071112.598       18677.12549     27652.44647  21071111.883    21071118.785
       240.000         202.000
  24819574.416    -1551171.37749  -1198912.66645  24819573.357    24819583.884
       204.000         141.000
  24087035.780     3936982.90449   3079772.42745  24087035.312    24087044.322
       214.000         148.000
 03  3 19  0 31 30.0000000  0  9G 3G23G15G14G18G 6G26G17G16
  22724728.217   -11283674.96249  -8753762.63846  22724728.138    22724734.440
       227.000         176.000
  21124684.589     1840198.50549   1442215.51447  21124684.076    21124690.106
       241.000         207.000
  20452440.435    -6517508.13549  -5063773.61447  20452439.511    20452446.007
       244.000         211.000
  23459762.733    -7272592.72449  -4485880.02945  23459761.895    23459769.973
       215.000         151.000
  20414130.664    -2532222.67749  -1961806.49748  20414130.352    20414135.001
       241.000         214.000
  23772495.443    13275885.34649  10342701.02245  23772495.374    23772505.711
       209.000         149.000
  23427615.718     7729572.91049   6030004.98745  23427615.629    23427624.142
       212.000         153.000
  21075975.983       44234.35549     47567.16447  21075975.356    21075982.273
       240.000         202.000
  24098458.214     3997007.95649   3126545.12145  24098458.484    24098467.171
       214.000         148.000
 03  3 19  0 32  0.0000000  0  9G 3G23G15G14G18G 6G26G17G16
  22710814.122   -11356793.88049  -8810738.37646  22710813.361    22710820.456
       227.000         176.000
  21132614.666     1881871.13849   1474687.68847  21132614.216    21132620.378
       240.000         207.000
  20448236.176    -6539601.46349  -5080989.18647  20448235.551    20448241.714
       243.000         211.000
  23438884.206    -7382308.95749  -4571373.03445  23438883.868    23438891.793
       218.000         153.000
  20416224.696    -2521218.42849  -1953231.75448  20416224.312    20416229.261
       240.000         214.000
  23793180.429    13384585.13649  10427402.01545  23793180.424    23793191.233
       209.000         148.000
  23445344.063     7822735.73749   6102599.34045  23445344.006    23445352.434
       210.000         153.000
  21080889.136       70053.01149     67685.58747  21080888.445    21080895.298
       239.000         202.000
  24109928.561     4057284.63149   3173513.86945  24109928.724    24109936.505
       212.000         148.000
 03  3 19  0 32 30.0000000  0  9G 3G23G15G14G18G 6G26G17G16
  22696973.382   -11429527.07249  -8867413.53546  22696973.112    22696980.559
       227.000         176.000
  21140584.875     1923754.95149   1507324.42647  21140584.408    21140590.578
       241.000         206.000
  20444079.824    -6561443.08849  -5098008.61747  20444079.049    20444085.463
       243.000         211.000
  23418031.111    -7491892.81249  -4656762.88545  23418029.885    23418037.880
       218.000         155.000
  20418382.924    -2509876.75349  -1944394.07748  20418382.308    20418387.222
       241.000         214.000
  23813890.024    13493414.60549  10512204.03545  23813890.237    23813900.739
       212.000         147.000
  23463142.543     7916267.68549   6175481.31945  23463141.875    23463150.888
       212.000         153.000
  21085851.365       96129.72149     88005.09747  21085850.879    21085857.564
       240.000         202.000
  24121445.448     4117806.03949   3220673.34145  24121444.951    24121452.942
       210.000         147.000
 03  3 19  0 33  0.0000000  0  9G 3G23G15G14G18G 6G26G17G16
  22683206.779   -11501870.92349  -8923785.32846  22683206.703    22683213.732
       226.000         177.000
  21148595.295     1965849.87549   1540125.65947  21148594.743    21148600.878
       240.000         206.000
  20439971.932    -6583030.15649  -5114829.69847  20439971.142    20439977.612
       243.000         211.000
  23397203.761    -7601340.16449  -4742046.38345  23397203.393    23397209.791
       215.000         153.000
  20420605.460    -2498197.29449  -1935293.19748  20420604.879    20420609.796
       240.000         214.000
  23834624.211    13602372.72249  10597106.30445  23834623.523    23834634.388
       212.000         148.000
  23481011.120     8010167.40749   6248649.89145  23481011.004    23481020.075
       213.000         152.000
  21090863.095      122466.37549    108527.15647  21090862.510    21090869.550
       239.000         202.000
  24133008.580     4178570.59249   3268022.26845  24133009.115    24133017.004
       212.000         147.000
 03  3 19  0 33 30.0000000  0  9G 3G23G15G14G18G 6G26G17G16
  22669514.615   -11573823.62349  -8979852.30846  22669513.622    22669521.545
       227.000         177.000
  21156645.453     2008153.65349   1573089.63847  21156644.979    21156651.157
       241.000         206.000
  20435912.576    -6604362.25549  -5131452.09747  20435911.743    20435918.132
       243.000         211.000
  23376402.816    -7710648.86849  -4827221.87445  23376402.174    23376409.613
       217.000         153.000
  20422891.887    -2486182.02249  -1925930.64148  20422891.456    20422896.191
       241.000         214.000
  23855382.294    13711456.44749  10682106.44345  23855382.382    23855393.271
       210.000         147.000
  23498949.026     8104431.16649   6322102.10945  23498948.756    23498957.544
       211.000         153.000
  21095924.336      149063.38249    129252.09347  21095923.756    21095930.466
       239.000         202.000
  24144617.365     4239574.79349   3315557.91645  24144616.360    24144626.224
       212.000         147.000
 03  3 19  0 34  0.0000000  0  9G 3G23G15G14G18G 6G26G17G16
  22655897.437   -11645381.93349  -9035611.96946  22655897.199    22655904.957
       227.000         177.000
  21164735.197     2050665.64849   1606215.86647  21164734.789    21164740.795
       240.000         206.000
  20431902.091    -6625437.30749  -5147874.20147  20431901.299    20431907.715
       243.000         211.000
  23355629.015    -7819815.06649  -4912286.28145  23355628.835    23355637.167
       216.000         154.000
  20425242.138    -2473831.25949  -1916306.66648  20425241.769    20425246.500
       241.000         214.000
  23876163.903    13820664.48349  10767203.43245  23876163.426    23876173.605
       208.000         146.000
  23516955.904     8199057.20549   6395836.63045  23516955.431    23516963.537
       209.000         153.000
  21101035.445      175922.56249    150181.32247  21101034.738    21101041.550
       239.000         202.000
  24156271.456     4300817.06449   3363279.08345  24156271.181    24156278.902
       210.000         147.000
 03  3 19  0 34 30.0000000  0  9G 3G23G15G14G18G 6G26G17G16
  22642355.829   -11716543.34649  -9091062.36646  22642355.244    22642362.265
       228.000         178.000
  21172864.305     2093384.32449   1639503.14347  21172863.512    21172870.046
       241.000         206.000
  20427940.826    -6646253.96149  -5164094.95747  20427940.021    20427946.276
       244.000         211.000
  23334882.851    -7928835.71449  -4997237.26345  23334881.608    23334890.550
       217.000         155.000
  20427656.086    -2461146.04349  -1906422.08048  20427655.518    20427660.408
       242.000         214.000
  23896968.819    13929994.61249  10852395.60345  23896969.472    23896979.778
       209.000         145.000
  23535031.078     8294042.52849   6469851.11645  23535031.177    23535039.185
       211.000         152.000
  21106196.592      203044.64149    171315.41147  21106195.935    21106202.932
       240.000         201.000
  24167970.306     4362294.46349   3411183.47445  24167970.372    24167978.513
       213.000         147.000
 03  3 19  0 35  0.0000000  0  9G 3G23G15G14G18G 6G26G17G16
  22628890.180   -11787305.61749  -9146201.74646  22628890.035    22628897.008
       228.000         178.000
  21181032.395     2136307.83049   1672950.02647  21181031.777    21181038.078
       240.000         206.000
  20424028.827    -6666811.57549  -5180113.86547  20424027.970    20424034.377
       243.000         211.000
  23314164.929    -8037708.43349  -5082073.00845  23314164.090    23314171.251
       218.000         155.000
  20430133.372    -2448127.71549  -1896277.93148  20430132.943    20430137.731
       240.000         214.000
  23917796.534    14039444.24449  10937680.84445  23917797.523    23917807.572
       209.000         146.000
  23553173.887     8389383.94049   6544143.06945  23553173.597    23553182.412
       211.000         152.000
  21111407.908      230430.24649    192654.84247  21111407.197    21111414.090
       239.000         201.000
  24179713.226     4424003.72649   3459268.54445  24179712.913    24179720.920
       211.000         147.000
 03  3 19  0 35 30.0000000  0  9G 3G23G15G14G18G 6G26G17G16
  22615500.943   -11857666.49949  -9201028.33946  22615500.435    22615507.411
       227.000         178.000
  21189239.154     2179434.53849   1706555.25247  21189238.625    21189244.817
       241.000         206.000
  20420166.397    -6687108.83449  -5195929.89547  20420165.504    20420171.870
       244.000         211.000
  23293475.768    -8146430.37349  -5166791.27645  23293474.033    23293482.907
       219.000         155.000
  20432673.779    -2434777.76349  -1885875.36948  20432673.415    20432677.995
       241.000         214.000
  23938646.546    14149011.15149  11023057.49245  23938646.890    23938658.204
       207.000         146.000
  23571384.096     8485078.67949   6618710.33045  23571383.381    23571392.256
       210.000         152.000
  21116669.503      258079.97949    214200.09647  21116668.764    21116675.683
       240.000         201.000
  24191499.803     4485941.99049   3507532.05645  24191499.314    24191508.455
       211.000         148.000
 03  3 19  0 36  0.0000000  0  9G 3G23G15G14G18G 6G26G17G16
  22602188.384   -11927624.09249  -9255540.69046  22602187.851    22602194.999
       228.000         178.000
  21197484.234     2222762.70549   1740317.45247  21197483.757    21197490.000
       240.000         206.000
  20416353.598    -6707145.09349  -5211542.54847  20416352.923    20416359.226
       243.000         211.000
  23272815.785    -8254998.78049  -5251389.86745  23272814.826    23272822.842
       216.000         156.000
  20435277.069    -2421097.35649  -1875215.31348  20435276.662    20435281.315
       240.000         214.000
  23959518.291    14258692.62849  11108523.40545  23959519.070    23959528.611
       207.000         146.000
  23589660.813     8581123.39549   6693550.29045  23589660.438    23589669.587
       210.000         152.000
  21121981.441      285994.52149    235951.68747  21121981.027    21121987.523
       239.000         201.000
  24203329.307     4548106.43349   3555971.80045  24203329.454    24203338.093
       211.000         148.000
 03  3 19  0 36 30.0000000  0  9G 3G23G15G14G18G 6G26G17G16
  22588953.186   -11997175.34549  -9309736.39846  22588952.344    22588960.081
       229.000         178.000
  21205767.470     2266291.35149   1774235.87047  21205766.873    21205773.085
       241.000         206.000
  20412590.812    -6726918.63849  -5226950.49047  20412590.018    20412596.302
       244.000         211.000
  23252185.675    -8363410.18749  -5335866.15545  23252185.057    23252192.395
       219.000         157.000
  20437943.134    -2407087.30849  -1864298.39248  20437942.807    20437947.453
       241.000         214.000
  23980411.654    14368486.98849  11194077.28345  23980411.457    23980422.684
       209.000         146.000
  23608003.688     8677515.76049   6768661.15445  23608004.019    23608011.542
       210.000         151.000
  21127344.055      314175.25449    257910.69747  21127343.564    21127350.234
       239.000         201.000
  24215201.409     4610494.65549   3604585.93345  24215200.486    24215210.744
       212.000         148.000
 03  3 19  0 37  0.0000000  0  9G 3G23G15G14G18G 6G26G17G16
  22575795.518   -12066319.09349  -9363614.57746  22575794.693    22575802.162
       229.000         179.000
  21214088.335     2310017.73049   1808308.36847  21214087.853    21214094.142
       240.000         206.000
  20408878.091    -6746429.12349  -5242153.44847  20408877.268    20408883.700
       243.000         211.000
  23231585.846    -8471662.85449  -5420218.74345  23231584.429    23231592.657
       216.000         157.000
  20440671.459    -2392749.75449  -1853126.26848  20440670.918    20440675.804
       240.000         214.000
  24001325.855    14478390.87249  11279716.48845  24001326.657    24001335.457
       208.000         146.000
  23626411.950     8774251.69949   6844039.75545  23626411.875    23626420.844
       212.000         152.000
  21132757.337      342622.19949    280077.15447  21132756.827    21132763.290
       238.000         201.000
  24227115.505     4673102.66049   3653371.33245  24227115.887    24227124.079
       209.000         147.000
 03  3 19  0 37 30.0000000  0  9G 3G23G15G14G18G 6G26G17G16
  22562715.993   -12135052.23249  -9417172.79646  22562715.197    22562722.675
       230.000         180.000
  21222446.678     2353941.10249   1842534.36747  21222446.186    21222452.393
       241.000         206.000
  20405215.762    -6765674.76549  -5257150.03747  20405214.974    20405221.191
       244.000         211.000
  23211016.776    -8579753.39849  -5504444.98645  23211016.268    23211024.534
       218.000         157.000
  20443462.018    -2378085.24949  -1841699.38048  20443461.446    20443466.381
       241.000         214.000
  24022260.519    14588402.64649  11365439.76845  24022259.696    24022270.519
       208.000         144.000
  23644885.225     8871329.03249   6919684.36045  23644886.076    23644893.597
       212.000         152.000
  21138221.459      371336.23549    302451.72447  21138220.694    21138227.634
       239.000         201.000
  24239070.803     4735928.20549   3702326.22045  24239071.580    24239080.074
       210.000         146.000
 03  3 19  0 38  0.0000000  0  9G 3G23G15G14G18G 6G26G17G16
  22549714.996   -12203372.71949  -9470409.47646  22549714.278    22549721.572
       229.000         180.000
  21230842.175     2398059.61749   1876912.42547  21230841.604    21230847.945
       240.000         206.000
  20401604.050    -6784654.30949  -5271939.27247  20401603.344    20401609.560
       243.000         211.000
  23190479.175    -8687679.04949  -5588542.76245  23190479.075    23190485.854
       219.000         159.000
  20446314.475    -2363095.48749  -1830019.04148  20446314.001    20446318.666
       240.000         214.000
  24043215.220    14698519.72349  11451245.11145  24043216.178    24043225.387
       209.000         143.000
  23663422.786     8968744.63449   6995592.54745  23663423.083    23663431.026
       210.000         151.000
  21143736.432      400317.69449    325034.68447  21143735.736    21143742.671
       239.000         201.000
  24251066.884     4798968.03149   3751448.11145  24251066.786    24251074.636
       210.000         145.000
 03  3 19  0 38 30.0000000  0  9G 3G23G15G14G18G 6G26G17G16
  22536792.891   -12271278.39749  -9523322.92846  22536792.383    22536799.845
       229.000         180.000
  21239274.429     2442371.48449   1911441.14647  21239273.807    21239280.247
       240.000         206.000
  20398043.174    -6803366.79049  -5286520.41147  20398042.259    20398048.768
       243.000         211.000
  23169973.416    -8795437.14949  -5672509.96945  23169972.102    23169980.588
       216.000         158.000
  20449228.628    -2347781.61549  -1818086.15048  20449228.314    20449233.029
       241.000         214.000
  24064189.584    14808739.64549  11537130.58545  24064190.438    24064200.637
       208.000         143.000
  23682024.194     9066495.43449   7071761.92245  23682025.205    23682032.935
       209.000         151.000
  21149302.626      429568.00649    347827.13247  21149301.803    21149308.970
       239.000         201.000
  24263103.219     4862219.32549   3800734.77845  24263102.434    24263111.549
       208.000         144.000
 03  3 19  0 39  0.0000000  0  9G 3G23G15G14G18G 6G26G17G16
  22523950.237   -12338766.80249  -9575911.22846  22523949.694    22523956.876
       229.000         181.000
  21247743.257     2486875.43549   1946119.54047  21247742.734    21247748.879
       240.000         206.000
  20394533.318    -6821811.14849  -5300892.62247  20394532.559    20394538.741
       243.000         211.000
  23149500.041    -8903024.84349  -5756344.39545  23149499.725    23149506.945
       218.000         158.000
  20452204.196    -2332144.81749  -1805901.62948  20452203.754    20452208.389
       241.000         214.000
  24085183.070    14919060.32949  11623094.57745  24085183.195    24085193.092
       209.000         143.000
  23700688.890     9164578.54749   7148190.25145  23700689.264    23700697.544
       210.000         150.000
  21154920.047      459087.67549    370829.46847  21154919.374    21154926.103
       238.000         201.000
  24275179.212     4925679.38549   3850184.12545  24275179.243    24275189.759
       209.000         143.000
 03  3 19  0 39 30.0000000  0  9G 3G23G15G14G18G 6G26G17G16
  22511187.271   -12405836.46049  -9628173.24946  22511187.259    22511193.131
       230.000         181.000
  21256248.195     2531569.14249   1980945.80247  21256247.756    21256253.821
       241.000         205.000
  20391074.594    -6839986.88049  -5315055.51547  20391073.823    20391080.190
       244.000         211.000
  23129059.468    -9010439.91649  -5840044.31645  23129058.766    23129066.391
       220.000         160.000
  20455240.883    -2316186.95049  -1793466.92148  20455240.382    20455245.154
       241.000         214.000
  24106195.150    15029478.60149  11709134.60245  24106196.008    24106206.132
       206.000         143.000
  23719416.158     9262990.27149   7224874.63645  23719416.400    23719425.000
       212.000         151.000
  21160588.743      488876.96849    394041.89647  21160588.030    21160594.975
       239.000         201.000
  24287294.363     4989344.59849   3899793.28145  24287294.576    24287302.505
       209.000         144.000
 03  3 19  0 40  0.0000000  0  9G 3G23G15G14G18G 6G26G17G16
  22498504.551   -12472484.32649  -9680106.59246  22498503.850    22498511.378
       229.000         181.000
  21264789.106     2576451.72149   2015919.23847  21264788.513    21264794.734
       240.000         205.000
  20387667.309    -6857892.17349  -5329007.67447  20387666.562    20387672.713
       243.000         212.000
  23108652.400    -9117678.97649  -5923607.06245  23108651.953    23108659.954
       218.000         160.000
  20458338.492    -2299908.75149  -1780782.60648  20458338.077    20458342.849
       240.000         214.000
  24127225.460    15139992.88749  11795249.46045  24127226.359    24127236.103
       205.000         141.000
  23738205.368     9361728.22749   7301813.21945  23738206.252    23738214.528
       211.000         152.000
  21166309.012      518937.18149    417465.42947  21166308.400    21166315.138
       239.000         200.000
  24299448.053     5053212.59249   3949560.48745  24299447.772    24299457.040
       206.000         143.000
 03  3 19  0 40 30.0000000  0  9G 3G23G15G14G18G 6G26G17G16
  22485902.490   -12538708.47949  -9731709.77646  22485901.534    22485908.980
       230.000         181.000
  21273365.525     2621521.22949   2051038.33447  21273364.946    21273371.168
       241.000         205.000
  20384311.648    -6875526.26449  -5342748.50747  20384310.955    20384317.166
       244.000         212.000
  23088279.440    -9224739.33649  -6007030.59345  23088278.627    23088286.575
       220.000         160.000
  20461496.772    -2283311.85549  -1767849.95248  20461496.211    20461500.904
       241.000         214.000
  24148273.448    15250600.39749  11881436.91945  24148273.318    24148285.155
       207.000         140.000
  23757056.104     9460789.08249   7379003.42345  23757056.002    23757063.586
       212.000         151.000
  21172080.875      549268.44549    441100.17547  21172080.004    21172086.953
       239.000         200.000
  24311639.678     5117280.09849   3999483.15545  24311640.272    24311648.489
       209.000         143.000
 03  3 19  0 41  0.0000000  0  9G 3G23G15G14G18G 6G26G17G16
  22473381.329   -12604507.31649  -9782981.55646  22473380.822    22473388.216
       228.000         181.000
  21281977.215     2666775.91349   2086301.72047  21281976.784    21281982.764
       240.000         205.000
  20381007.784    -6892888.22549  -5356277.29847  20381006.883    20381013.248
       243.000         212.000
  23067940.863    -9331618.89549  -6090313.23145  23067940.407    23067947.111
       218.000         162.000
  20464715.429    -2266397.77649  -1754670.14848  20464714.843    20464719.536
       241.000         214.000
  24169338.702    15361298.51649  11967695.00745  24169338.835    24169348.922
       208.000         142.000
  23775967.665     9560169.61849   7456442.74645  23775968.290    23775975.412
       210.000         150.000
  21177904.395      579871.32349    464946.56647  21177903.502    21177910.593
       238.000         200.000
  24323868.836     5181544.01449   4049558.88745  24323868.716    24323878.060
       208.000         144.000
 03  3 19  0 41 30.0000000  0  9G 3G23G15G14G18G 6G26G17G16
  22460941.656   -12669878.05049  -9833919.74546  22460940.904    22460947.968
       228.000         181.000
  21290623.932     2712214.58749   2121708.48147  21290623.428    21290629.664
       241.000         205.000
  20377755.983    -6909976.41049  -5369592.75247  20377755.244    20377761.403
       244.000         212.000
  23047637.288    -9438313.93749  -6173452.06445  23047636.573    23047644.108
       219.000         162.000
  20467994.289    -2249167.21249  -1741243.72948  20467993.823    20467998.525
       242.000         214.000
  24190420.880    15472085.35649  12054022.21645  24190421.170    24190432.821
       208.000         141.000
  23794939.555     9659867.28849   7534129.18045  23794940.266    23794947.472
       211.000         149.000
  21183779.900      610747.28749    489005.74547  21183779.345    21183786.151
       239.000         200.000
  24336134.858     5246001.69449   4099785.59845  24336135.564    24336143.664
       210.000         145.000
 03  3 19  0 42  0.0000000  0  9G 3G23G15G14G18G 6G26G17G16
  22448583.788   -12734819.08749  -9884523.11146  22448583.369    22448590.081
       228.000         181.000
  21299305.247     2757835.25749   2157257.05447  21299304.818    21299311.156
       239.000         205.000
  20374556.398    -6926790.33049  -5382694.49847  20374555.679    20374561.958
       243.000         212.000
  23027369.335    -9544822.43849  -6256445.57146  23027368.325    23027375.716
       220.000         163.000
  20471333.001    -2231622.22949  -1727572.30948  20471332.491    20471337.288
       241.000         214.000
  24211519.480    15582958.07249  12140416.34545  24211519.724    24211530.404
       208.000         141.000
  23813971.153     9759878.67449   7612060.04045  23813971.151    23813979.604
       210.000         149.000
  21189707.395      641896.43949    513277.80047  21189706.811    21189713.965
       238.000         200.000
  24348437.065     5310649.69349   4150160.60545  24348437.487    24348446.874
       210.000         145.000
 03  3 19  0 42 30.0000000  0  9G 3G23G15G14G18G 6G26G17G16
  22436308.176   -12799327.70249  -9934789.52446  22436307.408    22436314.729
       229.000         182.000
  21308020.997     2803636.72549   2192946.50447  21308020.295    21308026.684
       240.000         205.000
  20371409.344    -6943328.09649  -5395581.06247  20371408.667    20371414.808
       244.000         212.000
  23007137.484    -9651141.21649  -6339291.23446  23007136.861    23007144.003
       221.000         163.000
  20474731.313    -2213763.86349  -1713656.69848  20474730.789    20474735.591
       242.000         214.000
  24232634.063    15693914.64649  12226875.81245  24232633.507    24232644.332
       210.000         141.000
  23833061.947     9860201.03149   7690233.23145  23833062.564    23833069.731
       212.000         150.000
  21195687.029      673319.63249    537763.38547  21195686.442    21195693.319
       238.000         200.000
  24360774.924     5375485.46549   4200681.89045  24360774.727    24360782.950
       209.000         145.000
 03  3 19  0 43  0.0000000  0  9G 3G23G15G14G18G 6G26G17G16
  22424114.957   -12863402.98549  -9984718.28146  22424114.489    22424121.515
       229.000         182.000
  21316770.574     2849616.00349   2228774.51747  21316770.157    21316776.285
       240.000         205.000
  20368314.793    -6959590.15949  -5408252.78747  20368314.000    20368320.299
       243.000         212.000
  22986942.008    -9757268.75349  -6421987.87846  22986941.641    22986948.722
       221.000         164.000
  20478188.839    -2195594.39649  -1699498.66548  20478188.235    20478193.138
       241.000         214.000
  24253763.894    15804951.35249  12313397.72245  24253764.138    24253775.664
       209.000         141.000
  23852211.111     9960830.14149   7768645.46945  23852211.657    23852219.231
       212.000         150.000
  21201718.766      705016.59849    562462.31147  21201718.086    21201725.086
       238.000         200.000
  24373147.726     5440504.85049   4251346.26445  24373147.881    24373156.641
       207.000         144.000
 03  3 19  0 43 30.0000000  0  9G 3G23G15G14G18G 6G26G17G16
  22412004.917   -12927041.41849 -10034306.63546  22412004.102    22412011.422
       230.000         182.000
  21325553.927     2895772.76849   2264740.83147  21325553.297    21325559.604
       240.000         205.000
  20365273.151    -6975573.88549  -5420707.62547  20365272.455    20365278.607
       244.000         212.000
  22966783.731    -9863200.90249  -6504532.26546  22966782.787    22966789.627
       222.000         165.000
  20481705.555    -2177113.95249  -1685098.31648  20481705.011    20481709.955
       242.000         214.000
  24274908.658    15916067.37549  12399981.43945  24274908.620    24274919.873
       210.000         141.000
  23871418.326    10061764.19749   7847295.30745  23871418.161    23871426.788
       210.000         148.000
  21207802.938      736989.13249    587375.96547  21207802.134    21207809.444
       238.000         200.000
  24385555.175     5505706.31449   4302152.51245  24385553.742    24385564.313
       209.000         144.000
 03  3 19  0 44  0.0000000  0  9G 3G23G15G14G18G 6G26G17G16
  22399978.427   -12990241.14049 -10083553.13846  22399977.928    22399985.381
       229.000         183.000
  21334370.758     2942105.55449   2300844.29947  21334370.373    21334376.222
       240.000         204.000
  20362284.682    -6991278.37149  -5432944.87447  20362283.794    20362290.093
       243.000         212.000
  22946663.056    -9968935.10049  -6586922.42646  22946661.976    22946668.545
       221.000         165.000
  20485281.210    -2158323.74149  -1670456.59148  20485280.815    20485285.488
       241.000         214.000
  24296068.129    16027260.06449  12486624.89845  24296067.403    24296079.071
       208.000         141.000
  23890682.839    10163000.20549   7926180.44045  23890682.105    23890691.673
       211.000         148.000
  21213939.742      769238.30649    612505.17547  21213938.826    21213946.020
       238.000         199.000
  24397996.688     5571086.75849   4353098.23245  24397996.059    24398006.490
       208.000         142.000
 03  3 19  0 44 30.0000000  0  9G 3G23G15G14G18G 6G26G17G16
  22388035.727   -13053000.47249 -10132456.48146  22388035.635    22388042.230
       230.000         183.000
  21343220.744     2988612.52949   2337083.49547  21343219.946    21343226.323
       240.000         204.000
  20359349.513    -7006702.71349  -5444963.82547  20359348.856    20359354.999
       244.000         212.000
  22926580.570   -10074468.78749  -6669156.33846  22926580.019    22926587.436
       221.000         166.000
  20488915.520    -2139225.48949  -1655574.83148  20488915.049    20488919.836
       242.000         214.000
  24317241.697    16138526.88949  12573326.13045  24317241.324    24317253.177
       208.000         141.000
  23910004.295    10264534.78449   8005298.20945  23910004.898    23910012.166
       211.000         149.000
  21220129.169      801763.95649    637849.82147  21220128.611    21220135.303
       238.000         199.000
  24410471.737     5636642.72249   4404180.71845  24410471.622    24410481.038
       206.000         142.000
 03  3 19  0 45  0.0000000  0  9G 3G23G15G14G18G 6G26G17G16
  22376177.252   -13115317.03749 -10181014.81246  22376177.105    22376183.433
       229.000         183.000
  21352103.580     3035292.25449   2373457.30847  21352102.887    21352109.036
       239.000         204.000
  20356467.888    -7021845.82849  -5456763.63947  20356467.011    20356473.290
       243.000         212.000
  22906536.705   -10179799.28549  -6751231.90946  22906535.835    22906542.725
       221.000         166.000
  20492608.172    -2119820.52149  -1640454.07148  20492607.773    20492612.460
       241.000         214.000
  24338428.855    16249865.18249  12660083.02745  24338429.336    24338440.284
       205.000         141.000
  23929381.999    10366364.82949   8084646.22045  23929381.864    23929390.229
       212.000         148.000
  21226371.400      834566.98449    663410.61347  21226370.769    21226377.697
       238.000         199.000
  24422979.523     5702371.22049   4455397.63545  24422979.053    24422989.501
       206.000         141.000
 03  3 19  0 45 30.0000000  0  9G 3G23G15G14G18G 6G26G17G16
  22364403.450   -13177188.82249 -10229226.56446  22364402.696    22364409.491
       230.000         184.000
  21361018.979     3082142.92349   2409964.31747  21361018.385    21361024.840
       240.000         204.000
  20353639.976    -7036706.50649  -5468343.37447  20353639.129    20353645.418
       244.000         212.000
  22886532.126   -10284923.86049  -6833147.03946  22886531.524    22886538.735
       222.000         167.000
  20496358.875    -2100110.34449  -1625095.48048  20496358.296    20496363.045
       241.000         213.000
  24359629.137    16361272.70749  12746893.86745  24359629.579    24359640.162
       210.000         141.000
  23948815.373    10468487.36149   8164222.13945  23948815.610    23948823.498
       212.000         146.000
  21232666.507      867647.89649    689187.93447  21232665.961    21232672.642
       239.000         199.000
  24435519.612     5768269.42249   4506746.77045  24435520.091    24435528.119
       206.000         141.000
 03  3 19  0 46  0.0000000  0  9G 3G23G15G14G18G 6G26G17G16
  22352714.673   -13238613.79449 -10277090.14046  22352714.238    22352721.184
       229.000         184.000
  21369966.635     3129163.22649   2446603.50747  21369965.960    21369972.230
       239.000         204.000
  20350866.052    -7051283.43249  -5479702.00347  20350865.359    20350871.563
       243.000         212.000
  22866567.246   -10389839.51349  -6914899.38446  22866566.695    22866573.567
       222.000         167.000
  20500167.459    -2080096.06949  -1609499.93448  20500166.920    20500171.672
       241.000         213.000
  24380842.134    16472747.21249  12833756.92345  24380842.894    24380853.067
       206.000         140.000
  23968303.795    10570899.47749   8244023.73045  23968304.128    23968312.677
       212.000         146.000
  21239014.638      901007.45349    715182.38147  21239013.947    21239021.244
       238.000         199.000
  24448091.368     5834334.46049   4558225.93145  24448091.169    24448101.365
       206.000         140.000
 03  3 19  0 46 30.0000000  0 10G 3G23G15G14G18G 6G26G17G 9G16
  22341111.271   -13299590.10549 -10324604.11846  22341110.471    22341117.573
       230.000         184.000
  21378946.252     3176351.29149   2483373.42347  21378945.764    21378952.103
       240.000         203.000
  20348146.300    -7065575.98249  -5490839.04247  20348145.552    20348151.747
       244.000         212.000
  22846642.522   -10494543.93549  -6996487.12846  22846642.159    22846647.970
       224.000         168.000
  20504033.613    -2059779.25449  -1593668.64348  20504033.133    20504037.909
       242.000         213.000
  24402067.450    16584285.96549  12920670.04145  24402067.840    24402078.197
       206.000         137.000
  23987846.629    10673597.88949   8324048.38445  23987846.879    23987854.981
       212.000         146.000
  21245415.903      934646.16449    741394.35147  21245415.655    21245422.175
       238.000         199.000
  24435353.606    -5329561.26059  -4135849.60845  24435353.857    24435363.632
       207.000         138.000
  24460694.233     5900562.95149   4609832.45445  24460693.664    24460703.724
       206.000         140.000
 03  3 19  0 47  0.0000000  0 10G 3G23G15G14G18G 6G26G17G 9G16
  22329593.567   -13360115.78549 -10371766.95146  22329592.655    22329599.761
       230.000         185.000
  21387957.442     3223705.46449   2520272.77547  21387956.866    21387963.187
       239.000         203.000
  20345480.866    -7079582.85049  -5501753.46847  20345480.097    20345486.241
       243.000         212.000
  22826758.599   -10599034.26049  -7077908.04446  22826758.034    22826764.911
       224.000         168.000
  20507957.047    -2039161.51049  -1577602.86048  20507956.517    20507961.314
       241.000         213.000
  24423304.460    16695886.63749  13007631.39645  24423304.538    24423314.933
       205.000         136.000
  24007443.492    10776579.58749   8404293.78645  24007443.743    24007452.462
       210.000         147.000
  21251870.433      968564.77849    767824.42647  21251869.857    21251876.602
       237.000         198.000
  24423488.131    -5391914.19749  -4184436.17845  24423488.731    24423498.000
       206.000         139.000
  24473327.731     5966951.91949   4661564.02945  24473326.529    24473336.838
       207.000         141.000
 03  3 19  0 47 30.0000000  0 10G 3G23G15G14G18G 6G26G17G 9G16
  22318162.077   -13420188.58249 -10418576.89246  22318161.598    22318168.738
       231.000         185.000
  21396999.992     3271224.46149   2557300.55947  21396999.625    21397005.665
       240.000         203.000
  20342870.002    -7093302.95249  -5512444.43947  20342869.265    20342875.494
       244.000         212.000
  22806915.922   -10703307.56349  -7159159.86846  22806915.251    22806922.511
       226.000         168.000
  20511937.531    -2018243.83149  -1561303.36048  20511936.982    20511941.707
       242.000         213.000
  24444552.730    16807546.83349  13094639.12745  24444553.228    24444564.717
       207.000         138.000
  24027093.643    10879841.56449   8484757.57645  24027094.299    24027103.058
       213.000         146.000
  21258378.292     1002763.83449    794473.02947  21258377.482    21258384.433
       238.000         198.000
  24411672.004    -5454008.16049  -4232820.92745  24411672.111    24411681.354
       207.000         139.000
  24485991.177     6033498.60149   4713418.49145  24485990.691    24486000.756
       208.000         140.000
 03  3 19  0 48  0.0000000  0 10G 3G23G15G14G18G 6G26G17G 9G16
  22306817.103   -13479806.60549 -10465032.45746  22306816.552    22306823.289
       230.000         185.000
  21406073.646     3318906.90449   2594455.70247  21406073.054    21406079.102
       239.000         203.000
  20340313.904    -7106735.23449  -5522911.13747  20340313.114    20340319.264
       243.000         212.000
  22787115.005   -10807361.45549  -7240240.71646  22787114.469    22787120.812
       224.000         169.000
  20515974.910    -1997027.35049  -1544771.02648  20515974.466    20515979.124
       241.000         213.000
  24465811.999    16919264.34449  13181691.49145  24465813.610    24465823.966
       206.000         137.000
  24046796.587    10983380.90249   8565437.51045  24046796.539    24046804.166
       212.000         146.000
  21264939.709     1037244.30949    821340.92147  21264938.829    21264946.018
       237.000         198.000
  24399905.597    -5515840.00449  -4281001.43345  24399905.257    24399914.795
       206.000         138.000
  24498684.137     6100200.24649   4765393.70245  24498684.204    24498694.277
       208.000         141.000
 03  3 19  0 48 30.0000000  0 11G 3G23G15G14G18G 6G26G17G 9G31G16
  22295559.038   -13538968.08849 -10511132.28346  22295558.596    22295565.424
       231.000         185.000
  21415178.021     3366750.73849   2631736.60747  21415177.151    21415183.541
       239.000         203.000
  20337812.756    -7119878.87249  -5533152.92347  20337811.916    20337818.189
       244.000         212.000
  22767356.302   -10911193.32249  -7321148.55446  22767355.238    22767363.262
       225.000         169.000
  20520068.718    -1975514.03249  -1528007.39548  20520068.013    20520072.946
       241.000         213.000
  24487081.665    17031036.37049  13268786.36045  24487080.947    24487093.064
       206.000         136.000
  24066551.628    11087193.83449   8646330.65245  24066552.143    24066559.767
       214.000         146.000
  21271554.623     1072005.88649    848427.84947  21271553.960    21271560.810
       237.000         198.000
  24388189.738    -5577406.91449  -4328975.48945  24388189.847    24388198.725
       209.000         139.000
  24420255.331    -1933639.14249  -1470593.70145  24420254.060    24420263.975
       205.000         138.000
  24511405.963     6167052.98949   4817486.64945  24511406.197    24511414.468
       208.000         141.000
 03  3 19  0 49  0.0000000  0 11G 3G23G15G14G18G 6G26G17G 9G31G16
  22284387.832   -13597672.98749 -10556876.33546  22284387.490    22284394.123
       230.000         185.000
  21424312.494     3414752.58949   2669140.63847  21424311.768    21424318.188
       239.000         202.000
  20335366.361    -7132734.62149  -5543170.37647  20335365.579    20335371.807
       243.000         212.000
  22747640.073   -11014802.20649  -7401882.65646  22747638.847    22747647.328
       225.000         170.000
  20524218.406    -1953707.10549  -1511014.97948  20524217.980    20524222.757
       241.000         213.000
  24508360.918    17142858.67649  13355920.41945  24508360.815    24508372.683
       203.000         134.000
  24086357.814    11191275.85049   8727433.45345  24086357.692    24086364.787
       213.000         146.000
  21278222.864     1107047.62249    875733.08047  21278221.824    21278229.184
       237.000         198.000
  24376524.338    -5638707.88549  -4376742.30845  24376522.824    24376534.192
       206.000         140.000
  24402291.918    -2028036.56149  -1544150.00145  24402290.766    24402299.735
       207.000         139.000
  24524155.652     6234052.05249   4869693.61845  24524155.860    24524165.140
       210.000         142.000
 03  3 19  0 49 30.0000000  0 11G 3G23G15G14G18G 6G26G17G 9G31G16
  22273304.545   -13655915.85449 -10602260.36046  22273303.953    22273310.790
       231.000         186.000
  21433477.412     3462914.60049   2706669.46847  21433476.783    21433483.220
       239.000         202.000
  20332975.698    -7145297.63649  -5552959.72147  20332974.794    20332981.135
       244.000         212.000
  22727967.421   -11118182.04349  -7482438.26946  22727966.436    22727973.717
       226.000         170.000
  20528424.419    -1931604.39949  -1493792.08348  20528424.008    20528428.603
       242.000         213.000
  24529649.875    17254732.43749  13443094.59144  24529650.786    24529660.978
       204.000         131.000
  24106215.338    11295627.42649   8808746.28245  24106215.674    24106224.362
       212.000         147.000
  21284945.275     1142374.04749    903260.15347  21284944.699    21284951.463
       237.000         197.000
  24364910.929    -5699736.20449  -4424296.65845  24364910.483    24364920.508
       208.000         141.000
  24384379.743    -2122165.66849  -1617497.24645  24384378.526    24384387.783
       211.000         140.000
  24536933.306     6301198.11849   4922015.12745  24536932.445    24536941.791
       207.000         143.000
 03  3 19  0 50  0.0000000  0 10G 3G23G15G14G18G26G17G 9G31G16
  22262309.508   -13713694.78449 -10647282.87146  22262308.824    22262315.547
       230.000         185.000
  21442672.473     3511235.08149   2744321.79147  21442671.747    21442678.295
       238.000         202.000
  20330640.941    -7157566.80449  -5562520.09447  20330639.981    20330646.377
       243.000         212.000
  22708339.005   -11221330.12749  -7562813.30646  22708338.424    22708344.764
       225.000         171.000
  20532686.437    -1909207.26249  -1476339.75848  20532685.887    20532690.796
       241.000         213.000
  24126123.504    11400245.33149   8890266.64845  24126124.412    24126131.822
       212.000         146.000
  21291721.855     1177985.33449    931009.19547  21291721.208    21291727.953
       237.000         197.000
  24353350.013    -5760488.65249  -4471636.07645  24353349.047    24353359.590
       207.000         139.000
  24366518.970    -2216023.78349  -1690633.32345  24366518.570    24366527.232
       209.000         141.000
  24549738.152     6368487.98449   4974448.69345  24549738.290    24549747.762
       208.000         142.000
 03  3 19  0 50 30.0000000  0 10G 3G23G15G14G18G26G17G 9G31G16
  22251403.039   -13771008.48449 -10691942.87546  22251402.585    22251409.463
       231.000         186.000
  21451897.287     3559711.76549   2782095.81547  21451896.631    21451903.256
       240.000         202.000
  20328362.159    -7169541.78349  -5571851.23447  20328361.318    20328367.727
       244.000         212.000
  22688755.010   -11324244.52149  -7643006.24246  22688754.362    22688761.063
       226.000         171.000
  20537004.080    -1886517.93949  -1458659.76248  20537003.708    20537008.366
       242.000         213.000
  24146081.614    11505125.87249   8971991.68445  24146082.825    24146089.085
       214.000         143.000
  21298552.705     1213881.56049    958980.25647  21298552.069    21298558.671
       237.000         197.000
  24341842.087    -5820962.90949  -4518758.71145  24341841.214    24341851.111
       208.000         139.000
  24348710.163    -2309608.99349  -1763556.74045  24348709.639    24348718.799
       208.000         142.000
  24562569.814     6435918.34349   5026991.73345  24562569.677    24562578.390
       206.000         141.000
 03  3 19  0 51  0.0000000  0 10G 3G23G15G14G18G26G17G 9G31G16
  22240585.436   -13827855.28649 -10736239.05946  22240585.203    22240592.067
       230.000         186.000
  21461151.515     3608342.89849   2819990.20247  21461150.834    21461157.306
       239.000         202.000
  20326139.535    -7181221.60349  -5580952.37247  20326138.897    20326145.118
       243.000         212.000
  22669215.862   -11426922.67149  -7723015.08746  22669215.059    22669222.080
       225.000         171.000
  20541377.063    -1863537.78049  -1440753.13448  20541376.601    20541381.266
       241.000         213.000
  24166089.140    11610265.77749   9053918.82145  24166089.534    24166098.308
       211.000         141.000
  21305437.834     1250063.04249    987173.59847  21305437.343    21305444.179
       236.000         197.000
  24330387.563    -5881155.99549  -4565662.23445  24330386.114    24330397.608
       207.000         139.000
  24330953.828    -2402918.93149  -1836265.68645  24330952.632    24330961.925
       207.000         142.000
  24575427.571     6503485.62049   5079641.45145  24575426.936    24575437.266
       205.000         141.000
 03  3 19  0 51 30.0000000  0 10G 3G23G15G14G18G26G17G 9G31G16
  22229856.942   -13884233.81049 -10780170.34546  22229856.740    22229863.613
       231.000         186.000
  21470434.735     3657126.46149   2858003.35947  21470434.358    21470440.481
       238.000         201.000
  20323973.202    -7192605.74849  -5589823.11847  20323972.447    20323978.618
       244.000         212.000
  22649722.111   -11529362.47649  -7802838.21146  22649721.294    22649728.031
       225.000         172.000
  20545805.008    -1840268.80349  -1422621.45648  20545804.506    20545809.267
       241.000         213.000
  24186145.311    11715661.44449   9136045.23745  24186145.560    24186154.039
       209.000         139.000
  21312377.234     1286529.78649   1015589.22147  21312376.579    21312383.492
       237.000         196.000
  24318987.077    -5941065.27549  -4612344.63145  24318986.776    24318996.864
       210.000         141.000
  24313250.276    -2495951.44249  -1908758.44245  24313248.628    24313258.373
       208.000         142.000
  24588310.683     6571186.15349   5132394.99845  24588310.457    24588320.579
       205.000         141.000
 03  3 19  0 52  0.0000000  0 10G 3G23G15G14G18G26G17G 9G31G16
  22219218.013   -13940141.79149 -10823734.96946  22219217.556    22219223.997
       231.000         187.000
  21479746.687     3706061.16949   2896134.29647  21479746.211    21479752.249
       238.000         201.000
  20321863.314    -7203693.18249  -5598462.66047  20321862.627    20321868.825
       243.000         212.000
  22630274.344   -11631561.13949  -7882473.42946  22630273.937    22630280.755
       227.000         172.000
  20550287.676    -1816712.25849  -1404265.69948  20550287.122    20550291.862
       241.000         213.000
  24206249.609    11821310.06849   9218368.75945  24206249.612    24206257.841
       210.000         140.000
  21319371.095     1323282.70049   1044227.83947  21319370.347    21319377.276
       236.000         196.000
  24307641.313    -6000687.53149  -4658803.37145  24307640.770    24307651.216
       209.000         140.000
  24295599.912    -2588703.89949  -1981032.97845  24295598.677    24295607.752
       207.000         142.000
  24601218.604     6639017.36149   5185250.36645  24601219.160    24601227.407
       206.000         141.000
 03  3 19  0 52 30.0000000  0 10G 3G23G15G14G18G26G17G 9G31G16
  22208668.884   -13995577.62449 -10866931.69046  22208668.369    22208675.306
       232.000         187.000
  21489087.113     3755145.41649   2934381.76047  21489086.455    21489092.948
       238.000         201.000
  20319810.118    -7214482.75249  -5606870.10347  20319809.229    20319815.405
       244.000         212.000
  22610873.035   -11733515.86549  -7961918.58346  22610872.329    22610878.658
       227.000         172.000
  20554824.804    -1792869.42549  -1385686.86448  20554824.151    20554829.019
       242.000         213.000
  24226401.372    11927208.37949   9300886.82945  24226400.762    24226410.536
       211.000         140.000
  21326419.439     1360321.89049   1073089.51247  21326418.768    21326425.924
       237.000         196.000
  24296350.635    -6060019.93149  -4705036.21445  24296349.897    24296359.412
       208.000         141.000
  24278003.476    -2681173.56149  -2053087.16145  24278002.629    24278012.387
       208.000         143.000
  24614150.802     6706976.15249   5238205.16245  24614149.839    24614158.632
       204.000         140.000
 03  3 19  0 53  0.0000000  0 10G 3G23G15G14G18G26G17G 9G31G16
  22198209.943   -14050539.72149 -10909759.25946  22198209.479    22198215.799
       231.000         187.000
  21498455.743     3804377.90949   2972744.73347  21498455.149    21498461.433
       238.000         201.000
  20317813.847    -7224973.25149  -5615044.50147  20317813.121    20317819.310
       243.000         212.000
  22591518.515   -11835223.98549  -8041171.56546  22591518.207    22591525.545
       226.000         173.000
  20559416.120    -1768741.78049  -1366886.09648  20559415.593    20559420.308
       241.000         213.000
  24246600.122    12033353.56249   9383597.29845  24246600.838    24246608.568
       209.000         140.000
  21333522.441     1397648.39949   1102175.07447  21333521.630    21333528.746
       235.000         196.000
  24285115.689    -6119059.40849  -4751040.83145  24285115.025    24285125.110
       210.000         141.000
  24260461.298    -2773357.90449  -2124919.00845  24260460.992    24260469.162
       207.000         144.000
  24627106.670     6775059.55949   5291257.04345  24627105.999    24627116.459
       205.000         139.000
 03  3 19  0 53 30.0000000  0 10G 3G23G15G14G18G26G17G 9G31G16
  22187841.562   -14105025.75649 -10952215.86446  22187840.588    22187847.783
       232.000         187.000
  21507852.338     3853757.24949   3011222.14247  21507851.814    21507858.011
       238.000         201.000
  20315874.735    -7235163.43849  -5622984.88947  20315873.913    20315880.240
       244.000         212.000
  22572211.468   -11936682.88849  -8120230.34646  22572210.194    22572217.546
       226.000         173.000
  20564061.419    -1744330.54749  -1347864.34948  20564060.997    20564065.583
       242.000         213.000
  24266845.330    12139742.60049   9466497.78345  24266846.422    24266853.840
       210.000         139.000
  21340680.253     1435262.90149   1131485.05047  21340679.535    21340686.579
       236.000         196.000
  24273937.122    -6177802.50749  -4796814.53345  24273935.584    24273945.426
       210.000         140.000
  24242973.967    -2865254.20849  -2196526.41145  24242972.779    24242982.936
       209.000         144.000
  24640085.619     6843264.59849   5344403.73445  24640083.775    24640095.360
       201.000         138.000
 03  3 19  0 54  0.0000000  0 10G 3G23G15G14G18G26G17G 9G31G16
  22177564.128   -14159033.82449 -10994300.03246  22177563.612    22177570.723
       231.000         187.000
  21517276.587     3903282.04549   3049812.88447  21517276.060    21517282.364
       238.000         201.000
  20313992.916    -7245052.25649  -5630690.44947  20313992.026    20313998.323
       244.000         212.000
  22552952.284   -12037889.69449  -8199092.70046  22552951.287    22552958.686
       225.000         173.000
  20568760.452    -1719637.09849  -1328622.69448  20568759.884    20568764.733
       241.000         213.000
  24287136.480    12246372.49249   9549585.92645  24287136.735    24287145.270
       209.000         137.000
  21347892.898     1473165.61649   1161019.60747  21347892.452    21347899.307
       236.000         196.000
  24262815.523    -6236246.27749  -4842354.98145  24262814.963    24262824.346
       207.000         140.000
  24225541.996    -2956859.68549  -2267907.20345  24225540.837    24225550.077
       206.000         144.000
  24653087.225     6911588.42549   5397642.96845  24653087.842    24653095.760
       203.000         138.000
 03  3 19  0 54 30.0000000  0 10G 3G23G15G14G18G26G17G 9G31G16
  22167377.951   -14212562.22249 -11036010.42346  22167377.444    22167384.206
       232.000         187.000
  21526728.258     3952950.83349   3088515.83147  21526727.647    21526734.027
       238.000         201.000
  20312168.778    -7254638.34949  -5638160.12147  20312168.059    20312174.203
       244.000         212.000
  22533741.679   -12138841.74349  -8277756.54546  22533741.156    22533748.237
       227.000         173.000
  20573512.875    -1694662.72949  -1309162.14448  20573512.374    20573517.205
       242.000         213.000
  24307472.815    12353240.34949   9632859.50545  24307473.486    24307480.423
       211.000         136.000
  21355160.619     1511357.60749   1190779.58247  21355159.960    21355167.045
       236.000         196.000
  24251751.426    -6294387.67449  -4887659.82745  24251750.043    24251760.764
       209.000         139.000
  24208165.632    -3048171.84949  -2339059.40445  24208165.076    24208173.357
       205.000         145.000
  24666110.818     6980027.87049   5450972.29045  24666110.767    24666119.879
       208.000         138.000
 03  3 19  0 55  0.0000000  0 10G 3G23G15G14G18G26G17G 9G31G16
  22157283.406   -14265609.26549 -11077345.73046  22157282.832    22157289.627
       231.000         187.000
  21536207.022     4002761.96349   3127329.69747  21536206.365    21536212.572
       238.000         200.000
  20310402.332    -7263921.05949  -5645393.38747  20310401.592    20310407.615
       244.000         212.000
  22514580.103   -12239536.31749  -8356219.75046  22514579.711    22514586.328
       226.000         174.000
  20578318.544    -1669408.83649  -1289483.78148  20578318.107    20578322.747
       241.000         213.000
  24327853.889    12460342.85649   9716315.93445  24327853.917    24327861.503
       210.000         137.000
  21362483.431     1549839.03149   1220765.09047  21362482.631    21362489.744
       235.000         195.000
  24240745.470    -6352223.74649  -4932726.76045  24240743.492    24240754.939
       206.000         138.000
  24190845.734    -3139188.08949  -2409981.04145  24190845.226    24190853.763
       206.000         145.000
  24679155.936     7048579.95449   5504389.41545  24679156.266    24679164.502
       207.000         139.000
 03  3 19  0 55 30.0000000  0  9G 3G23G15G14G18G26G17G 9G31
  22147281.009   -14318172.11649 -11118303.74346  22147280.497    22147287.085
       232.000         187.000
  21545712.741     4052714.93349   3166254.08447  21545712.244    21545718.216
       239.000         200.000
  20308693.982    -7272898.32249  -5652388.64447  20308693.014    20308699.227
       244.000         212.000
  22495468.179   -12339970.01049  -8434479.68646  22495468.002    22495473.796
       228.000         174.000
  20583177.338    -1643875.72449  -1269587.84348  20583176.903    20583181.761
       242.000         213.000
  24348279.202    12567678.10549   9799953.72745  24348279.137    24348288.017
       210.000         135.000
  21369861.611     1588611.63649   1250977.49647  21369860.823    21369867.987
       236.000         195.000
  24229798.292    -6409750.29449  -4977552.50745  24229797.980    24229807.980
       206.000         138.000
  24173582.781    -3229904.89849  -2480669.32045  24173582.667    24173591.223
       207.000         145.000
 03  3 19  0 56  0.0000000  0  9G 3G23G15G14G18G26G17G 9G31
  22137371.514   -14370246.51249 -11158881.13146  22137370.647    22137378.052
       230.000         187.000
  21555245.647     4102810.74549   3205289.77847  21555244.894    21555251.440
       238.000         200.000
  20307044.484    -7281566.42249  -5659142.99647  20307043.736    20307049.737
       243.000         212.000
  22476406.827   -12440137.62049  -8512532.26446  22476406.418    22476412.305
       226.000         174.000
  20588089.394    -1618062.52749  -1249473.65948  20588088.973    20588093.622
       242.000         213.000
  24368748.694    12675245.61149   9883772.48545  24368749.626    24368757.716
       209.000         135.000
  21377295.713     1627678.07549   1281418.86747  21377295.286    21377302.226
       235.000         195.000
  24218911.201    -6466961.88649  -5022132.85845  24218909.548    24218920.768
       205.000         139.000
  24156377.848    -3320317.19649  -2551120.32345  24156377.878    24156386.170
       206.000         145.000
 03  3 19  0 56 30.0000000  0  9G 3G23G15G14G18G26G17G 9G31
  22127554.173   -14421836.45149 -11199081.02347  22127553.673    22127560.248
       232.000         188.000
  21564804.434     4153042.57049   3244431.45647  21564803.867    21564810.102
       238.000         200.000
  20305452.990    -7289929.67649  -5665659.80647  20305452.138    20305458.371
       244.000         212.000
  22457395.534   -12540041.91949  -8590379.69346  22457394.569    22457401.407
       227.000         174.000
  20593053.494    -1591976.13649  -1229146.59248  20593052.936    20593057.685
       242.000         213.000
  24389260.743    12783036.68049   9967765.44745  24389263.494    24389268.620
       205.000         132.000
  21384784.786     1667033.48549   1312085.40847  21384784.282    21384791.272
       235.000         195.000
  24208083.598    -6523860.98349  -5066469.70545  24208083.233    24208092.320
       208.000         141.000
  24139230.259    -3410427.89549  -2621336.30445  24139229.029    24139238.659
       206.000         145.000
 03  3 19  0 57  0.0000000  0  9G 3G23G15G14G18G26G17G 9G31
  22117829.744   -14472938.51249 -11238900.75147  22117829.305    22117836.127
       231.000         188.000
  21574389.132     4203410.32549   3283679.05147  21574388.831    21574394.574
       237.000         200.000
  20303920.003    -7297985.51949  -5671937.07547  20303919.239    20303925.406
       243.000         212.000
  22438435.097   -12639679.12849  -8668018.99246  22438433.955    22438440.679
       226.000         175.000
  20598069.600    -1565616.35149  -1208606.49348  20598069.064    20598073.828
       242.000         213.000
  24409814.906    12891049.73249  10051931.40544  24409814.177    24409823.956
       206.000         131.000
  21392329.315     1706680.08349   1342978.85047  21392328.619    21392335.623
       235.000         195.000
  24197316.241    -6580443.25149  -5110559.67545  24197314.867    24197325.514
       204.000         142.000
  24122140.726    -3500233.06049  -2691314.20845  24122140.380    24122148.432
       206.000         146.000
 03  3 19  0 57 30.0000000  0  8G 3G23G15G14G18G17G 9G31
  22108198.469   -14523550.89449 -11278338.91147  22108197.993    22108204.778
       233.000         188.000
  21583999.446     4253912.69049   3323031.54047  21583998.978    21584005.249
       239.000         200.000
  20302445.667    -7305733.04349  -5677974.09547  20302444.920    20302450.943
       244.000         212.000
  22419526.105   -12739046.41749  -8745447.96346  22419525.625    22419532.126
       228.000         175.000
  20603137.456    -1538984.53049  -1187854.41748  20603136.965    20603141.694
       242.000         213.000
  21399929.318     1746618.23949   1374099.48047  21399928.718    21399935.789
       236.000         194.000
  24186609.799    -6636705.24649  -5154400.08345  24186608.829    24186619.141
       208.000         142.000
  24105109.989    -3589729.87349  -2761051.82845  24105109.080    24105117.909
       206.000         146.000
 03  3 19  0 58  0.0000000  0  8G 3G23G15G14G18G17G 9G31
  22098660.779   -14573671.55249 -11317393.91447  22098660.216    22098666.927
       232.000         189.000
  21593635.120     4304548.47549   3362487.98747  21593634.638    21593640.752
       237.000         199.000
  20301030.323    -7313170.67149  -5683769.63747  20301029.540    20301035.610
       243.000         212.000
  22400668.961   -12838140.82949  -8822664.29446  22400668.320    22400674.782
       227.000         176.000
  20608256.832    -1512081.88849  -1166891.31348  20608256.371    20608260.969
       242.000         213.000
  21407584.986     1786848.91949   1405448.05247  21407584.248    21407591.272
       235.000         194.000
  24175964.989    -6692644.04949  -5197988.65745  24175964.128    24175974.304
       208.000         144.000
  24088138.292    -3678915.73249  -2830547.14645  24088137.829    24088146.175
       206.000         146.000
 03  3 19  0 58 30.0000000  0  8G 3G23G15G14G18G17G 9G31
  22089217.073   -14623298.67049 -11356064.34047  22089216.753    22089223.326
       231.000         189.000
  21603295.946     4355316.36649   3402047.37347  21603295.450    21603301.640
       238.000         199.000
  20299674.197    -7320297.03949  -5689322.63647  20299673.429    20299679.671
       244.000         212.000
  22381864.315   -12936959.59949  -8899665.84246  22381864.288    22381869.883
       228.000         176.000
  20613427.592    -1484909.38949  -1145717.92748  20613427.011    20613431.865
       242.000         213.000
  21415296.545     1827373.26049   1437025.44647  21415296.229    21415303.088
       235.000         194.000
  24165382.283    -6748256.06249  -5241322.57445  24165382.054    24165390.651
       206.000         144.000
  24071226.461    -3767787.66849  -2899797.87645  24071226.357    24071234.425
       206.000         147.000
 03  3 19  0 59  0.0000000  0  8G 3G23G15G14G18G17G 9G31
  22079867.478   -14672430.90749 -11394349.14547  22079867.186    22079873.282
       232.000         189.000
  21612981.575     4406214.90049   3441708.55547  21612980.935    21612987.123
       237.000         199.000
  20298377.478    -7327111.41849  -5694632.52947  20298376.676    20298382.974
       243.000         212.000
  22363112.629   -13035500.41849  -8976450.79546  22363111.640    22363117.784
       228.000         176.000
  20618649.396    -1457468.69049  -1124335.55548  20618648.916    20618653.709
       242.000         213.000
  21423063.956     1868191.14249   1468831.57247  21423063.552    21423070.591
       234.000         194.000
  24154862.230    -6803538.95849  -5284400.03045  24154861.707    24154870.810
       208.000         143.000
  24054374.737    -3856343.37249  -2968802.18245  24054374.303    24054382.870
       205.000         147.000
 03  3 19  0 59 30.0000000  0  8G 3G23G15G14G18G17G 9G31
  22070612.358   -14721066.51849 -11432246.97347  22070611.813    22070618.512
       233.000         189.000
  21622691.828     4457242.73749   3481470.50047  21622691.332    21622697.645
       237.000         199.000
  20297140.333    -7333612.62149  -5699698.39147  20297139.403    20297145.807
       244.000         212.000
  22344414.256   -13133760.49049  -9053016.99546  22344413.195    22344419.850
       228.000         177.000
  20623921.924    -1429761.27249  -1102745.35047  20623921.456    20623926.241
       242.000         212.000
  21430887.177     1909302.60149   1500866.45847  21430886.456    21430893.786
       235.000         194.000
  24144405.385    -6858489.73549  -5327218.72345  24144404.706    24144413.661
       209.000         144.000
  24037583.704    -3944580.15349  -3037557.98945  24037583.347    24037590.843
       207.000         146.000
 03  3 19  1  0  0.0000000  0  8G 3G23G15G14G18G17G 9G31
  22061452.206   -14769203.24049 -11469756.06047  22061451.655    22061458.427
       233.000         190.000
  21632426.569     4508399.10249   3521332.60047  21632425.983    21632432.228
       237.000         199.000
  20295963.160    -7339798.66049  -5704518.67047  20295962.448    20295968.466
       243.000         212.000
  22325769.972   -13231736.47449  -9129361.81946  22325769.491    22325775.807
       228.000         177.000
  20629245.166    -1401787.45249  -1080947.55647  20629244.511    20629249.110
       241.000         212.000
  21438766.600     1950709.10549   1533131.25147  21438765.991    21438772.906
       235.000         193.000
  24134012.441    -6913104.51749  -5369775.57445  24134011.442    24134021.838
       205.000         144.000
  24020854.079    -4032494.80349  -3106062.78845  24020853.399    24020862.311
       206.000         146.000
 03  3 19  1  0 30.0000000  0  8G 3G23G15G14G18G17G 9G31
  22052387.245   -14816839.56749 -11506875.22547  22052386.830    22052393.333
       234.000         190.000
  21642185.489     4559682.50949   3561293.69347  21642184.887    21642191.224
       237.000         198.000
  20294846.146    -7345668.62349  -5709092.65648  20294845.271    20294851.499
       244.000         213.000
  22307180.166   -13329426.02749  -9205483.44946  22307179.421    22307185.537
       229.000         178.000
  20634618.790    -1373548.93349  -1058943.50647  20634618.351    20634622.907
       242.000         212.000
  21446702.292     1992411.27349   1565626.43547  21446701.677    21446708.308
       235.000         193.000
  24123683.894    -6967380.49949  -5412068.43945  24123683.861    24123693.111
       208.000         144.000
  24004186.153    -4120084.90449  -3174314.69245  24004185.328    24004193.758
       205.000         146.000
 03  3 19  1  1  0.0000000  0  8G 3G23G15G14G18G17G 9G31
  22043417.798   -14863974.22849 -11543603.49247  22043417.400    22043423.930
       233.000         190.000
  21651968.238     4611091.30649   3601352.48747  21651967.715    21651973.664
       237.000         198.000
  20293789.447    -7351221.75349  -5713419.76048  20293788.652    20293794.761
       244.000         213.000
  22288645.360   -13426826.61549  -9281379.90546  22288644.183    22288651.068
       230.000         179.000
  20640042.440    -1345047.37149  -1036734.48847  20640042.016    20640046.747
       242.000         212.000
  21454694.264     2034409.43949   1598352.25347  21454693.545    21454700.744
       234.000         193.000
  24113420.508    -7021314.93849  -5454095.14345  24113419.717    24113429.826
       205.000         144.000
  23987580.465    -4207348.16649  -3242311.91045  23987579.914    23987588.494
       208.000         147.000
 03  3 19  1  1 30.0000000  0  8G 3G23G15G14G18G17G 9G31
  22034544.187   -14910605.08149 -11579939.18347  22034543.483    22034550.114
       234.000         190.000
  21661774.720     4662624.55049   3641508.25347  21661774.166    21661780.546
       237.000         198.000
  20292793.310    -7356456.36049  -5717498.66548  20292792.562    20292798.627
       244.000         213.000
  22270166.132   -13523935.40049  -9357048.98746  22270165.006    22270171.921
       230.000         179.000
  20645516.006    -1316283.58449  -1014321.14547  20645515.537    20645520.237
       242.000         212.000
  21462742.696     2076704.16549   1631309.15547  21462742.013    21462749.291
       234.000         193.000
  24103222.682    -7074904.45249  -5495853.08245  24103221.947    24103231.885
       208.000         144.000
  23971037.545    -4294281.54549  -3310052.09845  23971036.827    23971045.254
       208.000         147.000
 03  3 19  1  2  0.0000000  0  8G 3G23G15G14G18G17G 9G31
  22025766.757   -14956730.68949 -11615881.17947  22025766.699    22025772.929
       233.000         190.000
  21671604.600     4714280.88749   3681759.93547  21671604.211    21671610.567
       236.000         198.000
  20291857.936    -7361371.67049  -5721328.76848  20291857.180    20291863.362
       243.000         213.000
  22251742.872   -13620749.76649  -9432488.65446  22251741.860    22251748.859
       230.000         180.000
  20651039.190    -1287259.05249   -991704.61747  20651038.793    20651043.472
       242.000         212.000
  21470847.672     2119295.94349   1664497.53347  21470847.232    21470854.084
       233.000         192.000
  24093090.955    -7128146.32649  -5537340.11945  24093090.461    24093100.125
       206.000         144.000
  23954557.743    -4380882.59649  -3377533.32045  23954557.445    23954565.276
       208.000         149.000
 03  3 19  1  2 30.0000000  0  8G 3G23G15G14G18G17G 9G31
  22017085.715   -15002349.78749 -11651428.49947  22017085.309    22017091.955
       234.000         191.000
  21681457.607     4766058.76649   3722106.33047  21681457.040    21681463.242
       237.000         198.000
  20290983.522    -7365966.85749  -5724909.42648  20290982.775    20290988.888
       244.000         213.000
  22233376.186   -13717267.43249  -9507697.12346  22233375.764    22233381.995
       231.000         180.000
  20656611.675    -1257975.31649   -968886.12147  20656611.096    20656616.097
       242.000         212.000
  21479009.276     2162185.42449   1697917.87147  21479008.662    21479015.695
       234.000         192.000
  24083026.039    -7181037.47749  -5578553.86345  24083026.308    24083035.550
       207.000         146.000
  23938141.786    -4467148.81249  -3444753.64045  23938141.949    23938149.185
       209.000         149.000
 03  3 19  1  3  0.0000000  0  8G 3G23G15G14G18G17G 9G31
  22008501.304   -15047461.07749 -11686580.12147  22008501.052    22008507.338
       234.000         191.000
  21691333.405     4817956.45349   3762546.08247  21691332.863    21691338.835
       237.000         198.000
  20290170.146    -7370241.11849  -5728240.01447  20290169.348    20290175.347
       243.000         212.000
  22215066.365   -13813486.12549  -9582672.63346  22215066.030    22215071.577
       230.000         181.000
  20662233.168    -1228434.10249   -945866.99247  20662232.654    20662237.324
       241.000         212.000
  21487227.511     2205372.58249   1731570.16847  21487227.382    21487233.817
       233.000         192.000
  24073028.242    -7233575.55349  -5619492.49245  24073028.259    24073036.727
       208.000         147.000
  23921789.927    -4553078.14049  -3511711.44445  23921789.500    23921797.743
       211.000         149.000
 03  3 19  1  3 30.0000000  0  8G 3G23G15G14G18G17G 9G31
  22000013.894   -15092062.70349 -11721334.60347  22000013.508    22000020.263
       234.000         191.000
  21701231.821     4869972.78449   3803078.28347  21701231.380    21701237.507
       237.000         198.000
  20289418.060    -7374193.29549  -5731319.62447  20289417.289    20289423.430
       244.000         212.000
  22196813.862   -13909403.10649  -9657413.03446  22196813.226    22196819.392
       231.000         181.000
  20667903.444    -1198636.67949   -922648.22047  20667902.959    20667907.542
       243.000         212.000
  21495502.509     2248857.92649   1765454.81647  21495501.894    21495509.246
       233.000         191.000
  24063098.326    -7285757.33849  -5660153.47145  24063097.454    24063107.379
       207.000         147.000
  23905502.774    -4638667.87949  -3578404.63445  23905502.165    23905510.376
       210.000         150.000
 03  3 19  1  4  0.0000000  0  8G 3G23G15G14G18G17G 9G31
  21991623.814   -15136152.89749 -11755690.56647  21991623.546    21991629.834
       234.000         192.000
  21711152.641     4922106.90949   3843702.26347  21711151.962    21711158.515
       237.000         198.000
  20288727.597    -7377821.65249  -5734146.90648  20288726.777    20288732.894
       244.000         213.000
  22178619.300   -14005015.47249  -9731916.07146  22178618.462    22178625.035
       230.000         182.000
  20673622.284    -1168583.90349   -899230.47347  20673621.680    20673626.460
       242.000         212.000
  21503834.390     2292642.17049   1799572.37147  21503833.756    21503840.977
       233.000         191.000
  24053236.736    -7337579.60849  -5700534.31845  24053235.901    24053245.490
       208.000         147.000
  23889280.678    -4723914.98949  -3644830.84545  23889279.916    23889288.496
       211.000         151.000
 03  3 19  1  4 30.0000000  0  8G 3G23G15G14G18G17G 9G31
  21983331.247   -15179730.62349 -11789647.20947  21983330.747    21983337.484
       235.000         192.000
  21721095.492     4974356.83549   3884416.48447  21721094.849    21721100.952
       238.000         198.000
  20288098.855    -7381125.66649  -5736721.45647  20288098.052    20288104.180
       244.000         212.000
  22160483.184   -14100320.91449  -9806179.95446  22160482.517    22160488.165
       231.000         182.000
  20679389.416    -1138277.53449   -875615.12347  20679388.847    20679393.601
       242.000         212.000
  21512223.206     2336725.38949   1833922.89847  21512222.488    21512229.357
       234.000         191.000
  24043444.093    -7389039.91549  -5740633.12545  24043443.390    24043452.018
       209.000         147.000
  23873124.180    -4808817.47249  -3710988.50045  23873123.441    23873132.115
       211.000         151.000
 03  3 19  1  5  0.0000000  0  8G 3G23G15G14G18G17G 9G31
  21975136.453   -15222794.22249 -11823203.22947  21975136.010    21975142.297
       234.000         192.000
  21731060.194     5026721.65249   3925220.22847  21731059.710    21731065.880
       237.000         198.000
  20287532.078    -7384104.05849  -5739042.26847  20287531.354    20287537.476
       243.000         212.000
  22142406.022   -14195316.77949  -9880202.60346  22142405.362    22142411.383
       232.000         183.000
  20685204.537    -1107718.73549   -851803.07347  20685204.161    20685208.762
       242.000         212.000
  21520669.026     2381108.32249   1868506.97147  21520668.481    21520675.434
       233.000         191.000
  24033720.862    -7440135.08749  -5780447.41345  24033721.061    24033729.958
       207.000         146.000
  23857033.827    -4893372.50249  -3776875.42745  23857032.860    23857040.524
       211.000         151.000
 03  3 19  1  5 30.0000000  0  8G 3G23G15G14G18G17G 9G31
  21967039.881   -15265341.92749 -11856357.25947  21967039.515    21967045.772
       234.000         192.000
  21741046.551     5079200.26449   3966112.64047  21741046.097    21741052.474
       237.000         198.000
  20287027.523    -7386755.48149  -5741108.30447  20287026.744    20287032.933
       244.000         212.000
  22124388.274   -14290000.38649  -9953981.94346  22124386.996    22124393.414
       233.000         183.000
  20691067.538    -1076908.54849   -827795.13847  20691067.082    20691071.755
       242.000         212.000
  21529172.016     2425791.75249   1903325.19847  21529171.645    21529178.108
       234.000         191.000
  24024067.688    -7490862.28949  -5819974.97145  24024067.594    24024076.550
       207.000         145.000
  23841010.127    -4977577.32349  -3842489.45045  23841009.493    23841017.692
       212.000         151.000
 03  3 19  1  6  0.0000000  0  8G 3G23G15G14G18G17G 9G31
  21959041.619   -15307372.94949 -11889108.67147  21959041.082    21959047.643
       234.000         192.000
  21751054.205     5131790.80149   4007092.27547  21751053.769    21751059.966
       237.000         197.000
  20286585.229    -7389079.59249  -5742919.28947  20286584.580    20286590.600
       243.000         212.000
  22106430.343   -14384369.81449 -10027516.46446  22106429.787    22106435.487
       232.000         184.000
  20696977.961    -1045849.07649   -803592.95447  20696977.491    20696982.155
       242.000         212.000
  21537732.112     2470775.23949   1938377.24347  21537731.799    21537738.480
       233.000         190.000
  24014484.987    -7541219.07549  -5859213.88445  24014484.608    24014492.833
       207.000         145.000
  23825053.345    -5061430.09049  -3907829.15345  23825052.170    23825061.287
       211.000         151.000
 03  3 19  1  6 30.0000000  0  8G 3G23G15G14G18G17G 9G31
  21951142.127   -15348884.97149 -11921455.67047  21951141.821    21951148.114
       234.000         192.000
  21761083.055     5184492.85849   4048158.80547  21761082.576    21761089.110
       237.000         197.000
  20286205.624    -7391074.41049  -5744473.68247  20286204.953    20286210.876
       244.000         212.000
  22088532.800   -14478421.58149 -10100803.46146  22088532.507    22088537.847
       232.000         184.000
  20702935.734    -1014540.76849   -779196.87447  20702935.416    20702940.068
       242.000         212.000
  21546349.516     2516059.84549   1973663.92347  21546348.883    21546355.886
       233.000         190.000
  24004973.439    -7591201.65049  -5898161.23245  24004972.913    24004982.091
       208.000         144.000
  23809164.252    -5144927.40749  -3972891.89445  23809163.409    23809171.327
       212.000         151.000
 03  3 19  1  7  0.0000000  0  8G 3G23G15G14G18G17G 9G31
  21943341.488   -15389877.51249 -11953397.88947  21943340.921    21943347.766
       234.000         192.000
  21771132.722     5237304.29549   4089310.56547  21771132.339    21771138.703
       236.000         197.000
  20285888.753    -7392739.56149  -5745771.19047  20285888.072    20285894.129
       243.000         212.000
  22070696.036   -14572154.12249 -10173841.71046  22070695.605    22070701.578
       232.000         184.000
  20708940.471     -982985.65049   -754608.47447  20708939.989    20708944.728
       242.000         212.000
  21555024.287     2561645.90849   2009185.51247  21555023.738    21555030.690
       233.000         190.000
  23995533.566    -7640808.24449  -5936815.59945  23995532.568    23995541.969
       209.000         146.000
  23793343.113    -5228067.59449  -4037676.33645  23793341.772    23793350.151
       212.000         150.000
 03  3 19  1  7 30.0000000  0  8G 3G23G15G14G18G17G 9G31
  21935640.026   -15430348.75849 -11984933.88847  21935639.523    21935646.147
       235.000         193.000
  21781203.037     5290224.15949   4130546.81747  21781202.697    21781208.606
       237.000         197.000
  20285634.873    -7394073.65449  -5746810.72847  20285634.088    20285640.197
       244.000         212.000
  22052920.526   -14665564.55649 -10246628.96146  22052919.921    22052925.701
       233.000         185.000
  20714992.037     -951184.54149   -729828.38547  20714991.690    20714996.239
       243.000         212.000
  21563756.472     2607533.82549   2044942.31947  21563755.972    21563762.908
       233.000         190.000
  23986165.866    -7690035.49849  -5975174.38145  23986165.133    23986175.071
       210.000         148.000
  23777590.433    -5310847.81249  -4102180.28845  23777589.687    23777597.079
       213.000         151.000
 03  3 19  1  8  0.0000000  0  8G 3G23G15G14G18G17G 9G31
  21928038.005   -15470297.34549 -12016062.62547  21928037.356    21928044.403
       234.000         193.000
  21791293.788     5343251.34749   4171866.69847  21791293.501    21791299.517
       236.000         197.000
  20285444.211    -7395075.60149  -5747591.45347  20285443.360    20285449.611
       244.000         212.000
  22035206.829   -14758650.20849 -10319163.14046  22035206.294    22035211.815
       232.000         185.000
  20721090.065     -919138.97649   -704857.80847  20721089.558    20721094.198
       242.000         212.000
  21572546.168     2653723.89649   2080934.57747  21572545.647    21572552.426
       232.000         190.000
  23976870.982    -7738880.52049  -6013235.31945  23976869.978    23976879.766
       209.000         148.000
  23761906.777    -5393265.50349  -4166401.75745  23761906.105    23761914.519
       213.000         151.000
 03  3 19  1  8 30.0000000  0  8G 3G23G15G14G18G17G 9G31
  21920535.702   -15509722.12249 -12046783.20247  21920535.259    21920541.469
       235.000         193.000
  21801404.736     5396384.44649   4213269.10447  21801404.272    21801410.562
       236.000         197.000
  20285316.897    -7395744.43049  -5748112.61047  20285316.128    20285322.246
       243.000         212.000
  22017555.404   -14851408.72249 -10391442.40846  22017554.514    22017560.770
       233.000         186.000
  20727234.399     -886850.36749   -679697.84747  20727233.955    20727238.797
       243.000         212.000
  21581393.410     2700216.56549   2117162.61247  21581392.793    21581400.013
       233.000         189.000
  23967649.195    -7787340.76349  -6050996.44045  23967648.962    23967658.173
       211.000         149.000
  23746292.607    -5475318.20349  -4230338.79945  23746291.474    23746299.939
       213.000         151.000
 03  3 19  1  9  0.0000000  0  8G 3G23G15G14G18G17G 9G31
  21913133.367   -15548621.32649 -12077094.23647  21913133.264    21913139.321
       235.000         193.000
  21811535.624     5449622.55549   4254753.34947  21811535.038    21811541.204
       236.000         196.000
  20285253.276    -7396078.82549  -5748373.16347  20285252.512    20285258.650
       244.000         212.000
  21999966.766   -14943837.35849 -10463464.63446  21999966.620    21999971.993
       232.000         186.000
  20733424.824     -854319.50049   -654349.11147  20733424.159    20733428.956
       242.000         212.000
  21590298.399     2747012.39149   2153626.88847  21590297.798    21590304.794
       232.000         189.000
  23958501.289    -7835413.05849  -6088455.25845  23958500.765    23958509.750
       209.000         149.000
  23730748.375    -5557003.17349  -4293989.31945  23730747.805    23730755.748
       213.000         151.000
 03  3 19  1  9 30.0000000  0  8G 3G23G15G14G18G17G 9G31
  21905831.302   -15586994.03049 -12106995.01547  21905830.769    21905837.093
       236.000         193.000
  21821686.175     5502964.00849   4296318.11247  21821685.771    21821691.884
       237.000         196.000
  20285253.401    -7396078.11449  -5748372.59447  20285252.602    20285258.651
       244.000         212.000
  21982441.328   -15035933.98249 -10535228.13446  21982440.753    21982446.601
       233.000         186.000
  20739660.959     -821548.30549   -628813.10447  20739660.562    20739665.137
       243.000         211.000
  21599261.093     2794111.55249   2190327.52347  21599260.183    21599267.369
       232.000         189.000
  23949427.696    -7883094.75149  -6125609.71745  23949426.857    23949436.739
       209.000         147.000
  23715274.549    -5638318.34849  -4357351.68945  23715273.538    23715281.035
       214.000         150.000
 03  3 19  1 10  0.0000000  0  8G 3G23G15G14G18G17G 9G31
  21898629.626   -15624838.83949 -12136484.44047  21898628.945    21898635.531
       235.000         193.000
  21831856.216     5556407.96449   4337962.75047  21831855.511    21831862.166
       236.000         196.000
  20285317.534    -7395741.18549  -5748110.04147  20285316.727    20285322.714
       245.000         212.000
  21964979.537   -15127695.90449 -10606730.83946  21964978.802    21964984.724
       232.000         187.000
  20745942.642     -788537.82749   -603090.64147  20745942.113    20745946.822
       242.000         211.000
  21608281.595     2841514.81749   2227265.12447  21608280.968    21608288.119
       232.000         189.000
  23940428.732    -7930383.29349  -6162457.82645  23940427.297    23940437.168
       209.000         146.000
  23699871.646    -5719260.95949  -4420423.74745  23699870.591    23699877.975
       213.000         150.000
 03  3 19  1 10 30.0000000  0  8G 3G23G15G14G18G17G 9G31
  21891528.694   -15662154.54849 -12165561.58147  21891528.480    21891534.641
       235.000         194.000
  21842045.464     5609952.81449   4379686.00547  21842045.187    21842051.196
       236.000         196.000
  20285445.845    -7395066.90549  -5747584.61647  20285444.889    20285451.208
       246.000         212.000
  21947581.861   -15219120.85749 -10677970.96246  21947580.736    21947586.975
       233.000         187.000
  20752269.549     -755289.70349   -577182.99947  20752268.873    20752273.682
       243.000         211.000
  21617360.047     2889222.25449   2264439.73547  21617359.853    21617366.347
       232.000         188.000
  23931505.331    -7977275.90349  -6198997.41145  23931503.705    23931513.079
       208.000         146.000
  23684540.045    -5799828.85249  -4483203.83245  23684538.725    23684547.044
       214.000         150.000
 03  3 19  1 11  0.0000000  0  8G 3G23G15G14G18G17G 9G31
  21884528.683   -15698939.62149 -12194225.24347  21884528.386    21884534.796
       235.000         194.000
  21852253.702     5663597.66649   4421487.18347  21852253.000    21852259.444
       237.000         196.000
  20285638.563    -7394054.09249  -5746795.39647  20285637.835    20285643.729
       245.000         212.000
  21930248.788   -15310206.19249 -10748946.45246  21930247.486    21930253.838
       232.000         187.000
  20758641.526     -721804.71849   -551090.79547  20758641.082    20758645.709
       242.000         211.000
  21626496.454     2937234.27549   2301851.69347  21626496.058    21626503.069
       232.000         188.000
  23922657.751    -8023769.51649  -6235226.11045  23922656.559    23922666.334
       208.000         145.000
  23669280.192    -5880019.16449  -4545689.68945  23669279.109    23669287.554
       213.000         150.000
 03  3 19  1 11 30.0000000  0  8G 3G23G15G14G18G17G 9G31
  21877629.884   -15735192.93549 -12222474.54147  21877629.412    21877636.189
       235.000         194.000
  21862480.772     5717341.07449   4463365.16047  21862480.270    21862486.351
       236.000         196.000
  20285895.887    -7392701.82349  -5745741.66747  20285895.207    20285901.179
       246.000         212.000
  21912980.804   -15400949.47049 -10819655.40047  21912980.339    21912986.200
       233.000         188.000
  20765058.309     -688084.40549   -524815.21647  20765057.780    20765062.263
       243.000         211.000
  21635690.839     2985551.14949   2339501.19547  21635690.153    21635697.279
       232.000         188.000
  23913886.745    -8069861.37249  -6271141.73645  23913886.221    23913894.756
       209.000         146.000
  23654092.587    -5959829.67649  -4607879.60745  23654091.383    23654099.347
       214.000         151.000
 03  3 19  1 12  0.0000000  0  8G 3G23G15G14G18G17G 9G31
  21870832.430   -15770913.50049 -12250308.71247  21870832.218    21870838.187
       235.000         194.000
  21872726.344     5771181.77849   4505318.95547  21872725.827    21872732.185
       236.000         196.000
  20286217.990    -7391009.34849  -5744422.84147  20286217.184    20286223.300
       245.000         212.000
  21895778.385   -15491348.40849 -10890096.03947  21895777.738    21895783.191
       233.000         188.000
  20771519.554     -654130.26249   -498357.43247  20771518.937    20771523.619
       243.000         211.000
  21644943.357     3034173.23349   2377388.52347  21644942.468    21644949.969
       232.000         188.000
  23905192.645    -8115548.89649  -6306742.30245  23905192.030    23905200.617
       208.000         146.000
  23638977.755    -6039257.96949  -4669771.70045  23638977.227    23638984.024
       215.000         151.000
 03  3 19  1 12 30.0000000  0  8G 3G23G15G14G18G17G 9G31
  21864136.626   -15806100.07549 -12277726.78947  21864136.263    21864142.429
       236.000         194.000
  21882990.229     5825118.76849   4547347.77347  21882989.821    21882995.773
       236.000         195.000
  20286605.022    -7388975.37649  -5742837.91247  20286604.216    20286609.994
       246.000         212.000
  21878641.962   -15581400.64949 -10960266.51547  21878641.032    21878647.183
       234.000         188.000
  20778025.132     -619943.27149   -471718.21047  20778024.493    20778029.210
       243.000         211.000
  21654253.895     3083100.52049   2415513.67046  21654253.152    21654260.453
       232.000         187.000
  23896575.933    -8160829.49049  -6342025.77245  23896574.825    23896584.413
       208.000         146.000
  23623936.288    -6118301.49449  -4731363.97345  23623934.810    23623942.688
       214.000         152.000
 03  3 19  1 13  0.0000000  0  8G 3G23G15G14G18G17G 9G31
  21857542.589   -15840751.89349 -12304728.17247  21857541.939    21857548.645
       236.000         194.000
  21893272.094     5879150.46649   4589450.39547  21893271.144    21893277.754
       235.000         195.000
  20287057.195    -7386599.19649  -5740986.32747  20287056.363    20287062.301
       245.000         212.000
  21861571.966   -15671103.80949 -11030164.99347  21861571.359    21861577.390
       234.000         188.000
  20784574.690     -585525.00949   -444898.77847  20784574.269    20784578.789
       242.000         211.000
  21663622.571     3132333.53249   2453877.04746  21663622.057    21663629.028
       231.000         187.000
  23888037.141    -8205700.62649  -6376990.17445  23888036.916    23888045.810
       209.000         148.000
  23608968.310    -6196958.20549  -4792654.83245  23608966.922    23608975.358
       213.000         152.000
 03  3 19  1 13 30.0000000  0  8G 3G23G15G14G18G17G 9G31
  21851050.605   -15874867.48749 -12331311.71847  21851050.023    21851056.708
       236.000         194.000
  21903571.835     5933275.88649   4631626.04447  21903571.083    21903577.571
       236.000         195.000
  20287574.690    -7383879.59049  -5738867.13747  20287573.895    20287579.947
       246.000         212.000
  21844568.916   -15760455.20349 -11099789.35547  21844568.090    21844574.054
       235.000         189.000
  20791168.027     -550876.74049   -417900.12347  20791167.424    20791172.204
       243.000         211.000
  21673049.656     3181873.11749   2492479.30546  21673049.210    21673056.397
       231.000         187.000
  23879576.898    -8250159.61449  -6411633.42445  23879576.383    23879585.040
       210.000         149.000
  23594074.417    -6275225.57149  -4853642.30645  23594073.982    23594081.439
       214.000         152.000
 03  3 19  1 14  0.0000000  0  8G 3G23G15G14G18G17G 9G31
  21844660.912   -15908445.57949 -12357476.43547  21844660.546    21844667.027
       237.000         195.000
  21913889.221     5987494.12049   4673874.01347  21913888.561    21913894.694
       235.000         195.000
  20288157.787    -7380815.31349  -5736479.37547  20288157.051    20288162.980
       245.000         212.000
  21827633.160   -15849452.76849 -11169138.01747  21827632.425    21827638.184
       235.000         189.000
  20797804.866     -515999.73849   -390723.23647  20797804.470    20797809.104
       242.000         211.000
  21682535.089     3231719.25149   2531320.43446  21682534.614    21682541.743
       231.000         187.000
  23871195.597    -8294203.47149  -6445953.21945  23871194.996    23871203.876
       212.000         149.000
  23579255.153    -6353100.92549  -4914324.30445  23579254.582    23579261.003
       212.000         152.000
 03  3 19  1 14 30.0000000  0  8G 3G23G15G14G18G17G 9G31
  21838373.690   -15941485.14349 -12383221.52047  21838373.479    21838379.404
       237.000         194.000
  21924224.044     6041804.02649   4716193.40947  21924223.426    21924229.656
       235.000         195.000
  20288806.683    -7377405.32349  -5733822.22747  20288805.892    20288811.962
       245.000         212.000
  21810765.199   -15938093.99849 -11238209.00947  21810764.482    21810769.986
       235.000         189.000
  20804485.057     -480895.15349   -363369.01347  20804484.505    20804489.171
       243.000         211.000
  21692078.825     3281871.86449   2570400.37546  21692077.967    21692085.407
       232.000         187.000
  23862893.730    -8337829.68849  -6479947.56345  23862893.383    23862902.428
       213.000         150.000
  23564510.900    -6430581.98649  -4974699.07045  23564509.470    23564516.877
       214.000         153.000
 03  3 19  1 15  0.0000000  0  8G 3G23G15G14G18G17G 9G31
  21832189.125   -15973985.13049 -12408546.16247  21832188.820    21832194.879
       237.000         195.000
  21934576.049     6096204.31349   4758583.23847  21934575.290    21934581.555
       235.000         194.000
  20289521.542    -7373648.68249  -5730894.95847  20289520.627    20289526.757
       245.000         212.000
  21793965.504   -16026376.45449 -11307000.43747  21793964.532    21793970.542
       235.000         190.000
  20811208.299     -445564.33249   -335838.49647  20811207.801    20811212.542
       243.000         211.000
  21701681.060     3332331.69849   2609719.70446  21701680.739    21701687.302
       232.000         187.000
  23854671.919    -8381035.53349  -6513614.37145  23854672.174    23854679.306
       212.000         149.000
  23549842.144    -6507666.37949  -5034764.74445  23549841.284    23549848.835
       212.000         153.000
 03  3 19  1 15 30.0000000  0  8G 3G23G15G14G18G17G 9G31
  21826107.539   -16005944.10149 -12433449.23047  21826106.661    21826113.364
       238.000         195.000
  21944945.137     6150694.21049   4801042.88947  21944944.241    21944951.090
       235.000         194.000
  20290302.566    -7369544.15749  -5727696.61547  20290301.766    20290307.851
       246.000         212.000
  21777234.632   -16114297.27149 -11375510.07747  21777233.775    21777239.558
       235.000         190.000
  20817974.435     -410008.12449   -308132.35947  20817973.996    20817978.582
       242.000         211.000
  21711341.778     3383099.03449   2649278.64346  21711340.921    21711348.197
       231.000         186.000
  23846530.516    -8423818.07249  -6546951.32245  23846530.411    23846538.400
       210.000         149.000
  23535249.365    -6584351.34249  -5094519.16145  23535248.377    23535255.846
       214.000         153.000
 03  3 19  1 16  0.0000000  0  8G 3G23G15G14G18G17G 9G31
  21820128.940   -16037361.50149 -12457930.29747  21820128.649    21820134.683
       237.000         195.000
  21955330.996     6205272.16049   4843571.14947  21955330.311    21955336.680
       235.000         194.000
  20291149.933    -7365091.25349  -5724226.80647  20291149.010    20291155.284
       245.000         212.000
  21760572.908   -16201854.73349 -11443736.58547  21760572.149    21760578.027
       235.000         190.000
  20824783.082     -374228.31149   -280251.98647  20824782.613    20824787.034
       243.000         211.000
  21721061.019     3434174.01049   2689077.30546  21721060.673    21721068.073
       231.000         186.000
  23838470.034    -8466175.05749  -6579956.66645  23838469.171    23838478.229
       210.000         149.000
  23520733.042    -6660634.83149  -5153960.75445  23520732.576    23520739.273
       213.000         153.000
 03  3 19  1 16 30.0000000  0  8G 3G23G15G14G18G17G 9G31
  21814253.640   -16068236.43149 -12481988.66947  21814253.197    21814259.288
       238.000         195.000
  21965733.317     6259936.70649   4886166.89247  21965732.720    21965738.948
       236.000         194.000
  20292063.750    -7360289.08149  -5720484.83947  20292063.137    20292068.747
       245.000         212.000
  21743980.788   -16289046.64349 -11511678.24947  21743980.136    21743985.731
       236.000         190.000
  20831634.060     -338226.25749   -252198.43747  20831633.680    20831638.146
       243.000         210.000
  21730838.816     3485556.63449   2729115.68946  21730838.044    21730845.543
       231.000         186.000
  23830491.089    -8508104.39249  -6612628.77645  23830490.405    23830498.920
       211.000         149.000
  23506293.532    -6736514.77149  -5213087.89945  23506293.102    23506299.884
       215.000         153.000
 03  3 19  1 17  0.0000000  0  8G 3G23G15G14G18G17G 9G31
  21808481.803   -16098567.35049 -12505623.13947  21808481.652    21808487.804
       237.000         195.000
  21976152.064     6314687.37749   4928829.74147  21976151.647    21976157.612
       235.000         194.000
  20293044.244    -7355136.40049  -5716469.75547  20293043.518    20293049.562
       245.000         212.000
  21727458.725   -16375870.38749 -11579333.03847  21727457.794    21727463.626
       236.000         191.000
  20838527.139     -302002.88049   -223972.42947  20838526.568    20838531.225
       243.000         210.000
  21740675.383     3537247.93149   2769394.59846  21740674.594    21740681.821
       231.000         185.000
  23822594.218    -8549602.66249  -6644965.00245  23822593.302    23822601.783
       210.000         151.000
  23491931.322    -6811988.50049  -5271898.50145  23491931.154    23491938.233
       214.000         153.000
 03  3 19  1 17 30.0000000  0  8G 3G23G15G14G18G17G 9G31
  21802813.661   -16128353.47649 -12528833.09647  21802813.177    21802819.754
       237.000         195.000
  21986586.937     6369522.94249   4971558.74547  21986586.523    21986592.753
       236.000         194.000
  20294091.617    -7349632.36449  -5712180.88447  20294090.813    20294096.819
       245.000         212.000
  21711007.174   -16462323.70649 -11646699.18347  21711006.473    21711012.297
       237.000         191.000
  20845462.000     -265559.78749   -195575.21847  20845461.667    20845466.132
       243.000         210.000
  21750570.547     3589247.47449   2809913.70546  21750569.934    21750577.412
       231.000         185.000
  23814779.672    -8590667.80049  -6676963.72145  23814778.762    23814787.321
       213.000         150.000
  23477646.786    -6887053.72049  -5330390.78845  23477646.104    23477653.255
       215.000         154.000
 03  3 19  1 18  0.0000000  0  8G 3G23G15G14G18G17G 9G31
  21797249.391   -16157593.90749 -12551617.83647  21797249.148    21797255.528
       238.000         195.000
  21997037.731     6424442.16849   5014352.94547  21997037.258    21997043.750
       235.000         194.000
  20295206.083    -7343775.65949  -5707617.20847  20295205.352    20295211.306
       245.000         212.000
  21694626.541   -16548404.14949 -11713774.77747  21694625.993    21694631.334
       236.000         192.000
  20852438.537     -228897.96749   -167007.56247  20852438.107    20852442.754
       243.000         210.000
  21760524.522     3641555.86249   2850673.46446  21760523.883    21760531.348
       230.000         185.000
  23807048.171    -8631297.05049  -6708622.77845  23807047.054    23807056.003
       210.000         150.000
  23463440.535    -6961707.96349  -5388562.84045  23463439.509    23463447.328
       214.000         154.000
 03  3 19  1 18 30.0000000  0  8G 3G23G15G14G18G17G 9G31
  21791789.108   -16186287.73749 -12573976.65547  21791788.339    21791794.976
       237.000         195.000
  22007504.261     6479444.13149   5057211.60347  22007503.402    22007509.730
       235.000         194.000
  20296387.882    -7337565.33049  -5702777.97847  20296387.044    20296393.100
       245.000         212.000
  21678317.308   -16634109.35449 -11780557.98147  21678316.444    21678322.278
       236.000         192.000
  20859456.458     -192018.64249   -138270.42947  20859456.039    20859460.476
       243.000         210.000
  21770537.289     3694173.37649   2891674.10946  21770536.831    21770543.803
       231.000         184.000
  23799400.009    -8671487.83949  -6739940.21145  23799399.738    23799408.474
       211.000         150.000
  23449312.878    -7035948.90249  -5446412.82545  23449311.789    23449319.570
       216.000         155.000
 03  3 19  1 19  0.0000000  0  8G 3G23G15G14G18G17G 9G31
  21786433.020   -16214434.06749 -12595908.85947  21786432.607    21786439.176
       237.000         195.000
  22017986.337     6534527.60249   5100133.77747  22017985.975    22017992.249
       235.000         193.000
  20297637.125    -7331000.40449  -5697662.44447  20297636.309    20297642.322
       245.000         212.000
  21662079.922   -16719436.93949 -11847046.93847  21662078.815    21662085.006
       236.000         192.000
  20866515.531     -154923.04049   -109364.77147  20866514.922    20866519.720
       243.000         210.000
  21780608.947     3747100.24449   2932915.81046  21780608.538    21780615.567
       230.000         184.000
  23791835.763    -8711237.80849  -6770914.13845  23791834.955    23791844.580
       211.000         150.000
  23435264.383    -7109774.23449  -5503938.96445  23435263.275    23435271.350
       216.000         156.000
 03  3 19  1 19 30.0000000  0  8G 3G23G15G14G18G17G 9G31
  21781181.336   -16242031.81249 -12617413.58547  21781180.902    21781187.146
       238.000         195.000
  22028483.642     6589691.50949   5143118.62647  22028483.059    22028489.347
       235.000         193.000
  20298954.018    -7324080.02549  -5692269.92947  20298953.177    20298959.230
       246.000         212.000
  21645914.798   -16804384.77449 -11913239.98647  21645914.036    21645919.424
       236.000         192.000
  20873615.501     -117612.44149    -80291.57847  20873615.057    20873619.584
       243.000         210.000
  21790739.499     3800336.62649   2974398.69746  21790738.586    21790746.193
       229.000         183.000
  23784355.917    -8750544.29149  -6801542.48645  23784355.493    23784363.808
       212.000         150.000
  23421295.383    -7183181.61949  -5561139.43045  23421294.565    23421302.208
       217.000         157.000
 03  3 19  1 20  0.0000000  0  8G 3G23G15G14G18G17G 9G31
  21776034.214   -16269080.06149 -12638490.13247  21776033.586    21776040.086
       237.000         196.000
  22038996.096     6644934.90649   5186165.41947  22038995.431    22039001.909
       235.000         193.000
  20300338.787    -7316803.03149  -5686599.52547  20300338.068    20300343.922
       245.000         212.000
  21629822.374   -16888950.73449 -11979135.46947  21629821.536    21629827.250
       236.000         193.000
  20880756.157      -80088.03549    -51051.78547  20880755.694    20880760.297
       243.000         210.000
  21800928.957     3853882.63449   3016122.84246  21800928.741    21800935.765
       230.000         183.000
  23776960.862    -8789404.77949  -6831823.30245  23776960.243    23776969.178
       211.000         150.000
  23407406.319    -7256168.78749  -5618012.46045  23407406.140    23407413.018
       216.000         158.000
 03  3 19  1 20 30.0000000  0  8G 3G23G15G14G18G17G 9G31
  21770991.834   -16295577.91449 -12659137.79947  21770991.466    21770997.842
       238.000         196.000
  22049523.514     6700256.85149   5229273.41047  22049522.943    22049529.122
       235.000         192.000
  20301791.581    -7309168.40449  -5680650.45447  20301790.803    20301796.802
       246.000         212.000
  21613803.113   -16973132.08149 -12044731.25047  21613802.486    21613808.198
       237.000         193.000
  20887937.302      -42350.99549    -21646.30547  20887936.982    20887941.393
       243.000         210.000
  21811177.517     3907738.74049   3058088.62646  21811177.206    21811184.134
       229.000         183.000
  23769651.189    -8827816.86849  -6861754.71845  23769650.913    23769659.742
       212.000         151.000
  23393597.637    -7328733.29549  -5674556.14045  23393596.890    23393604.836
       217.000         158.000
 03  3 19  1 21  0.0000000  0  8G 3G23G15G14G18G17G 9G31
  21766054.333   -16321524.78249 -12679356.12047  21766054.004    21766060.041
       238.000         196.000
  22060065.655     6755656.10749   5272441.65647  22060065.175    22060071.700
       234.000         192.000
  20303312.544    -7301175.65949  -5674422.33547  20303311.680    20303317.831
       245.000         212.000
  21597857.438   -17056926.91349 -12110025.85647  21597856.615    21597862.262
       237.000         194.000
  20895158.622       -4402.63249      7923.84247  20895158.173    20895162.665
       243.000         210.000
  21821484.984     3961905.02249   3100296.10246  21821483.981    21821491.350
       230.000         183.000
  23762427.442    -8865778.11249  -6891334.81445  23762427.054    23762435.265
       213.000         151.000
  23379869.847    -7400873.11049  -5730768.89245  23379869.183    23379876.348
       217.000         158.000
 03  3 19  1 21 30.0000000  0  8G 3G23G15G14G18G17G 9G31
  21761221.693   -16346920.44849 -12699144.93347  21761221.290    21761227.418
       238.000         196.000
  22070622.227     6811131.25649   5315669.04147  22070621.467    22070628.160
       234.000         192.000
  20304901.774    -7292824.03249  -5667914.56947  20304900.970    20304907.008
       245.000         212.000
  21581985.680   -17140333.49249 -12175017.92447  21581985.033    21581990.376
       237.000         194.000
  20902419.829       33755.21049     37657.22047  20902419.326    20902424.027
       243.000         210.000
  21831851.445     4016381.07049   3142744.96346  21831851.104    21831857.841
       230.000         183.000
  23755289.814    -8903286.52849  -6920562.06745  23755288.996    23755297.994
       213.000         151.000
  23366223.213    -7472586.40549  -5786649.27945  23366221.611    23366229.415
       217.000         159.000
 03  3 19  1 22  0.0000000  0  8G 3G23G15G14G18G17G 9G31
  21756494.234   -16371763.27549 -12718502.95847  21756493.593    21756500.545
       238.000         196.000
  22081193.183     6866681.89949   5358955.24847  22081192.598    22081198.553
       234.000         192.000
  20306559.610    -7284111.98749  -5661125.95947  20306558.882    20306564.707
       245.000         212.000
  21566188.313   -17223348.97749 -12239705.24147  21566187.679    21566193.150
       236.000         194.000
  20909720.780       72122.00449     67553.42047  20909720.232    20909724.816
       242.000         210.000
  21842277.121     4071168.10549   3185436.15346  21842276.836    21842283.413
       230.000         183.000
  23748238.924    -8940339.06749  -6949434.09945  23748237.907    23748246.319
       212.000         151.000
  23352658.272    -7543870.33649  -5842195.10545  23352657.681    23352664.021
       217.000         159.000
 03  3 19  1 22 30.0000000  0  8G 3G23G15G14G18G17G 9G31
  21751872.036   -16396052.80149 -12737429.83247  21751871.842    21751878.333
       238.000         196.000
  22091778.246     6922306.81749   5402299.32947  22091778.000    22091783.657
       235.000         192.000
  20308286.144    -7275038.90749  -5654056.01947  20308285.357    20308291.348
       246.000         212.000
  21550465.784   -17305971.30049 -12304086.19547  21550465.034    21550470.316
       237.000         195.000
  20917061.231      110696.32649     97611.33247  20917060.860    20917065.424
       243.000         210.000
  21852761.865     4126265.78049   3228369.38546  21852760.938    21852768.565
       230.000         183.000
  23741275.231    -8976933.42549  -6977949.08545  23741273.938    23741282.336
       212.000         150.000
  23339175.451    -7614722.75649  -5897404.69145  23339175.205    23339180.938
       217.000         160.000
 03  3 19  1 23  0.0000000  0  8G 3G23G15G14G18G17G 9G31
  21747355.317   -16419788.26949 -12755924.97647  21747354.810    21747361.420
       238.000         196.000
  22102377.221     6978004.81849   5445700.35947  22102377.073    22102382.804
       233.000         192.000
  20310081.585    -7265603.93049  -5646704.08047  20310080.934    20310086.742
       245.000         212.000
  21534818.442   -17388198.37649 -12368159.16147  21534817.816    21534823.175
       237.000         195.000
  20924440.931      149477.02649    127830.05547  20924440.401    20924445.204
       243.000         209.000
  21863305.699     4181674.09249   3271544.68346  21863305.389    21863312.501
       229.000         183.000
  23734399.027    -9013067.41049  -7006105.33945  23734398.498    23734407.359
       211.000         149.000
  23325775.188    -7685141.52049  -5952276.37345  23325774.962    23325781.762
       218.000         160.000
 03  3 19  1 23 30.0000000  0  8G 3G23G15G14G18G17G 9G31
  21742944.222   -16442968.64749 -12773987.57947  21742943.603    21742950.156
       238.000         196.000
  22112990.020     7033775.31349   5489157.87047  22112989.546    22112996.324
       234.000         192.000
  20311946.096    -7255805.82449  -5639069.18847  20311945.373    20311951.103
       245.000         212.000
  21519246.803   -17470027.63049 -12431922.13647  21519246.386    21519251.714
       237.000         195.000
  20931859.793      188463.29049    158208.96347  20931859.425    20931864.014
       242.000         209.000
  21873908.850     4237393.77249   3314962.60546  21873908.208    21873915.676
       231.000         183.000
  23727611.035    -9048738.08549  -7033900.56945  23727611.227    23727618.970
       211.000         149.000
  23312457.849    -7755124.16749  -6006808.21745  23312457.791    23312464.898
       218.000         161.000
 03  3 19  1 24  0.0000000  0  8G 3G23G15G14G18G17G 9G31
  21738638.782   -16465593.83249 -12791617.56047  21738638.344    21738645.037
       238.000         196.000
  22123616.332     7089616.93349   5532670.81647  22123615.839    22123621.966
       234.000         192.000
  20313879.820    -7245644.08149  -5631150.94047  20313878.974    20313885.076
       245.000         212.000
  21503751.150   -17551457.33349 -12495373.77147  21503750.233    21503755.547
       237.000         195.000
  20939317.375      227653.23749    188746.59047  20939316.883    20939321.654
       243.000         209.000
  21884571.191     4293424.63149   3358623.00046  21884570.537    21884578.068
       230.000         183.000
  23720911.568    -9083943.90049  -7061333.56645  23720911.015    23720919.135
       212.000         150.000
  23299223.834    -7824668.89049  -6060998.81645  23299223.273    23299230.028
       218.000         162.000
 03  3 19  1 24 30.0000000  0  8G 3G23G15G14G18G17G 9G31
  21734439.146   -16487662.93649 -12808814.23647  21734438.791    21734445.211
       237.000         196.000
  22134255.967     7145528.57549   5576238.31547  22134255.534    22134262.028
       234.000         192.000
  20315882.917    -7235117.81349  -5622948.65347  20315882.277    20315888.095
       245.000         212.000
  21488331.986   -17632485.36749 -12558512.42047  21488331.368    21488336.404
       237.000         196.000
  20946813.525      267045.68649    219442.01147  20946812.893    20946817.626
       243.000         209.000
  21895292.698     4349766.26849   3402525.55846  21895291.895    21895298.690
       229.000         182.000
  23714300.999    -9118682.35949  -7088402.39845  23714300.172    23714308.440
       210.000         150.000
  23286073.622    -7893773.58149  -6114846.55146  23286073.417    23286080.257
       219.000         163.000
 03  3 19  1 25  0.0000000  0  8G 3G23G15G14G18G17G 9G31
  21730345.471   -16509175.22949 -12825577.02547  21730345.095    21730351.365
       237.000         196.000
  22144908.840     7201509.56449   5619859.85947  22144908.389    22144914.560
       234.000         191.000
  20317955.590    -7224225.78149  -5614461.34547  20317954.803    20317960.627
       245.000         212.000
  21472989.702   -17713109.24549 -12621336.13747  21472988.889    21472994.237
       237.000         196.000
  20954348.062      306640.04049    250294.76947  20954347.607    20954352.220
       242.000         209.000
  21906073.399     4406419.45949   3446670.89246  21906072.851    21906079.773
       229.000         182.000
  23707779.777    -9152950.73049  -7115104.91445  23707778.397    23707787.059
       211.000         149.000
  23273007.657    -7962435.56049  -6168349.30046  23273006.993    23273014.110
       219.000         163.000
 03  3 19  1 25 30.0000000  0  8G 3G23G15G14G18G17G 9G31
  21726358.063   -16530128.90049 -12841904.53047  21726357.466    21726363.945
       237.000         196.000
  22155574.897     7257560.15249   5663535.63547  22155574.285    22155580.551
       234.000         191.000
  20320098.294    -7212965.83449  -5605687.35147  20320097.449    20320103.458
       245.000         212.000
  21457724.941   -17793325.77049 -12683842.44047  21457724.387    21457729.571
       237.000         196.000
  20961920.961      346435.96349    281304.59147  20961920.394    20961925.066
       242.000         209.000
  21916913.702     4463385.48949   3491059.99446  21916912.987    21916920.278
       230.000         182.000
  23701348.651    -9186745.82549  -7141438.66745  23701348.538    23701355.983
       210.000         149.000
  23260026.478    -8030651.62949  -6221504.59146  23260025.769    23260033.011
       218.000         163.000
 03  3 19  1 26  0.0000000  0  8G 3G23G15G14G18G17G 9G31
  21722476.848   -16550524.68849 -12857797.31947  21722476.383    21722482.504
       236.000         196.000
  22166253.735     7313677.92049   5707263.74747  22166253.102    22166259.988
       233.000         191.000
  20322310.837    -7201338.84249  -5596627.34147  20322310.097    20322316.106
       245.000         212.000
  21442537.822   -17873134.36149 -12746030.87347  21442537.170    21442542.652
       238.000         196.000
  20969531.728      386430.84449    312469.45047  20969531.286    20969535.705
       242.000         208.000
  21927813.235     4520662.77049   3535691.63246  21927812.631    21927819.821
       230.000         182.000
  23695007.819    -9220066.74849  -7167402.91645  23695006.548    23695016.163
       212.000         149.000
  23247130.386    -8098421.09849  -6274311.88646  23247129.417    23247135.927
       217.000         163.000
 03  3 19  1 26 30.0000000  0  8G 3G23G15G14G18G17G 9G31
  21718701.799   -16570362.53949 -12873255.35447  21718701.606    21718707.822
       236.000         196.000
  22176945.146     7369861.35749   5751043.04047  22176944.811    22176950.795
       234.000         191.000
  20324593.354    -7189344.16249  -5587280.82547  20324592.507    20324598.569
       246.000         212.000
  21427428.615   -17952533.34649 -12807900.13547  21427427.990    21427433.002
       238.000         197.000
  20977180.073      426623.23849    343788.21147  20977179.501    20977184.009
       242.000         208.000
  21938771.916     4578251.15349   3580565.68946  21938771.035    21938778.887
       229.000         182.000
  23688757.612    -9252911.74849  -7192996.33145  23688756.985    23688764.963
       212.000         150.000
  23234319.529    -8165742.28549  -6326769.87746  23234319.046    23234326.295
       218.000         163.000
 03  3 19  1 27  0.0000000  0  8G 3G23G15G14G18G17G 9G31
  21715033.157   -16589641.20749 -12888277.66247  21715032.686    21715039.139
       236.000         196.000
  22187648.925     7426110.06749   5794873.18947  22187648.690    22187655.156
       233.000         191.000
  20326946.082    -7176980.46449  -5577646.76047  20326945.279    20326951.238
       245.000         212.000
  21412397.927   -18031519.82949 -12869447.97047  21412397.266    21412402.372
       238.000         197.000
  20984865.827      467012.31249    375260.23347  20984865.370    20984870.110
       242.000         208.000
  21949789.881     4636150.90349   3625682.34946  21949789.367    21949796.524
       229.000         182.000
  23682598.456    -9285278.02449  -7218216.71545  23682598.198    23682606.431
       212.000         150.000
  23221594.529    -8232612.48149  -6378876.45346  23221593.935    23221600.246
       218.000         164.000
 03  3 19  1 27 30.0000000  0  8G 3G23G15G14G18G17G 9G31
  21711471.027   -16608360.22549 -12902863.88547  21711470.312    21711476.836
       237.000         196.000
  22198364.960     7482423.25549   5838753.58847  22198364.802    22198370.677
       234.000         190.000
  20329369.222    -7164246.68849  -5567724.32547  20329368.501    20329374.348
       246.000         212.000
  21397446.182   -18110091.69949 -12930672.72647  21397445.357    21397450.720
       239.000         197.000
  20992588.822      507596.98849    406884.67047  20992588.264    20992592.922
       242.000         208.000
  21960867.206     4694362.30149   3671041.87046  21960866.548    21960873.409
       229.000         182.000
  23676530.815    -9317163.21949  -7243062.24645  23676530.189    23676537.905
       212.000         150.000
  23208955.707    -8299029.50149  -6430629.90146  23208954.565    23208961.974
       218.000         164.000
 03  3 19  1 28  0.0000000  0  8G 3G23G15G14G18G17G 9G31
  21708015.495   -16626518.98449 -12917013.54847  21708015.024    21708021.647
       237.000         196.000
  22209093.147     7538800.26849   5882683.72047  22209092.425    22209099.049
       233.000         190.000
  20331863.008    -7151141.63049  -5557512.58347  20331862.175    20331868.144
       245.000         212.000
  21382573.722   -18188246.69949 -12991572.64847  21382573.043    21382578.121
       238.000         198.000
  21000348.918      548376.44649    438660.88147  21000348.391    21000353.043
       242.000         208.000
  21972003.951     4752886.17249   3716644.85746  21972002.879    21972010.344
       228.000         181.000
  23670555.177    -9348564.95449  -7267531.03445  23670555.655    23670563.289
       213.000         151.000
  23196403.659    -8364990.89249  -6482028.31946  23196402.944    23196410.406
       219.000         164.000
 03  3 19  1 28 30.0000000  0  8G 3G23G15G14G18G17G 9G31
  21704666.575   -16644117.55349 -12930726.69747  21704666.342    21704672.768
       238.000         197.000
  22219833.186     7595239.55649   5926662.37647  22219832.400    22219839.211
       233.000         190.000
  20334427.471    -7137665.22749  -5547011.48047  20334426.659    20334432.736
       246.000         212.000
  21367780.835   -18265983.40849 -13052146.62547  21367780.024    21367785.230
       238.000         198.000
  21008145.679      589348.75049    470587.36147  21008145.184    21008149.865
       242.000         208.000
  21983200.074     4811722.25149   3762491.13146  21983198.898    21983206.491
       228.000         181.000
  23664671.906    -9379481.54649  -7291621.79145  23664671.509    23664680.040
       212.000         152.000
  23183938.515    -8430495.30349  -6533070.65246  23183937.994    23183945.071
       219.000         164.000
 03  3 19  1 29  0.0000000  0  8G 3G23G15G14G18G17G 9G31
  21701424.483   -16661154.84249 -12944002.48547  21701424.177    21701430.677
       237.000         197.000
  22230585.041     7651740.88749   5970689.37647  22230584.936    22230590.601
       232.000         189.000
  20337062.833    -7123816.08949  -5536219.93047  20337062.015    20337067.875
       245.000         212.000
  21353068.066   -18343299.20349 -13112392.62747  21353067.229    21353072.505
       238.000         198.000
  21015979.080      630513.66249    502663.92647  21015978.611    21015983.283
       242.000         208.000
  21994455.588     4870870.56449   3808580.71446  21994454.816    21994461.654
       228.000         180.000
  23658881.488    -9409910.20049  -7315332.36345  23658881.017    23658888.844
       214.000         152.000
  23171560.871    -8495539.90549  -6583754.69746  23171560.103    23171567.127
       219.000         164.000
 03  3 19  1 29 30.0000000  0  8G 3G23G15G14G18G17G 9G31
  21698289.209   -16677630.74649 -12956840.83447  21698288.977    21698295.281
       238.000         197.000
  22241348.492     7708303.10149   6014763.81347  22241347.845    22241354.415
       233.000         189.000
  20339769.279    -7109593.68949  -5525137.53147  20339768.421    20339774.355
       246.000         211.000
  21338435.690   -18420192.33049 -13172309.26847  21338435.019    21338440.290
       239.000         199.000
  21023848.909      671869.76149    534889.46347  21023848.403    21023852.944
       242.000         207.000
  22005770.542     4930330.71049   3854913.27146  22005770.362    22005777.252
       228.000         180.000
  23653184.265    -9439849.14849  -7338661.33045  23653184.001    23653191.892
       214.000         152.000
  23159271.049    -8560122.89849  -6634079.03446  23159270.621    23159277.530
       218.000         165.000
 03  3 19  1 30  0.0000000  0  8G 3G23G15G14G18G17G 9G31
  21695260.877   -16693544.87949 -12969241.43947  21695260.384    21695266.969
       237.000         197.000
  22252123.332     7764925.18749   6058884.91647  22252122.506    22252128.828
       232.000         189.000
  20342546.868    -7094997.22049  -5513763.64647  20342546.238    20342552.071
       244.000         211.000
  21323884.178   -18496660.69649 -13231894.93247  21323883.513    21323888.689
       239.000         199.000
  21031754.793      713415.49449    567262.76547  21031754.260    21031758.991
       242.000         207.000
  22017144.887     4990103.15049   3901489.18346  22017144.308    22017151.779
       228.000         180.000
  23647580.613    -9469296.32149  -7361607.10145  23647580.850    23647587.917
       215.000         153.000
  23147069.473    -8624242.42449  -6684042.23146  23147068.528    23147075.721
       219.000         165.000
 03  3 19  1 30 30.0000000  0  8G 3G23G15G14G18G17G 9G31
  21692339.543   -16708896.64049 -12981203.83647  21692339.416    21692345.415
       238.000         197.000
  22262909.394     7821606.33449   6103052.04447  22262908.559    22262915.040
       233.000         189.000
  20345395.807    -7080025.88749  -5502097.65747  20345395.136    20345401.013
       244.000         211.000
  21309413.907   -18572702.34949 -13291148.09047  21309413.370    21309418.513
       238.000         199.000
  21039696.624      755150.27249    599783.37247  21039696.062    21039700.730
       242.000         207.000
  22028578.607     5050187.76449   3948308.34746  22028577.703    22028585.319
       227.000         179.000
  23642070.919    -9498249.53949  -7384167.96045  23642070.006    23642078.357
       215.000         153.000
  23134956.443    -8687896.35949  -6733642.63346  23134956.103    23134963.039
       220.000         165.000
 03  3 19  1 31  0.0000000  0  8G 3G23G15G14G18G17G 9G31
  21689525.242   -16723685.74549 -12992727.80147  21689524.814    21689531.216
       237.000         197.000
  22273706.511     7878345.59049   6147264.45047  22273706.004    22273712.358
       232.000         189.000
  20348316.264    -7064678.79549  -5490138.87747  20348315.354    20348321.443
       244.000         212.000
  21295025.144   -18648315.49049 -13350067.34347  21295024.291    21295029.593
       239.000         200.000
  21047674.103      797072.36149    632449.93647  21047673.479    21047678.272
       241.000         207.000
  22040071.602     5110584.01349   3995370.33746  22040071.026    22040078.377
       227.000         178.000
  23636655.596    -9526706.79849  -7406342.37445  23636655.004    23636663.192
       216.000         153.000
  23122932.443    -8751082.72349  -6782878.70346  23122931.608    23122938.931
       219.000         165.000
 03  3 19  1 31 30.0000000  0  8G 3G23G15G14G18G17G 9G31
  21686818.246   -16737911.12449 -13003812.49147  21686817.898    21686824.237
       237.000         197.000
  22284514.674     7935142.68749   6191521.92547  22284514.302    22284520.458
       233.000         188.000
  20351308.498    -7048954.37449  -5477886.07247  20351307.793    20351313.708
       244.000         212.000
  21280718.430   -18723497.55749 -13408650.69547  21280717.776    21280722.744
       238.000         200.000
  21055687.135      839181.25549    665262.06147  21055686.631    21055691.391
       242.000         207.000
  22051624.192     5171293.07949   4042676.07446  22051623.649    22051630.818
       227.000         178.000
  23631335.204    -9554665.37649  -7428128.19845  23631334.168    23631342.090
       215.000         153.000
  23110997.853    -8813799.01049  -6831748.46446  23110996.780    23111004.041
       219.000         165.000
 03  3 19  1 32  0.0000000  0  8G 3G23G15G14G18G17G 9G31
  21684218.378   -16751573.37149 -13014458.38447  21684218.128    21684224.185
       237.000         197.000
  22295333.514     7991996.11149   6235823.29847  22295333.092    22295339.493
       232.000         188.000
  20354372.599    -7032852.51649  -5465339.16047  20354371.852    20354377.979
       244.000         212.000
  21266494.033   -18798246.96149 -13466896.90247  21266493.433    21266498.466
       239.000         200.000
  21063735.522      881475.68049    698218.75347  21063734.860    21063739.754
       242.000         207.000
  22063236.148     5232314.30649   4090225.05846  22063235.480    22063242.445
       227.000         178.000
  23626109.932    -9582123.81149  -7449524.29845  23626109.385    23626116.709
       215.000         152.000
  23099153.026    -8876043.67649  -6880250.73846  23099151.950    23099159.183
       220.000         165.000
 03  3 19  1 32 30.0000000  0  8G 3G23G15G14G18G17G 9G31
  21681725.779   -16764671.87649 -13024664.99547  21681725.324    21681731.752
       237.000         197.000
  22306162.971     8048905.37049   6280168.17847  22306162.315    22306168.545
       233.000         188.000
  20357508.694    -7016372.30149  -5452497.42847  20357507.951    20357513.924
       244.000         212.000
  21252352.346   -18872561.69949 -13524804.41247  21252351.773    21252356.700
       239.000         200.000
  21071818.996      923954.62249    731319.22947  21071818.254    21071823.184
       242.000         207.000
  22074907.478     5293647.71349   4138017.30746  22074907.330    22074913.693
       226.000         177.000
  23620980.259    -9609079.90349  -7470528.96545  23620980.475    23620987.571
       215.000         152.000
  23087398.329    -8937814.65949  -6928383.89846  23087397.417    23087404.972
       219.000         165.000
 03  3 19  1 33  0.0000000  0  8G 3G23G15G14G18G17G 9G31
  21679340.435   -16777206.92949 -13034432.55347  21679340.115    21679346.338
       237.000         197.000
  22317002.835     8105869.13949   6324555.53047  22317002.481    22317008.590
       232.000         188.000
  20360716.753    -6999513.74849  -5439360.88747  20360716.000    20360721.934
       244.000         212.000
  21238293.698   -18946440.19449 -13582371.99347  21238292.976    21238298.136
       240.000         201.000
  21079937.257      966616.30749    764562.10347  21079936.723    21079941.193
       242.000         206.000
  22086638.204     5355293.05249   4186052.61346  22086637.489    22086645.085
       226.000         177.000
  23615946.528    -9635532.11749  -7491140.99245  23615946.630    23615954.750
       215.000         153.000
  23075734.090    -8999110.33249  -6976146.70146  23075733.692    23075740.206
       220.000         165.000
 03  3 19  1 33 30.0000000  0  8G 3G23G15G14G18G17G 9G31
  21677062.424   -16789177.77449 -13043760.46747  21677062.022    21677068.540
       237.000         197.000
  22327852.987     8162886.89649   6368984.95346  22327852.599    22327858.693
       232.000         187.000
  20363997.110    -6982275.44949  -5425928.43947  20363996.269    20364002.214
       244.000         212.000
  21224318.449   -19019880.26549 -13639597.95247  21224317.671    21224322.872
       240.000         201.000
  21088090.126     1009460.12549    797946.89347  21088089.669    21088094.286
       242.000         206.000
  22098428.259     5417250.39249   4234331.04546  22098427.637    22098435.148
       227.000         177.000
  23611009.174    -9661478.11249  -7511358.56445  23611008.959    23611015.926
       216.000         154.000
  23064160.794    -9059928.40049  -7023537.33246  23064160.174    23064166.989
       220.000         165.000
 03  3 19  1 34  0.0000000  0  8G 3G23G15G14G18G17G 9G31
  21674891.826   -16800584.14449 -13052648.53147  21674891.525    21674897.766
       238.000         197.000
  22338713.204     8219957.76749   6413455.76546  22338712.161    22338719.450
       231.000         187.000
  20367349.851    -6964656.59149  -5412199.44747  20367349.118    20367354.978
       244.000         212.000
  21210426.968   -19092880.11649 -13696480.87747  21210426.367    21210431.392
       239.000         201.000
  21096277.497     1052484.78949    831472.60447  21096277.001    21096281.681
       241.000         206.000
  22110277.778     5479519.94949   4282852.75146  22110277.144    22110284.348
       227.000         177.000
  23606168.466    -9686916.01949  -7531180.22145  23606167.730    23606176.267
       215.000         153.000
  23052678.735    -9120266.92749  -7070554.30446  23052678.063    23052684.351
       220.000         166.000
 03  3 19  1 34 30.0000000  0  8G 3G23G15G14G18G17G 9G31
  21672828.711   -16811425.77949 -13061096.53847  21672828.143    21672834.764
       237.000         197.000
  22349583.325     8277080.93249   6457967.32946  22349583.265    22349588.891
       232.000         186.000
  20370775.175    -6946656.35649  -5398173.27747  20370774.336    20370780.120
       244.000         212.000
  21196619.653   -19165437.69849 -13753019.18147  21196619.396    21196624.236
       240.000         202.000
  21104499.033     1095689.27549    865138.44547  21104498.720    21104503.129
       241.000         206.000
  22122186.760     5542101.54449   4331617.61246  22122185.560    22122193.618
       226.000         177.000
  23601424.779    -9711843.84849  -7550604.40745  23601424.804    23601432.395
       215.000         154.000
  23041288.204    -9180124.09349  -7117196.17946  23041287.089    23041294.667
       221.000         167.000
 03  3 19  1 35  0.0000000  0  8G 3G23G15G14G18G17G 9G31
  21670873.070   -16821702.57549 -13069104.40647  21670872.747    21670879.053
       237.000         196.000
  22360463.321     8334255.83549   6502519.20446  22360463.034    22360469.317
       231.000         186.000
  20374273.220    -6928273.99449  -5383849.34447  20374272.435    20374278.251
       244.000         212.000
  21182896.908   -19237550.92349 -13809211.22947  21182896.156    21182901.400
       240.000         202.000
  21112754.667     1139072.96349    898943.92347  21112754.164    21112758.724
       241.000         206.000
  22134155.077     5604995.38849   4380625.77146  22134154.354    22134162.344
       228.000         177.000
  23596778.578    -9736259.59749  -7569629.57645  23596778.260    23596785.882
       214.000         155.000
  23029989.696    -9239497.79249  -7163461.32446  23029988.721    23029995.987
       221.000         167.000
 03  3 19  1 35 30.0000000  0  8G 3G23G15G14G18G17G 9G31
  21669024.939   -16831414.48449 -13076672.10847  21669024.586    21669030.916
       238.000         196.000
  22371353.031     8391481.32649   6547110.50546  22371352.275    22371358.878
       231.000         186.000
  20377844.066    -6909509.06049  -5369227.30647  20377843.323    20377849.142
       244.000         212.000
  21169259.007   -19309218.51849 -13865056.03747  21169258.148    21169263.268
       240.000         202.000
  21121044.139     1182634.38849    932887.89847  21121043.636    21121048.306
       241.000         206.000
  22146182.742     5668200.97849   4429876.86346  22146182.537    22146189.229
       227.000         177.000
  23592230.140    -9760161.59749  -7588254.41645  23592229.659    23592236.789
       214.000         155.000
  23018783.494    -9298386.42749  -7209348.50146  23018782.299    23018790.069
       221.000         167.000
 03  3 19  1 36  0.0000000  0  8G 3G23G15G14G18G17G 9G31
  21667284.458   -16840560.68549 -13083798.99747  21667284.111    21667290.322
       238.000         197.000
  22382252.267     8448757.34049   6591741.16246  22382251.680    22382258.587
       231.000         186.000
  20381487.974    -6890360.09349  -5354306.02347  20381487.330    20381493.096
       244.000         212.000
  21155706.342   -19380437.83849 -13920551.54547  21155705.820    21155710.719
       240.000         202.000
  21129367.286     1226372.78749    966969.77347  21129366.864    21129371.535
       241.000         205.000
  22158269.776     5731718.70049   4479371.16546  22158269.119    22158276.228
       226.000         176.000
  23587779.902    -9783547.40949  -7606477.03645  23587779.690    23587787.868
       215.000         154.000
  23007670.050    -9356787.45849  -7254855.72946  23007669.622    23007675.903
       221.000         168.000
 03  3 19  1 36 30.0000000  0  8G 3G23G15G14G18G17G 9G31
  21665651.475   -16849142.05149 -13090485.75647  21665651.142    21665657.345
       237.000         197.000
  22393160.818     8506082.30149   6636409.97546  22393160.108    22393166.456
       231.000         185.000
  20385204.966    -6870827.15349  -5339085.53347  20385204.157    20385210.205
       244.000         212.000
  21142239.179   -19451207.92249 -13975696.99847  21142238.543    21142243.512
       240.000         202.000
  21137723.763     1270286.55049   1001188.30547  21137723.249    21137727.970
       242.000         205.000
  22170416.128     5795548.06749   4529108.31746  22170415.811    22170423.556
       226.000         176.000
  23583428.017    -9806415.90149  -7624296.53745  23583427.033    23583435.635
       215.000         153.000
  22996649.638    -9414699.92449  -7299982.25146  22996648.861    22996655.854
       222.000         168.000
 03  3 19  1 37  0.0000000  0  8G 3G23G15G14G18G17G 9G31
  21664126.048   -16857158.18749 -13096732.06447  21664125.858    21664131.899
       237.000         197.000
  22404078.644     8563455.83149   6681116.62146  22404078.159    22404084.265
       231.000         185.000
  20388995.238    -6850909.02449  -5323564.90547  20388994.493    20389000.279
       244.000         212.000
  21128857.950   -19521526.43649 -14030490.57647  21128857.336    21128862.350
       240.000         203.000
  21146113.538     1314375.15449   1035543.06847  21146112.881    21146117.554
       241.000         205.000
  22182621.832     5859689.46649   4579088.61146  22182620.541    22182629.339
       225.000         176.000
  23579175.044    -9828764.65949  -7641711.05145  23579174.297    23579182.587
       214.000         153.000
  22985722.644    -9472121.33849  -7344726.14346  22985721.816    22985728.912
       221.000         169.000
 03  3 19  1 37 30.0000000  0  8G 3G23G15G14G18G17G 9G31
  21662708.188   -16864609.06649 -13102537.92047  21662707.809    21662714.008
       237.000         197.000
  22415005.536     8620877.10649   6725860.47646  22415004.815    22415011.503
       230.000         185.000
  20392858.932    -6830605.16149  -5307743.69747  20392858.218    20392863.935
       244.000         212.000
  21115563.027   -19591391.53749 -14084930.85647  21115562.380    21115567.418
       239.000         203.000
  21154536.378     1358637.52749   1070033.24147  21154535.910    21154540.382
       241.000         205.000
  22194886.854     5924142.65949   4629311.84846  22194886.250    22194893.292
       226.000         175.000
  23575021.396    -9850591.94549  -7658719.23345  23575021.452    23575028.106
       215.000         153.000
  22974889.418    -9529050.00849  -7389086.07446  22974888.726    22974895.086
       221.000         169.000
 03  3 19  1 38  0.0000000  0  8G 3G23G15G14G18G17G 9G31
  21661397.905   -16871494.50149 -13107903.16747  21661397.477    21661403.685
       237.000         197.000
  22425941.370     8678345.24749   6770640.84646  22425940.854    22425946.958
       230.000         184.000
  20396796.135    -6809915.03549  -5291621.50347  20396795.362    20396801.135
       243.000         212.000
  21102354.608   -19660801.93449 -14139016.82747  21102354.094    21102359.046
       240.000         203.000
  21162992.032     1403072.24649   1104657.70547  21162991.646    21162996.162
       242.000         205.000
  22207211.096     5988907.02549   4679777.57546  22207210.328    22207218.515
       224.000         175.000
  23570967.298    -9871896.26749  -7675319.92045  23570967.839    23570974.634
       215.000         154.000
  22964150.279    -9585484.29849  -7433060.77646  22964149.470    22964156.339
       222.000         169.000
 03  3 19  1 38 30.0000000  0  8G 3G23G15G14G18G17G 9G31
  21660195.242   -16877814.64149 -13112827.92647  21660195.039    21660201.378
       238.000         197.000
  22436885.989     8735859.67849   6815457.29346  22436885.557    22436891.431
       231.000         184.000
  20400806.986    -6788837.76549  -5275197.63547  20400806.076    20400812.115
       244.000         211.000
  21089233.121   -19729755.56049 -14192746.87447  21089232.328    21089237.345
       240.000         204.000
  21171480.251     1447678.35249   1139415.72647  21171479.820    21171484.161
       241.000         204.000
  22219594.546     6053982.53749   4730485.73046  22219594.155    22219601.520
       225.000         175.000
  23567013.032    -9892675.84449  -7691511.70945  23567012.737    23567019.871
       215.000         154.000
  22953505.610    -9641422.28249  -7476648.75146  22953504.829    22953511.739
       222.000         169.000
 03  3 19  1 39  0.0000000  0  8G 3G23G15G14G18G17G 9G31
  21659100.052   -16883569.85649 -13117312.48647  21659099.687    21659105.806
       237.000         197.000
  22447839.195     8793419.25349   6860308.90246  22447838.835    22447845.034
       230.000         184.000
  20404891.524    -6767373.06649  -5258471.87447  20404890.748    20404896.771
       244.000         211.000
  21076198.819   -19798251.04449 -14246119.89447  21076198.252    21076203.117
       241.000         204.000
  21180000.901     1492454.56649   1174306.28547  21180000.431    21180005.064
       241.000         204.000
  22232037.248     6119368.77849   4781436.02546  22232036.711    22232044.194
       225.000         175.000
  23563158.863    -9912929.32049  -7707293.55745  23563158.875    23563166.318
       216.000         154.000
  22942955.653    -9696862.65049  -7519848.97846  22942955.013    22942961.534
       221.000         170.000
 03  3 19  1 39 30.0000000  0  8G 3G23G15G14G18G17G 9G31
  21658112.393   -16888760.06749 -13121356.77947  21658111.751    21658118.054
       238.000         197.000
  22458800.930     8851023.49649   6905195.33446  22458800.416    22458806.553
       230.000         184.000
  20409050.016    -6745520.04249  -5241443.52047  20409049.229    20409055.018
       244.000         211.000
  21063252.079   -19866286.46049 -14299134.38947  21063251.235    21063256.236
       241.000         204.000
  21188553.702     1537399.91349   1209328.64547  21188553.090    21188557.787
       241.000         204.000
  22244539.039     6185066.08749   4832628.71546  22244537.787    22244545.910
       225.000         174.000
  23559405.269    -9932654.40949  -7722663.65345  23559404.124    23559412.852
       215.000         154.000
  22932500.737    -9751803.38949  -7562659.87746  22932499.871    22932506.704
       222.000         170.000
 03  3 19  1 40  0.0000000  0  8G 3G23G15G14G18G17G 9G31
  21657232.415   -16893384.33749 -13124960.08447  21657231.950    21657238.007
       238.000         197.000
  22469771.177     8908672.40549   6950116.55946  22469770.661    22469776.985
       230.000         183.000
  20413282.667    -6723277.23549  -5224111.44447  20413281.849    20413287.664
       244.000         211.000
  21050393.350   -19933859.18949 -14351788.32147  21050392.536    21050397.759
       241.000         205.000
  21197138.658     1582514.25249   1244482.68047  21197138.097    21197142.952
       240.000         204.000
  22257100.047     6251074.53249   4884063.84146  22257099.601    22257106.685
       224.000         174.000
  23555752.563    -9951848.96649  -7737620.36745  23555752.082    23555760.094
       215.000         153.000
  22922141.363    -9806241.93949  -7605079.46546  22922140.572    22922147.538
       222.000         170.000
 03  3 19  1 40 30.0000000  0  8G 3G23G15G14G18G17G 9G31
  21656459.957   -16897443.39149 -13128122.96047  21656459.865    21656465.700
       238.000         197.000
  22480749.674     8966364.85849   6995071.71846  22480748.702    22480755.076
       229.000         183.000
  20417589.488    -6700644.88949  -5206475.82947  20417588.548    20417594.443
       244.000         211.000
  21037622.847   -20000968.28049 -14404080.98847  21037622.187    21037626.740
       241.000         205.000
  21205755.543     1627796.23149   1279767.34347  21205755.211    21205759.479
       241.000         204.000
  22269720.165     6317393.79349   4935741.16346  22269719.874    22269726.940
       223.000         174.000
  23552201.023    -9970511.76349  -7752162.71645  23552200.141    23552208.032
       215.000         153.000
  22911877.761    -9860177.27649  -7647106.92946  22911877.447    22911884.018
       223.000         171.000
 03  3 19  1 41  0.0000000  0  8G 3G23G15G14G18G17G 9G31
  21655795.066   -16900937.43949 -13130845.57547  21655794.595    21655800.970
       238.000         197.000
  22491736.258     9024099.84849   7040060.02246  22491735.795    22491742.792
       229.000         183.000
  20421970.503    -6677622.36649  -5188536.18047  20421969.715    20421975.608
       244.000         211.000
  21024940.844   -20067612.31549 -14456011.29047  21024940.187    21024944.706
       241.000         205.000
  21214404.071     1673244.51449   1315181.59447  21214403.564    21214408.187
       241.000         204.000
  22282399.368     6384023.81649   4987660.63246  22282397.887    22282406.566
       223.000         173.000
  23548751.029    -9988641.23349  -7766289.49545  23548750.249    23548757.840
       217.000         154.000
  22901710.212    -9913607.74349  -7688741.00046  22901709.357    22901716.291
       223.000         171.000
 03  3 19  1 41 30.0000000  0  8G 3G23G15G14G18G17G 9G31
  21655237.624   -16903866.57349 -13133127.99747  21655237.101    21655243.810
       237.000         197.000
  22502730.791     9081876.57749   7085080.84946  22502730.294    22502736.543
       230.000         183.000
  20426425.888    -6654209.02249  -5170291.99347  20426424.810    20426430.803
       244.000         211.000
  21012347.625   -20133789.73449 -14507578.00647  21012346.595    21012351.397
       241.000         206.000
  21223084.040     1718857.98549   1350724.56347  21223083.425    21223087.964
       240.000         203.000
  22295137.719     6450963.94249   5039821.74946  22295136.578    22295144.760
       224.000         173.000
  23545402.799   -10006236.17349  -7779999.75645  23545402.707    23545409.036
       215.000         154.000
  22891639.017    -9966531.93149  -7729980.55646  22891638.848    22891645.249
       223.000         171.000
 03  3 19  1 42  0.0000000  0  8G 3G23G15G14G18G17G 9G31
  21654787.795   -16906230.37049 -13134969.90447  21654787.592    21654793.955
       237.000         197.000
  22513733.375     9139695.10149   7130134.24446  22513732.827    22513738.824
       229.000         183.000
  20430955.891    -6630403.57849  -5151742.27847  20430955.004    20430960.885
       244.000         211.000
  20999843.636   -20199498.17849 -14558779.30847  20999842.761    20999847.391
       241.000         206.000
  21231795.335     1764636.36649   1386396.02547  21231794.974    21231799.222
       241.000         203.000
  22307935.186     6518214.71349   5092224.91646  22307935.018    22307941.548
       225.000         173.000
  23542156.720   -10023294.07149  -7793291.55245  23542156.104    23542163.547
       215.000         155.000
  22881664.653   -10018947.35949  -7770823.67946  22881664.423    22881669.781
       223.000         171.000
 03  3 19  1 42 30.0000000  0  8G 3G23G15G14G18G17G 9G31
  21654445.230   -16908030.35549 -13136372.47247  21654445.020    21654450.935
       237.000         197.000
  22524743.394     9197553.30349   7175218.56746  22524742.585    22524748.966
       229.000         182.000
  20435560.361    -6606206.95549  -5132887.74347  20435559.547    20435565.674
       244.000         211.000
  20987428.971   -20264737.48549 -14609615.06047  20987428.176    20987433.116
       241.000         206.000
  21240537.563     1810577.20149   1422194.08447  21240537.132    21240541.810
       241.000         203.000
  22320791.437     6585774.58549   5144868.96146  22320790.748    22320798.233
       223.000         172.000
  23539012.908   -10039814.70249  -7806164.69945  23539012.481    23539019.377
       215.000         154.000
  22871787.165   -10070853.72549  -7811270.12546  22871786.202    22871792.751
       223.000         170.000
 03  3 19  1 43  0.0000000  0  8G 3G23G15G14G18G17G 9G31
  21654209.999   -16909266.36049 -13137335.57947  21654209.743    21654216.021
       237.000         197.000
  22535760.996     9255451.29249   7220333.89146  22535760.198    22535766.955
       229.000         182.000
  20440239.530    -6581617.59049  -5113727.17547  20440238.887    20440244.564
       244.000         211.000
  20975104.027   -20329505.01049 -14660083.20547  20975103.558    20975107.962
       241.000         206.000
  21249310.730     1856680.24949   1458118.53747  21249310.289    21249314.873
       241.000         203.000
  22333706.540     6653643.98149   5197754.17846  22333706.197    22333713.290
       223.000         172.000
  23535971.710   -10055795.89249  -7818617.50645  23535971.656    23535979.102
       215.000         155.000
  22862007.004   -10122248.62749  -7851318.02846  22862006.162    22862012.616
       222.000         170.000
 03  3 19  1 43 30.0000000  0  8G 3G23G15G14G18G17G 9G31
  21654082.186   -16909937.96449 -13137858.89447  21654081.731    21654088.182
       237.000         197.000
  22546786.131     9313388.94249   7265480.12046  22546785.635    22546792.043
       229.000         182.000
  20444993.630    -6556634.49649  -5094259.80247  20444992.816    20444998.655
       244.000         211.000
  20962869.283   -20393798.84449 -14710182.23847  20962868.578    20962873.233
       242.000         207.000
  21258114.576     1902944.84749   1494168.87147  21258114.114    21258118.613
       241.000         203.000
  22346680.604     6721823.37849   5250880.94846  22346679.805    22346687.305
       223.000         171.000
  23533033.647   -10071235.53749  -7830648.32945  23533033.180    23533041.092
       215.000         155.000
  22852324.571   -10173129.90749  -7890965.71446  22852324.005    22852329.795
       223.000         170.000
 03  3 19  1 44  0.0000000  0  8G 3G23G15G14G18G17G 9G31
  21654061.645   -16910045.90849 -13137942.99247  21654061.435    21654067.221
       237.000         197.000
  22557818.576     9371365.00949   7310656.27946  22557817.908    22557824.612
       229.000         182.000
  20449822.688    -6531257.62749  -5074485.59647  20449821.963    20449827.732
       244.000         211.000
  20950724.819   -20457618.02649 -14759911.41847  20950724.076    20950728.727
       242.000         207.000
  21266948.901     1949369.58049   1530343.98847  21266948.218    21266952.786
       241.000         203.000
  22359713.584     6790311.87149   5304248.58046  22359712.803    22359720.288
       222.000         171.000
  23530198.755   -10086132.55549  -7842256.33545  23530197.413    23530205.643
       214.000         155.000
  22842740.033   -10223496.58549  -7930212.40246  22842739.940    22842745.286
       223.000         170.000
 03  3 19  1 44 30.0000000  0  8G 3G23G15G14G18G17G 9G31
  21654148.322   -16909590.43349 -13137588.06047  21654147.925    21654154.119
       238.000         197.000
  22568858.270     9429378.99549   7355861.98646  22568857.675    22568864.019
       229.000         182.000
  20454726.782    -6505486.28249  -5054404.01047  20454725.998    20454731.923
       244.000         211.000
  20938671.082   -20520960.57749 -14809269.19047  20938670.530    20938675.228
       242.000         207.000
  21275813.655     1995954.13149   1566643.64047  21275813.021    21275817.840
       241.000         203.000
  22372805.278     6859109.10249   5357856.78346  22372804.770    22372812.901
       222.000         171.000
  23527467.478   -10100485.50049  -7853440.37745  23527466.034    23527475.319
       214.000         154.000
  22833253.722   -10273346.95249  -7969056.77346  22833252.798    22833259.792
       222.000         170.000
 03  3 19  1 45  0.0000000  0  8G 3G23G15G14G18G17G 9G31
  21654342.156   -16908571.74249 -13136794.25547  21654341.831    21654347.627
       238.000         197.000
  22579905.092     9487430.46649   7401096.91046  22579904.727    22579910.453
       229.000         181.000
  20459706.046    -6479319.98549  -5034014.67047  20459705.311    20459711.114
       244.000         211.000
  20926708.287   -20583825.14649 -14858254.51147  20926707.522    20926712.211
       242.000         207.000
  21284708.532     2042697.11249   1603066.74947  21284708.043    21284712.395
       241.000         203.000
  22385955.670     6928214.74149   5411705.30846  22385955.016    22385962.564
       223.000         171.000
  23524839.924   -10114292.85949  -7864199.29045  23524839.013    23524847.121
       214.000         155.000
  22823865.950   -10322679.35349  -8007497.53046  22823865.007    22823871.590
       223.000         171.000
 03  3 19  1 45 30.0000000  0  8G 3G23G15G14G18G17G 9G31
  21654643.209   -16906989.82949 -13135561.57447  21654642.703    21654648.962
       238.000         197.000
  22590958.962     9545518.86749   7446360.60646  22590958.345    22590964.166
       230.000         181.000
  20464760.681    -6452757.63949  -5013316.72547  20464759.932    20464765.721
       244.000         211.000
  20914836.808   -20646210.00949 -14906866.03747  20914836.250    20914840.680
       243.000         208.000
  21293633.460     2089597.91649   1639612.83147  21293633.015    21293637.755
       240.000         203.000
  22399164.825     6997629.01749   5465794.32046  22399164.321    22399171.142
       223.000         170.000
  23522316.564   -10127552.98249  -7874531.79045  23522315.840    23522323.756
       214.000         155.000
  22814577.159   -10371492.10649  -8045533.38346  22814576.058    22814583.178
       223.000         171.000
 03  3 19  1 46  0.0000000  0  8G 3G23G15G14G18G17G 9G31
  21655051.246   -16904845.61149 -13133890.73647  21655050.960    21655056.928
       238.000         197.000
  22602019.686     9603643.29649   7491652.37846  22602018.558    22602025.077
       229.000         181.000
  20469890.659    -6425799.32749  -4992310.23347  20469889.740    20469895.735
       244.000         211.000
  20903056.811   -20708114.03349 -14955102.88347  20903056.205    20903060.857
       244.000         208.000
  21302588.137     2136655.16949   1676280.82047  21302587.665    21302592.185
       240.000         203.000
  22412432.577     7067351.51849   5520123.52046  22412431.936    22412439.317
       222.000         170.000
  23519897.568   -10140264.71049  -7884436.96245  23519897.204    23519905.011
       217.000         156.000
  22805387.412   -10419783.99949  -8083163.36146  22805386.819    22805392.655
       224.000         172.000
 03  3 19  1 46 30.0000000  0  8G 3G23G15G14G18G17G 9G31
  21655566.199   -16902139.40049 -13131781.97647  21655565.674    21655571.707
       237.000         197.000
  22613087.142     9661803.24049   7536971.82346  22613086.836    22613093.403
       229.000         181.000
  20475096.133    -6398444.33349  -4970994.63647  20475095.336    20475101.050
       244.000         211.000
  20891368.633   -20769535.71149 -15002963.87347  20891368.107    20891372.620
       244.000         208.000
  21311572.445     2183868.08649   1713070.10847  21311571.786    21311576.581
       241.000         203.000
  22425758.878     7137381.63949   5574692.41746  22425758.281    22425766.105
       222.000         170.000
  23517583.244   -10152426.67049  -7893913.74645  23517582.746    23517589.964
       216.000         157.000
  22796297.171   -10467553.54449  -8120386.32346  22796296.093    22796302.897
       223.000         172.000
 03  3 19  1 47  0.0000000  0  8G 3G23G15G14G18G17G 9G31
  21656188.039   -16898871.47249 -13129235.51847  21656187.863    21656193.946
       238.000         197.000
  22624161.214     9719997.99349   7582318.39246  22624160.480    22624166.503
       229.000         181.000
  20480377.196    -6370692.19049  -4949369.57147  20480376.510    20480382.066
       244.000         210.000
  20879772.482   -20830473.59649 -15050447.88247  20879771.955    20879776.396
       244.000         208.000
  21320586.170     2231235.41349   1749979.71547  21320585.886    21320590.067
       241.000         203.000
  22439143.756     7207719.27949   5629500.94646  22439143.264    22439150.903
       223.000         170.000
  23515373.720   -10164037.55749  -7902961.12345  23515373.156    23515381.012
       216.000         157.000
  22787306.591   -10514799.22649  -8157201.08346  22787305.976    22787311.927
       223.000         172.000
 03  3 19  1 47 30.0000000  0  8G 3G23G15G14G18G17G 9G31
  21656916.767   -16895042.01149 -13126251.50147  21656916.599    21656922.236
       238.000         197.000
  22635241.855     9778227.10849   7627691.73146  22635240.719    22635247.696
       228.000         180.000
  20485733.921    -6342542.24649  -4927434.53247  20485732.962    20485738.893
       244.000         210.000
  20868268.710   -20890926.22949 -15097553.77247  20868267.839    20868272.603
       244.000         208.000
  21329629.135     2278756.49849   1787009.13747  21329628.615    21329633.290
       241.000         203.000
  22452587.035     7278363.96349   5684548.71646  22452586.378    22452594.403
       222.000         170.000
  23513269.297   -10175096.06249  -7911578.07445  23513269.182    23513275.290
       216.000         157.000
  22778416.016   -10561519.63649  -8193606.54446  22778415.091    22778422.278
       223.000         172.000
 03  3 19  1 48  0.0000000  0  8G 3G23G15G14G18G17G 9G31
  21657752.195   -16890651.74749 -13122830.49547  21657752.000    21657757.814
       237.000         197.000
  22646328.949     9836490.06849   7673091.45446  22646327.764    22646334.491
       229.000         181.000
  20491166.442    -6313994.02649  -4905189.15147  20491165.741    20491171.527
       244.000         210.000
  20856857.538   -20950892.06549 -15144280.34547  20856857.138    20856861.156
       244.000         209.000
  21338701.238     2326430.63749   1824157.81747  21338700.995    21338705.459
       241.000         202.000
  22466088.692     7349315.59249   5739835.67646  22466088.491    22466095.133
       222.000         169.000
  23511270.336   -10185600.75549  -7919763.48645  23511269.717    23511277.001
       216.000         157.000
  22769625.629   -10607713.10249  -8229601.40646  22769624.817    22769630.664
       224.000         173.000
 03  3 19  1 48 30.0000000  0  8G 3G23G15G14G18G17G 9G31
  21658694.305   -16885700.95649 -13118972.71947  21658693.768    21658699.652
       238.000         197.000
  22657422.398     9894786.47549   7718517.22746  22657422.033    22657427.994
       230.000         180.000
  20496674.830    -6285047.15149  -4882633.12947  20496674.068    20496679.747
       244.000         210.000
  20845539.321   -21010369.42449 -15190626.28047  20845538.654    20845543.154
       244.000         209.000
  21347802.301     2374256.97849   1861425.09447  21347801.764    21347806.313
       240.000         202.000
  22479648.684     7420573.80349   5795361.52746  22479648.193    22479656.159
       221.000         169.000
  23509376.960   -10195549.97749  -7927516.04645  23509375.928    23509383.758
       215.000         157.000
  22760935.849   -10653378.12949  -8265184.49546  22760934.433    22760941.703
       224.000         173.000
 03  3 19  1 49  0.0000000  0  8G 3G23G15G14G18G17G 9G31
  21659742.971   -16880190.08649 -13114678.51547  21659742.802    21659748.696
       237.000         197.000
  22668522.075     9953115.62949   7763968.52746  22668521.669    22668527.614
       229.000         180.000
  20502259.210    -6255701.14049  -4859766.08947  20502258.512    20502264.342
       244.000         210.000
  20834314.273   -21069357.11949 -15236590.66047  20834313.495    20834318.162
       244.000         209.000
  21356932.100     2422234.51649   1898810.19247  21356931.134    21356936.304
       241.000         202.000
  22493267.012     7492138.52149   5851126.21846  22493266.386    22493274.381
       221.000         169.000
  23507589.434   -10204942.66249  -7934834.93045  23507588.775    23507595.363
       215.000         156.000
  22752346.863   -10698513.43849  -8300354.81046  22752346.518    22752352.896
       224.000         173.000
 03  3 19  1 49 30.0000000  0  8G 3G23G15G14G18G17G 9G31
  21660898.049   -16874120.08649 -13109948.62347  21660897.483    21660903.577
       237.000         197.000
  22679627.779    10011476.66449   7809444.66146  22679627.001    22679633.751
       228.000         180.000
  20507919.572    -6225955.64749  -4836587.76947  20507918.923    20507924.373
       244.000         210.000
  20823182.612   -21127854.14149 -15282172.70147  20823181.961    20823186.411
       244.000         209.000
  21366090.436     2470361.95749   1936312.09847  21366089.854    21366094.512
       241.000         202.000
  22506943.470     7564008.82949   5907129.02746  22506942.918    22506950.640
       221.000         168.000
  23505908.077   -10213777.81949  -7941719.40145  23505907.989    23505914.722
       216.000         156.000
  22743858.874   -10743117.92849  -8335111.50546  22743857.775    22743863.932
       225.000         173.000
 03  3 19  1 50  0.0000000  0  8G 3G23G15G14G18G17G 9G31
  21662159.247   -16867492.14449 -13104783.97647  21662158.949    21662165.031
       237.000         197.000
  22690739.373    10069868.33449   7854944.67046  22690738.838    22690745.256
       228.000         180.000
  20513655.942    -6195810.81349  -4813098.27847  20513655.092    20513660.805
       244.000         210.000
  20812144.474   -21185859.70149 -15327371.78547  20812143.843    20812148.311
       243.000         209.000
  21375277.017     2518637.68049   1973929.54547  21375276.544    21375281.122
       241.000         202.000
  22520677.938     7636183.71949   5963369.17946  22520677.399    22520684.734
       220.000         168.000
  23504332.907   -10222055.20849  -7948169.24945  23504332.549    23504340.108
       216.000         156.000
  22735472.068   -10787190.79549  -8369453.95546  22735471.680    22735477.534
       225.000         174.000
 03  3 19  1 50 30.0000000  0  8G 3G23G15G14G18G17G 9G31
  21663526.758   -16860305.80249 -13099184.21547  21663526.003    21663532.407
       237.000         197.000
  22701856.867    10128291.32849   7900469.07946  22701856.372    22701862.570
       228.000         180.000
  20519468.583    -6165265.06049  -4789296.38647  20519467.708    20519473.471
       244.000         210.000
  20801200.323   -21243371.42249 -15372186.05647  20801199.889    20801204.284
       243.000         209.000
  21384491.888     2567062.13249   2011662.88447  21384491.385    21384496.056
       240.000         202.000
  22534470.505     7708664.00549   6019847.29046  22534470.011    22534477.311
       221.000         167.000
  23502864.376   -10229772.29549  -7954182.49445  23502863.506    23502871.883
       213.000         156.000
  22727186.857   -10830729.64649  -8403380.28446  22727186.616    22727192.933
       225.000         174.000
 03  3 19  1 51  0.0000000  0  8G 3G23G15G14G18G17G 9G31
  21665000.388   -16852561.48649 -13093149.66447  21664999.813    21665006.286
       237.000         197.000
  22712980.294    10186745.27449   7946017.61946  22712979.212    22712986.316
       228.000         179.000
  20525357.583    -6134318.05349  -4765181.82847  20525356.861    20525362.772
       243.000         210.000
  20790350.429   -21300387.70849 -15416614.27947  20790349.710    20790354.242
       243.000         209.000
  21393734.922     2615634.65449   2049511.60347  21393734.526    21393738.948
       240.000         202.000
  22548321.091     7781449.11049   6076562.92946  22548320.153    22548327.581
       219.000         167.000
  23501502.659   -10236927.73149  -7959758.08245  23501502.239    23501509.888
       215.000         157.000
  22719003.562   -10873733.00449  -8436889.34146  22719003.151    22719008.896
       225.000         174.000
 03  3 19  1 51 30.0000000  0  8G 3G23G15G14G18G17G 9G31
  21666580.099   -16844260.06749 -13086681.01447  21666579.689    21666585.920
       237.000         197.000
  22724109.423    10245229.16249   7991589.47646  22724108.767    22724114.026
       228.000         179.000
  20531322.946    -6102969.79249  -4740754.60747  20531322.071    20531328.172
       243.000         209.000
  20779594.976   -21356907.86049 -15460655.90247  20779594.476    20779598.952
       243.000         209.000
  21403005.828     2664353.65749   2087474.46547  21403005.578    21403010.030
       241.000         201.000
  22562229.534     7854538.65849   6133515.79646  22562228.364    22562236.988
       219.000         167.000
  23500247.991   -10243520.84849  -7964895.49645  23500247.397    23500254.895
       215.000         156.000
  22710922.295   -10916200.03449  -8469980.47746  22710921.136    22710928.111
       227.000         175.000
 03  3 19  1 52  0.0000000  0  8G 3G23G15G14G18G17G 9G31
  21668265.654   -16835402.28549 -13079778.83747  21668265.422    21668271.350
       238.000         197.000
  22735244.133    10303742.58349   8037184.35346  22735244.318    22735250.427
       228.000         179.000
  20537364.781    -6071219.67849  -4716014.25547  20537363.969    20537369.788
       243.000         209.000
  20768934.157   -21412930.62049 -15504309.95147  20768933.586    20768937.895
       243.000         210.000
  21412304.470     2713218.39749   2125550.89147  21412304.000    21412308.394
       240.000         201.000
  22576195.937     7927932.44649   6190705.73646  22576194.616    22576201.890
       220.000         167.000
  23499100.513   -10249550.55749  -7969593.90045  23499099.822    23499107.509
       216.000         156.000
  22702943.407   -10958129.35649  -8502652.62446  22702942.460    22702949.067
       226.000         176.000
 03  3 19  1 52 30.0000000  0  8G 3G23G15G14G18G17G 9G31
  21670056.837   -16825989.41549 -13072444.11947  21670056.622    21670062.465
       237.000         197.000
  22746384.308    10362284.53249   8082801.46046  22746384.066    22746390.590
       227.000         179.000
  20543483.096    -6039067.71149  -4690960.77147  20543482.313    20543488.025
       243.000         209.000
  20758368.173   -21468454.97049 -15547575.62447  20758367.641    20758372.044
       243.000         210.000
  21421630.671     2762227.82249   2163740.05547  21421630.154    21421634.811
       240.000         201.000
  22590219.993     8001629.04649   6248131.64246  22590219.806    22590226.896
       220.000         166.000
  23498060.371   -10255016.26549  -7973852.82545  23498060.231    23498067.359
       215.000         155.000
  22695066.994   -10999520.18649  -8534905.15446  22695065.713    22695072.534
       226.000         176.000
 03  3 19  1 53  0.0000000  0  8G 3G23G15G14G18G17G 9G31
  21671953.786   -16816020.88549 -13064676.42847  21671953.169    21671959.511
       238.000         197.000
  22757529.917    10420855.48049   8128441.16546  22757529.390    22757535.908
       228.000         179.000
  20549678.088    -6006512.67949  -4665593.21047  20549677.404    20549682.946
       243.000         209.000
  20747897.434   -21523478.98449 -15590451.42747  20747896.730    20747901.312
       242.000         210.000
  21430984.336     2811381.84749   2202041.89847  21430983.649    21430988.397
       240.000         200.000
  22604301.765     8075629.04349   6305793.95546  22604301.238    22604308.780
       220.000         166.000
  23497127.929   -10259915.88349  -7977670.65145  23497127.187    23497134.468
       214.000         156.000
  22687293.393   -11040370.42449  -8566736.44846  22687293.024    22687298.873
       227.000         176.000
 03  3 19  1 53 30.0000000  0  8G 3G23G15G14G18G17G 9G31
  21673956.186   -16805498.24949 -13056476.96747  21673955.873    21673961.812
       238.000         197.000
  22768680.924    10479454.26149   8174102.55946  22768680.680    22768686.219
       227.000         178.000
  20555949.709    -5973555.05749  -4639911.94447  20555948.913    20555954.755
       243.000         209.000
  20737522.008   -21578001.99649 -15632936.83847  20737521.213    20737526.007
       242.000         210.000
  21440365.241     2860678.95849   2240455.23447  21440364.694    21440369.235
       240.000         200.000
  22618441.067     8149931.61149   6363692.02746  22618440.499    22618448.299
       219.000         166.000
  23496303.238   -10264249.23149  -7981047.21945  23496302.698    23496310.299
       215.000         155.000
  22679622.749   -11080679.56149  -8598146.09046  22679622.414    22679628.172
       225.000         176.000
 03  3 19  1 54  0.0000000  0  8G 3G23G15G14G18G17G 9G31
  21676063.950   -16794421.93649 -13047846.07147  21676063.593    21676069.684
       237.000         197.000
  22779837.179    10538080.61249   8219785.42946  22779836.737    22779843.239
       227.000         178.000
  20562298.108    -5940194.11549  -4613916.40047  20562297.288    20562303.213
       243.000         209.000
  20727242.193   -21632022.54049 -15675030.71947  20727241.389    20727246.005
       242.000         210.000
  21449773.298     2910118.57849   2278979.62247  21449772.901    21449777.122
       240.000         200.000
  22632637.878     8224536.48649   6421825.67246  22632637.291    22632644.913
       219.000         166.000
  23495586.571   -10268015.02049  -7983981.51445  23495585.924    23495593.422
       216.000         155.000
  22672055.356   -11120446.05149  -8629132.91046  22672054.603    22672060.789
       225.000         176.000
 03  3 19  1 54 30.0000000  0  8G 3G23G15G14G18G17G 9G31
  21678276.767   -16782793.40249 -13038784.87747  21678276.362    21678282.311
       238.000         197.000
  22790998.474    10596733.72149   8265489.15446  22790997.621    22791003.659
       227.000         178.000
  20568723.232    -5906429.86749  -4587606.59147  20568722.350    20568728.252
       243.000         209.000
  20717058.176   -21685539.68649 -15716732.34547  20717057.589    20717061.895
       242.000         210.000
  21459208.177     2959699.20349   2317613.88147  21459207.700    21459212.290
       240.000         200.000
  22646891.989     8299442.41649   6480193.88946  22646891.913    22646898.411
       219.000         165.000
  23494978.051   -10271212.49449  -7986472.98845  23494978.275    23494984.295
       215.000         156.000
  22664591.410   -11159669.06049  -8659696.23146  22664591.000    22664597.019
       225.000         176.000
 03  3 19  1 55  0.0000000  0  8G 3G23G15G14G18G17G 9G31
  21680594.678   -16770612.72149 -13029293.43747  21680594.537    21680600.423
       238.000         197.000
  22802164.901    10655413.72549   8311213.84946  22802164.620    22802170.877
       226.000         178.000
  20575225.269    -5872261.38949  -4560981.79547  20575224.578    20575230.396
       243.000         209.000
  20706970.224   -21738552.07249 -15758040.64647  20706969.513    20706973.980
       242.000         210.000
  21468669.890     3009420.77549   2356357.97347  21468669.329    21468674.040
       240.000         200.000
  22661203.487     8374649.80649   6538797.02646  22661202.926    22661210.124
       218.000         165.000
  23494477.915   -10273840.34449  -7988520.59345  23494477.562    23494484.363
       216.000         156.000
  22657231.224   -11198346.98249  -8689834.81246  22657231.275    22657236.596
       226.000         176.000
 03  3 19  1 55 30.0000000  0  8G 3G23G15G14G18G17G 9G31
  21683017.539   -16757880.59149 -13019372.29547  21683017.070    21683023.168
       238.000         197.000
  22813336.352    10714120.17849   8356959.14246  22813335.247    22813341.381
       226.000         177.000
  20581804.294    -5837688.24249  -4534041.67647  20581803.374    20581809.297
       243.000         209.000
  20696978.555   -21791058.48049 -15798954.68147  20696977.940    20696982.233
       242.000         210.000
  21478158.249     3059282.52449   2395211.29147  21478157.731    21478162.319
       240.000         200.000
  22675572.233     8450157.97849   6597634.55246  22675571.978    22675579.456
       220.000         165.000
  23494086.398   -10275897.60649  -7990123.59745  23494085.793    23494093.558
       214.000         156.000
  22649974.971   -11236478.66049  -8719547.74646  22649973.959    22649980.229
       226.000         176.000
 03  3 19  1 56  0.0000000  0  8G 3G23G15G14G18G17G 9G31
  21685545.094   -16744598.25149 -13009022.41647  21685544.770    21685550.755
       238.000         197.000
  22824512.694    10772852.24549   8402724.39846  22824511.899    22824518.217
       227.000         177.000
  20588460.336    -5802710.60749  -4506786.37047  20588459.576    20588465.284
       242.000         209.000
  20687083.342   -21843058.03449 -15839473.76447  20687082.751    20687087.189
       242.000         211.000
  21487673.093     3109283.23349   2434172.89047  21487672.574    21487677.166
       240.000         199.000
  22689998.134     8525966.13349   6656705.81546  22689997.212    22690005.053
       219.000         165.000
  23493803.545   -10277383.77449  -7991281.56145  23493803.748    23493809.824
       217.000         156.000
  22642822.760   -11274063.35549  -8748834.45846  22642822.110    22642829.039
       225.000         176.000
 03  3 19  1 56 30.0000000  0  8G 3G23G15G14G18G17G 9G31
  21688177.100   -16730766.78949 -12998244.65447  21688176.918    21688182.779
       237.000         197.000
  22835693.768    10831609.25549   8448509.09246  22835692.809    22835699.108
       226.000         177.000
  20595193.280    -5767328.60949  -4479215.98047  20595192.495    20595198.160
       243.000         208.000
  20677284.733   -21894549.85449 -15879597.21347  20677284.124    20677288.454
       242.000         211.000
  21497214.131     3159421.80849   2473241.91647  21497213.589    21497218.421
       240.000         199.000
  22704480.981     8602073.88949   6716010.52646  22704480.305    22704487.514
       219.000         165.000
  23493629.539   -10278298.12149  -7991993.98845  23493629.299    23493636.221
       216.000         157.000
  22635774.795   -11311100.16249  -8777694.24946  22635773.960    22635780.147
       226.000         176.000
 03  3 19  1 57  0.0000000  0  8G 3G23G15G14G18G17G 9G31
  21690913.530   -16716386.63149 -12987039.33247  21690912.824    21690919.129
       237.000         197.000
  22846879.579    10890391.38849   8494313.35646  22846878.485    22846885.513
       226.000         176.000
  20602003.389    -5731541.07049  -4451329.58647  20602002.760    20602008.447
       243.000         208.000
  20667583.099   -21945532.16249 -15919323.63847  20667582.330    20667586.866
       241.000         211.000
  21506781.464     3209698.26749   2512418.38847  21506780.746    21506785.408
       240.000         199.000
  22719020.722     8678480.65349   6775548.24146  22719020.120    22719027.594
       218.000         164.000
  23493564.578   -10278639.17249  -7992259.68645  23493564.604    23493570.845
       215.000         156.000
  22628831.429   -11347587.41249  -8806125.81346  22628831.006    22628837.206
       226.000         177.000
 03  3 19  1 57 30.0000000  0  8G 3G23G15G14G18G17G 9G31
  21693754.190   -16701458.84649 -12975407.29447  21693753.957    21693760.107
       238.000         197.000
  22858070.050    10949197.86949   8540136.60246  22858069.348    22858075.754
       226.000         176.000
  20608890.750    -5695347.91249  -4423127.11447  20608890.042    20608895.580
       243.000         208.000
  20657978.461   -21996004.49849 -15958652.68447  20657977.909    20657982.159
       242.000         211.000
  21516374.757     3260111.38149   2551701.34747  21516374.194    21516378.770
       241.000         199.000
  22733617.299     8755186.02549   6835318.63546  22733617.314    22733624.294
       218.000         164.000
  23493608.832   -10278406.32549  -7992078.18045  23493607.804    23493614.825
       215.000         154.000
  22621992.817   -11383524.40749  -8834128.62046  22621991.511    22621998.733
       227.000         177.000
 03  3 19  1 58  0.0000000  0  8G 3G23G15G14G18G17G 9G31
  21696698.937   -16685984.25249 -12963349.16647  21696698.758    21696704.558
       237.000         197.000
  22869265.126    11008028.25849   8585978.47146  22869264.707    22869271.107
       226.000         176.000
  20615855.275    -5658748.98049  -4394608.46747  20615854.401    20615860.481
       243.000         208.000
  20648471.117   -22045965.81849 -15997583.53547  20648470.561    20648474.865
       242.000         211.000
  21525993.898     3310660.34149   2591090.15447  21525993.425    21525997.848
       240.000         199.000
  22748270.601     8832189.58849   6895321.38146  22748270.210    22748277.345
       217.000         163.000
  23493762.368   -10277598.91549  -7991448.96745  23493761.597    23493768.390
       215.000         154.000
  22615259.080   -11418910.15049  -8861701.86246  22615258.592    22615264.029
       226.000         177.000
 03  3 19  1 58 30.0000000  0  8G 3G23G15G14G18G17G 9G31
  21699747.537   -16669963.65249 -12950865.57047  21699746.838    21699753.177
       238.000         197.000
  22880464.644    11066882.31249   8631838.78546  22880464.024    22880470.675
       226.000         176.000
  20622897.074    -5621744.00049  -4365773.41247  20622896.316    20622902.246
       242.000         208.000
  20639061.231   -22095414.78649 -16036115.15047  20639060.706    20639064.976
       241.000         211.000
  21535638.740     3361344.39649   2630584.23447  21535638.138    21535642.676
       240.000         199.000
  22762980.450     8909490.58149   6955555.92045  22762979.707    22762987.389
       218.000         162.000
  23494025.481   -10276216.04349  -7990371.33545  23494024.995    23494032.372
       215.000         154.000
  22608630.436   -11453743.50549  -8888844.68146  22608629.941    22608636.214
       227.000         177.000
 03  3 19  1 59  0.0000000  0  8G 3G23G15G14G18G17G 9G31
  21702899.797   -16653398.48849 -12937957.64547  21702899.305    21702905.295
       237.000         197.000
  22891668.622    11125759.47349   8677717.10746  22891668.288    22891674.154
       226.000         176.000
  20630016.186    -5584332.76849  -4336621.80047  20630015.248    20630021.071
       242.000         208.000
  20629748.977   -22144350.80049 -16074247.06447  20629748.342    20629752.585
       242.000         211.000
  21545309.154     3412162.81149   2670183.00147  21545308.693    21545313.453
       239.000         199.000
  22777746.847     8987088.45949   7016021.77345  22777746.734    22777754.031
       219.000         162.000
  23494398.148   -10274257.31649  -7988845.00245  23494398.027    23494405.012
       214.000         155.000
  22602107.102   -11488023.74449  -8915556.50246  22602106.038    22602112.491
       227.000         177.000
 03  3 19  1 59 30.0000000  0  8G 3G23G15G14G18G17G 9G31
  21706155.481   -16636289.57949 -12924626.02147  21706155.022    21706161.402
       238.000         196.000
  22902876.944    11184659.55349   8723613.28146  22902876.119    22902882.133
       226.000         176.000
  20637212.669    -5546514.93649  -4307153.35847  20637211.766    20637217.504
       242.000         207.000
  20620534.580   -22192772.51549 -16111978.22247  20620534.041    20620538.158
       241.000         211.000
  21555005.002     3463114.87349   2709885.91547  21555004.641    21555008.964
       240.000         199.000
  22792569.676     9064982.59349   7076718.48845  22792569.552    22792576.328
       217.000         162.000
  23494880.645   -10271721.69049  -7986869.12845  23494880.123    23494886.072
       215.000         155.000
  22595689.200   -11521749.70249  -8941836.42246  22595688.380    22595694.549
       227.000         177.000
 03  3 19  2  0  0.0000000  0  8G 3G23G15G14G18G17G 9G31
  21709514.508   -16618637.72649 -12910871.32947  21709514.526    21709520.188
       237.000         196.000
  22914089.556    11243582.19749   8769527.05246  22914088.417    22914095.460
       226.000         176.000
  20644486.597    -5508290.14549  -4277367.82247  20644485.840    20644491.612
       242.000         207.000
  20611418.259   -22240679.03649 -16149307.93547  20611417.563    20611421.862
       241.000         211.000
  21564726.188     3514200.04349   2749692.54147  21564725.531    21564730.118
       240.000         198.000
  22807448.786     9143172.72649   7137645.83845  22807448.612    22807455.688
       218.000         161.000
  23495473.061   -10268608.39449  -7984443.12945  23495472.273    23495480.022
       214.000         155.000
  22589377.005   -11554920.25649  -8967683.55746  22589376.520    22589383.204
       227.000         177.000
 03  3 19  2  0 30.0000000  0  8G 3G23G15G14G18G17G 9G31
  21712976.619   -16600444.30549 -12896694.62947  21712976.349    21712982.434
       237.000         196.000
  22925306.292    11302526.87349   8815457.97446  22925305.481    22925311.641
       226.000         175.000
  20651837.969    -5469658.47049  -4247265.24747  20651837.171    20651843.156
       242.000         207.000
  20602400.114   -22288069.52349 -16186235.54047  20602399.656    20602403.834
       242.000         211.000
  21574472.483     3565417.16549   2789601.99647  21574471.934    21574476.547
       239.000         198.000
  22822384.075     9221658.06249   7198803.21945  22822383.463    22822390.855
       217.000         161.000
  23496175.487   -10264916.96549  -7981566.63245  23496175.166    23496182.006
       215.000         155.000
  22583170.658   -11587534.83949  -8993097.47646  22583169.977    22583175.524
       228.000         177.000
 03  3 19  2  1  0.0000000  0  8G 3G23G15G14G18G17G 9G31
  21716541.335   -16581711.36049 -12882097.52547  21716541.061    21716547.339
       237.000         196.000
  22936527.042    11361491.96249   8861404.81846  22936525.993    22936532.807
       226.000         175.000
  20659266.556    -5430621.11649  -4216846.56347  20659265.908    20659271.669
       242.000         207.000
  20593480.076   -22334944.47449 -16222761.43047  20593479.361    20593483.652
       241.000         211.000
  21584243.526     3616764.34449   2829612.79647  21584242.980    21584247.369
       239.000         198.000
  22837375.248     9300436.85249   7260189.27045  22837375.634    22837382.580
       217.000         160.000
  23496987.800   -10260647.91349  -7978240.02745  23496987.304    23496994.315
       215.000         154.000
  22577070.057   -11619593.68249  -9018078.34046  22577069.770    22577075.832
       228.000         177.000
 03  3 19  2  1 30.0000000  0  8G 3G23G15G14G18G17G 9G31
  21720208.797   -16562438.59749 -12867079.77047  21720208.513    21720214.768
       237.000         196.000
  22947751.813    11420478.72149   8907368.54146  22947752.022    22947756.820
       227.000         174.000
  20666772.693    -5391176.18949  -4186110.27847  20666771.872    20666777.825
       242.000         207.000
  20584658.671   -22381301.01149 -16258883.36447  20584658.178    20584662.287
       241.000         211.000
  21594039.490     3668242.51849   2869725.66647  21594039.298    21594043.510
       239.000         198.000
  22852422.393     9379510.20449   7321804.84445  22852422.067    22852429.319
       217.000         160.000
  23497910.457   -10255799.13149  -7974461.70545  23497910.155    23497917.252
       214.000         155.000
  22571075.665   -11651094.37949  -9042624.29146  22571074.610    22571080.538
       228.000         177.000
 03  3 19  2  2  0.0000000  0  8G 3G23G15G14G18G17G 9G31
  21723978.767   -16542627.29449 -12851642.37747  21723978.343    21723984.355
       238.000         196.000
  22958980.580    11479486.53449   8953348.66446  22958979.699    22958986.348
       225.000         174.000
  20674356.374    -5351323.71549  -4155056.40247  20674355.482    20674361.578
       241.000         207.000
  20575936.026   -22427138.67449 -16294600.98147  20575935.416    20575939.518
       242.000         212.000
  21603860.145     3719850.64049   2909939.80147  21603859.659    21603863.931
       239.000         197.000
  22867525.400     9458876.97149   7383649.05945  22867524.202    22867532.044
       217.000         159.000
  23498943.449   -10250370.25249  -7970231.33945  23498942.671    23498949.825
       215.000         155.000
  22565187.568   -11682036.33649  -9066734.85146  22565186.986    22565193.727
       227.000         178.000
 03  3 19  2  2 30.0000000  0  8G 3G23G15G14G18G17G 9G31
  21727851.042   -16522278.31849 -12835786.02447  21727850.942    21727856.857
       238.000         196.000
  22970213.374    11538515.40849   8999345.20246  22970212.893    22970218.592
       225.000         174.000
  20682017.694    -5311063.13949  -4123684.52247  20682016.918    20682022.750
       242.000         207.000
  20567312.322   -22472456.45849 -16329913.49847  20567311.796    20567315.818
       242.000         212.000
  21613705.517     3771588.39149   2950254.94247  21613705.263    21613709.430
       239.000         197.000
  22882684.078     9538536.67349   7445721.52645  22882683.148    22882691.089
       215.000         159.000
  23500086.967   -10244360.60549  -7965548.44045  23500086.199    23500093.957
       215.000         156.000
  22559406.002   -11712418.49049  -9090409.21346  22559405.189    22559411.077
       228.000         178.000
 03  3 19  2  3  0.0000000  0  8G 3G23G15G14G18G17G 9G31
  21731825.349   -16501393.24149 -12819511.92747  21731825.260    21731831.073
       237.000         196.000
  22981450.094    11597564.63849   9045357.59946  22981449.294    22981455.580
       225.000         174.000
  20689756.666    -5270394.72749  -4091994.83447  20689756.120    20689761.805
       242.000         207.000
  20558787.600   -22517253.95049 -16364820.59247  20558786.988    20558791.315
       241.000         212.000
  21623575.314     3823454.70849   2990670.26647  21623574.521    21623578.992
       239.000         197.000
  22897898.372     9618488.58549   7508021.70445  22897897.705    22897905.832
       216.000         158.000
  23501341.134   -10237769.79049  -7960412.69345  23501341.040    23501347.486
       214.000         156.000
  22553731.087   -11742240.33349  -9113646.97046  22553730.357    22553736.071
       228.000         178.000
 03  3 19  2  3 30.0000000  0  8G 3G23G15G14G18G17G 9G31
  21735901.437   -16479973.30749 -12802821.05547  21735900.969    21735907.006
       238.000         196.000
  22992690.595    11656634.04549   9091385.71746  22992689.952    22992696.942
       225.000         174.000
  20697573.204    -5229318.46349  -4059987.34247  20697572.549    20697578.312
       243.000         207.000
  20550362.048   -22561530.16249 -16399321.49547  20550361.561    20550365.594
       242.000         212.000
  21633469.463     3875448.80249   3031185.15847  21633468.871    21633473.421
       239.000         197.000
  22913168.231     9698731.87949   7570548.91545  22913167.424    22913175.746
       215.000         158.000
  23502705.886   -10230597.40749  -7954823.76345  23502705.905    23502712.316
       215.000         155.000
  22548162.926   -11771501.09349  -9136447.51246  22548161.832    22548168.332
       228.000         178.000
 03  3 19  2  4  0.0000000  0  8G 3G23G15G14G18G17G 9G31
  21740079.027   -16458019.70449 -12785714.34047  21740078.757    21740084.592
       238.000         196.000
  23003934.863    11715723.14049   9137429.17646  23003934.268    23003941.125
       226.000         174.000
  20705467.380    -5187834.34949  -4027662.04847  20705466.564    20705472.311
       242.000         207.000
  20542035.878   -22605284.46549 -16433415.71447  20542035.215    20542039.512
       241.000         212.000
  21643387.778     3927569.94649   3071799.05147  21643387.235    21643391.868
       238.000         197.000
  22928493.372     9779265.93649   7633302.70945  22928492.845    22928500.893
       215.000         157.000
  23504181.488   -10222843.14149  -7948781.43545  23504181.364    23504188.254
       213.000         155.000
  22542701.597   -11800200.20749  -9158810.42146  22542701.023    22542706.826
       228.000         178.000
 03  3 19  2  4 30.0000000  0  8G 3G23G15G14G18G17G 9G31
  21744358.004   -16435533.56149 -12768192.66647  21744357.604    21744363.699
       237.000         196.000
  23015182.879    11774831.73549   9183487.83446  23015182.661    23015188.866
       225.000         173.000
  20713439.234    -5145941.86749  -3995018.55247  20713438.345    20713444.359
       242.000         207.000
  20533809.131   -22648516.02849 -16467102.60647  20533808.550    20533812.695
       241.000         212.000
  21653330.111     3979817.36349   3112511.33347  21653329.582    21653333.974
       238.000         196.000
  22943873.696     9860090.12249   7696282.57145  22943872.977    22943880.958
       214.000         157.000
  23505767.891   -10214506.34249  -7942285.18245  23505767.446    23505774.342
       215.000         155.000
  22537347.361   -11828336.75149  -9180734.95646  22537346.909    22537352.986
       229.000         178.000
 03  3 19  2  5  0.0000000  0  8G 3G23G15G14G18G17G 9G31
  21748738.084   -16412516.33549 -12750257.15347  21748737.662    21748743.650
       237.000         196.000
  23026434.512    11833959.47349   9229561.40946  23026433.782    23026440.038
       225.000         173.000
  20721488.804    -5103641.07649  -3962056.88847  20721488.042    20721493.821
       242.000         207.000
  20525682.019   -22691224.22749 -16500381.68247  20525681.356    20525685.452
       242.000         212.000
  21663296.338     4032190.40849   3153321.50647  21663295.702    21663300.384
       238.000         196.000
  22959309.071     9941203.51749   7759487.79045  22959308.991    22959316.763
       214.000         157.000
  23507465.247   -10205586.56249  -7935334.63845  23507464.061    23507471.277
       215.000         155.000
  22532100.283   -11855910.16349  -9202220.69046  22532099.762    22532105.935
       228.000         179.000
 03  3 19  2  5 30.0000000  0  8G 3G23G15G14G18G17G 9G31
  21753219.003   -16388968.97649 -12731908.54947  21753218.690    21753224.769
       238.000         196.000
  23037689.713    11893105.95249   9275649.57846  23037688.980    23037696.023
       225.000         173.000
  20729616.070    -5060932.06149  -3928777.13147  20729615.206    20729621.047
       242.000         206.000
  20517654.642   -22733408.26549 -16533252.32347  20517654.174    20517658.144
       242.000         212.000
  21673286.368     4084688.42149   3194229.06147  21673285.537    21673290.566
       238.000         196.000
  22974799.362    10022605.54949   7822917.92945  22974798.548    22974805.673
       216.000         156.000
  23509273.600   -10196083.56149  -7927929.65545  23509273.279    23509280.804
       216.000         156.000
  22526960.464   -11882919.77849  -9223267.10746  22526960.150    22526965.975
       228.000         179.000
 03  3 19  2  6  0.0000000  0  8G 3G23G15G14G18G17G 9G31
  21757800.493   -16364893.12249 -12713148.13847  21757800.208    21757806.219
       238.000         196.000
  23048948.410    11952270.70149   9321751.99146  23048947.985    23048953.686
       225.000         173.000
  20737820.954    -5017815.17449  -3895179.55547  20737820.406    20737825.844
       242.000         206.000
  20509727.150   -22775067.53249 -16565714.05447  20509726.552    20509730.766
       241.000         212.000
  21683299.980     4137310.35749   3235233.17947  21683299.504    21683304.224
       238.000         196.000
  22990344.391    10104295.16649   7886572.14545  22990343.866    22990351.223
       214.000         156.000
  23511192.910   -10185997.35349  -7920070.23145  23511192.610    23511199.443
       215.000         156.000
  22521928.000   -11909365.17449  -9243873.87346  22521927.264    22521933.478
       228.000         179.000
 03  3 19  2  6 30.0000000  0  8G 3G23G15G14G18G17G 9G31
  21762482.350   -16340289.66149 -12693976.60447  21762481.827    21762488.154
       237.000         196.000
  23060210.675    12011454.34649   9367869.11446  23060210.648    23060216.582
       225.000         173.000
  20746103.656    -4974289.23949  -3861263.23547  20746102.892    20746108.793
       242.000         206.000
  20501899.736   -22816200.65149 -16597765.79847  20501899.181    20501903.255
       242.000         212.000
  21693337.305     4190056.78649   3276334.30447  21693337.125    21693341.127
       238.000         196.000
  23005944.258    10186272.46849   7950450.54345  23005943.477    23005951.698
       216.000         156.000
  23513223.460   -10175326.52949  -7911755.25845  23513223.134    23513229.004
       213.000         155.000
  22517003.221   -11935244.77349  -9264039.76146  22517002.873    22517008.964
       229.000         179.000
 03  3 19  2  7  0.0000000  0  8G 3G23G15G14G18G17G 9G31
  21767264.057   -16315161.48749 -12674396.20447  21767263.817    21767269.457
       238.000         196.000
  23071476.119    12070654.78749   9413999.33146  23071475.530    23071481.873
       224.000         173.000
  20754463.883    -4930356.00749  -3827029.54647  20754463.024    20754468.946
       242.000         206.000
  20494172.253   -22856808.76049 -16629408.44547  20494171.580    20494175.684
       241.000         212.000
  21703397.786     4242924.98949   3317530.32547  21703397.051    21703401.815
       238.000         196.000
  23021598.283    10268535.12749   8014551.28845  23021598.099    23021605.710
       217.000         157.000
  23515364.949   -10164072.71849  -7902986.02145  23515364.282    23515370.370
       215.000         155.000
  22512185.960   -11960559.82049  -9283765.74246  22512185.208    22512191.940
       229.000         179.000
 03  3 19  2  7 30.0000000  0  8G 3G23G15G14G18G17G 9G31
  21772145.670   -16289508.39649 -12654406.78047  21772145.307    21772151.196
       238.000         196.000
  23082745.016    12129873.31549   9460143.64446  23082744.309    23082750.484
       224.000         172.000
  20762901.874    -4886013.90149  -3792477.25447  20762901.313    20762907.102
       242.000         206.000
  20486545.039   -22896889.76649 -16660640.36248  20486544.470    20486548.558
       241.000         213.000
  21713481.541     4295915.66449   3358821.77747  21713481.050    21713485.678
       238.000         196.000
  23037306.919    10351084.08849   8078875.12245  23037306.115    23037313.866
       215.000         157.000
  23517617.670   -10152234.17549  -7893761.14745  23517617.612    23517623.556
       214.000         154.000
  22507476.470   -11985308.37449  -9303050.29846  22507475.739    22507481.329
       228.000         179.000
 03  3 19  2  8  0.0000000  0  8G 3G23G15G14G18G17G 9G31
  21777127.074   -16263330.97649 -12634008.78447  21777126.509    21777132.827
       238.000         196.000
  23094017.443    12189110.33449   9506302.36946  23094016.625    23094023.558
       224.000         173.000
  20771417.867    -4841262.16149  -3757605.76947  20771417.127    20771422.863
       242.000         206.000
  20479018.412   -22936442.44749 -16691460.59948  20479017.881    20479021.903
       242.000         213.000
  21723588.639     4349028.97749   3400208.78547  21723588.343    21723592.758
       238.000         195.000
  23053069.903    10433918.91949   8143421.72345  23053069.592    23053077.830
       217.000         156.000
  23519981.884   -10139809.95149  -7884079.88545  23519981.536    23519988.435
       215.000         153.000
  22502874.978   -12009489.09649  -9321892.39746  22502874.404    22502880.271
       228.000         179.000
 03  3 19  2  8 30.0000000  0  8G 3G23G15G14G18G17G 9G31
  21782207.731   -16236631.91649 -12613204.31847  21782207.332    21782213.169
       237.000         196.000
  23105293.102    12248364.42749   9552474.38546  23105292.809    23105298.810
       223.000         173.000
  20780011.577    -4796102.06049  -3722416.07647  20780010.918    20780016.772
       241.000         206.000
  20471592.234   -22975467.15849 -16721869.42848  20471591.722    20471595.739
       241.000         213.000
  21733718.782     4402263.12749   3441689.95347  21733718.210    21733722.680
       238.000         195.000
  23068886.886    10517037.71949   8208189.59045  23068886.252    23068893.569
       216.000         156.000
  23522457.382   -10126800.93149  -7873942.93445  23522456.862    23522464.169
       214.000         153.000
  22498381.478   -12033102.58149  -9340292.48646  22498380.785    22498386.651
       228.000         179.000
 03  3 19  2  9  0.0000000  0  8G 3G23G15G14G18G17G 9G31
  21787387.402   -16209412.56249 -12591994.42947  21787386.876    21787393.121
       237.000         196.000
  23116571.965    12307635.45149   9598659.60946  23116571.361    23116578.306
       225.000         173.000
  20788682.943    -4750533.44749  -3686908.06647  20788682.175    20788687.901
       241.000         206.000
  20464266.632   -23013963.22549 -16751866.33148  20464265.904    20464270.183
       241.000         213.000
  21743871.878     4455617.87649   3483265.09947  21743871.341    21743875.859
       238.000         195.000
  23084757.785    10600439.95549   8273178.32645  23084757.145    23084765.060
       216.000         156.000
  23525044.218   -10113206.81149  -7863350.06645  23525044.101    23525051.009
       214.000         154.000
  22493995.969   -12056148.28649  -9358250.14746  22493995.511    22494001.228
       228.000         179.000
 03  3 19  2  9 30.0000000  0  8G 3G23G15G14G18G17G 9G31
  21792665.861   -16181674.12149 -12570380.05647  21792665.771    21792671.368
       237.000         196.000
  23127854.115    12366923.46449   9644858.06346  23127853.060    23127859.590
       224.000         173.000
  20797432.152    -4704556.16049  -3651081.61147  20797431.558    20797437.245
       241.000         206.000
  20457041.801   -23051929.87049 -16781450.69648  20457041.055    20457045.396
       241.000         213.000
  21754047.758     4509092.61149   3524933.74047  21754047.047    21754051.641
       238.000         195.000
  23100682.532    10684125.31449   8338387.66645  23100682.240    23100690.004
       215.000         156.000
  23527742.513   -10099027.07349  -7852300.83845  23527742.263    23527748.284
       215.000         154.000
  22489718.723   -12078625.34349  -9375764.71246  22489718.312    22489724.067
       228.000         179.000
 03  3 19  2 10  0.0000000  0  8G 3G23G15G14G18G17G 9G31
  21798042.732   -16153418.30549 -12548362.53347  21798042.309    21798048.712
       237.000         195.000
  23139139.321    12426227.73949   9691069.19646  23139139.497    23139145.332
       224.000         173.000
  20806258.977    -4658170.76549  -3614937.15147  20806258.227    20806264.114
       241.000         206.000
  20449917.697   -23089367.01849 -16810622.46748  20449917.147    20449921.124
       241.000         213.000
  21764246.296     4562686.20449   3566694.99647  21764245.596    21764250.221
       237.000         195.000
  23116660.963    10768092.06749   8403816.27545  23116660.789    23116668.512
       216.000         156.000
  23530552.216   -10084261.99349  -7840795.51645  23530552.338    23530558.180
       214.000         154.000
  22485549.599   -12100533.85749  -9392836.25946  22485549.338    22485555.053
       227.000         179.000
 03  3 19  2 10 30.0000000  0  8G 3G23G15G14G18G17G 9G31
  21803517.869   -16124646.33149 -12525942.81647  21803517.539    21803523.699
       237.000         195.000
  23150427.672    12485548.41849   9737293.10446  23150427.073    23150433.134
       223.000         172.000
  20815163.523    -4611377.01049  -3578474.48447  20815162.693    20815168.656
       241.000         206.000
  20442894.465   -23126274.14149 -16839381.23048  20442893.909    20442897.841
       241.000         213.000
  21774467.335     4616398.19749   3608548.51247  21774466.630    21774471.254
       238.000         195.000
  23132692.756    10852339.81549   8469463.85045  23132692.340    23132700.748
       215.000         156.000
  23533473.288   -10068911.33849  -7828833.89345  23533472.766    23533479.206
       213.000         154.000
  22481488.843   -12121873.16349  -9409464.25946  22481488.619    22481494.437
       227.000         179.000
 03  3 19  2 11  0.0000000  0  8G 3G23G15G14G18G17G 9G31
  21809090.833   -16095360.16549 -12503122.42947  21809090.321    21809096.351
       237.000         195.000
  23161719.047    12544885.11549   9783529.50346  23161718.336    23161724.373
       224.000         172.000
  20824145.804    -4564174.94349  -3541693.64847  20824144.924    20824151.004
       242.000         206.000
  20435972.241   -23162650.62749 -16867726.51148  20435971.701    20435975.568
       241.000         213.000
  21784710.800     4670228.13149   3650493.93147  21784710.029    21784714.543
       237.000         194.000
  23148777.923    10936867.73849   8535329.72945  23148776.835    23148784.332
       216.000         155.000
  23536505.724   -10052975.18049  -7816416.04245  23536505.197    23536512.828
       214.000         154.000
  22477536.497   -12142642.96749  -9425648.49646  22477535.646    22477541.504
       227.000         179.000
 03  3 19  2 11 30.0000000  0  8G 3G23G15G14G18G17G 9G31
  21814761.408   -16065561.05949 -12479902.34547  21814761.135    21814766.794
       237.000         195.000
  23173013.514    12604237.88949   9829778.42746  23173013.017    23173018.744
       223.000         172.000
  20833205.730    -4516564.68449  -3504594.74547  20833205.072    20833210.720
       242.000         206.000
  20429151.099   -23198495.86149 -16895657.82848  20429150.583    20429154.631
       241.000         213.000
  21794976.576     4724175.38949   3692530.77847  21794975.852    21794980.517
       237.000         194.000
  23164916.250    11021675.34549   8601413.55645  23164915.533    23164923.361
       217.000         155.000
  23539649.652   -10036453.39749  -7803541.86345  23539649.360    23539655.795
       214.000         155.000
  22473692.567   -12162842.66549  -9441388.49346  22473691.827    22473697.792
       228.000         179.000
 03  3 19  2 12  0.0000000  0  8G 3G23G15G14G18G17G 9G31
  21820529.314   -16035250.52149 -12456283.74447  21820529.052    21820535.031
       237.000         195.000
  23184310.917    12663606.19149   9876039.44246  23184310.096    23184316.627
       224.000         172.000
  20842343.299    -4468546.46549  -3467177.95147  20842342.237    20842348.309
       241.000         205.000
  20422431.059   -23233809.67249 -16923175.05148  20422430.466    20422434.435
       241.000         213.000
  21805264.603     4778239.19249   3734658.42247  21805263.890    21805268.438
       237.000         194.000
  23181107.622    11106761.19749   8667714.19245  23181106.364    23181115.030
       212.000         155.000
  23542905.033   -10019346.11049  -7790211.45145  23542904.776    23542910.853
       215.000         154.000
  22469957.186   -12182472.11249  -9456684.13946  22469956.533    22469962.100
       228.000         179.000
 03  3 19  2 12 30.0000000  0  8G 3G23G15G14G18G17G 9G31
  21826394.269   -16004429.95849 -12432267.71747  21826393.922    21826399.999
       237.000         195.000
  23195611.349    12722990.23949   9922312.74346  23195610.893    23195617.374
       224.000         172.000
  20851558.589    -4420119.79749  -3429442.88447  20851557.677    20851563.565
       241.000         205.000
  20415812.368   -23268591.14849 -16950277.46848  20415811.888    20415815.809
       241.000         213.000
  21815574.727     4832419.54049   3776876.88647  21815574.232    21815578.747
       237.000         193.000
  23197351.770    11192124.95849   8734231.38445  23197351.158    23197359.527
       215.000         154.000
  23546271.844   -10001653.03349  -7776424.58745  23546271.775    23546277.899
       213.000         153.000
  22466330.463   -12201530.61149  -9471534.88546  22466329.883    22466335.758
       228.000         179.000
 03  3 19  2 13  0.0000000  0  8G 3G23G15G14G18G17G 9G31
  21832355.889   -15973101.33049 -12407855.79147  21832355.595    21832361.639
       236.000         195.000
  23206914.643    12782389.61949   9968597.97146  23206914.118    23206920.441
       223.000         171.000
  20860851.507    -4371285.12849  -3391389.89647  20860850.823    20860856.615
       241.000         205.000
  20409294.891   -23302840.48949 -16976965.23548  20409294.250    20409298.365
       241.000         213.000
  21825906.888     4886715.55149   3819185.48047  21825906.519    21825910.793
       237.000         193.000
  23213648.574    11277765.31449   8800964.09645  23213648.116    23213655.472
       211.000         153.000
  23549750.148    -9983374.31149  -7762181.37245  23549749.668    23549756.204
       213.000         153.000
  22462812.437   -12220018.09849  -9485940.69046  22462811.699    22462817.369
       228.000         179.000
 03  3 19  2 13 30.0000000  0  8G 3G23G15G14G18G17G 9G31
  21838414.011   -15941265.82449 -12383048.90047  21838413.831    21838419.645
       237.000         195.000
  23218220.903    12841804.37249  10014895.19346  23218219.801    23218225.791
       224.000         171.000
  20870222.080    -4322042.35149  -3353018.90147  20870221.376    20870227.188
       241.000         205.000
  20402878.888   -23336556.69149 -17003237.56948  20402878.271    20402882.411
       241.000         213.000
  21836260.971     4941126.77049   3861583.84247  21836260.212    21836264.595
       236.000         193.000
  23229997.943    11363681.71649   8867911.92245  23229997.597    23230004.987
       213.000         152.000
  23553339.919    -9964509.70249  -7747481.62845  23553338.993    23553345.829
       213.000         153.000
  22459403.096   -12237934.10949  -9499901.19446  22459402.309    22459408.446
       228.000         179.000
 03  3 19  2 14  0.0000000  0  8G 3G23G15G14G18G17G 9G31
  21844568.273   -15908924.91749 -12357848.18747  21844568.000    21844573.970
       237.000         194.000
  23229530.121    12901234.60349  10061204.47446  23229529.202    23229535.422
       224.000         171.000
  20879670.352    -4272391.49949  -3314329.92447  20879669.875    20879675.412
       241.000         205.000
  20396564.412   -23369739.36449 -17029094.16648  20396563.803    20396567.849
       241.000         213.000
  21846636.952     4995652.89649   3904071.75147  21846636.418    21846640.875
       237.000         193.000
  23246399.733    11449873.60949   8935074.41845  23246398.253    23246407.010
       212.000         152.000
  23557041.193    -9945058.97649  -7732325.18245  23557041.280    23557046.709
       214.000         152.000
  22456102.575   -12255278.11149  -9513415.96246  22456101.414    22456108.037
       228.000         179.000
 03  3 19  2 14 30.0000000  0  8G 3G23G15G14G18G17G 9G31
  21850818.231   -15876081.16549 -12332255.65247  21850817.834    21850823.815
       237.000         194.000
  23240842.025    12960679.27549  10107525.01046  23240841.930    23240848.418
       223.000         170.000
  20889196.070    -4222333.40649  -3275323.61247  20889195.361    20889201.208
       241.000         205.000
  20390351.395   -23402388.96249 -17054535.38248  20390350.904    20390354.799
       241.000         214.000
  21857034.528     5050292.48749   3946648.07247  21857034.060    21857038.314
       237.000         193.000
  23262853.668    11536339.25149   9002450.21945  23262852.662    23262860.839
       214.000         152.000
  23560853.889    -9925023.22249  -7716712.84045  23560853.860    23560859.856
       211.000         152.000
  22452910.842   -12272050.77949  -9526485.54246  22452910.484    22452916.226
       227.000         180.000
 03  3 19  2 15  0.0000000  0  8G 3G23G15G14G18G17G 9G31
  21857163.634   -15842735.84649 -12306272.28847  21857163.421    21857168.765
       237.000         194.000
  23252156.787    13020138.62149  10153856.97346  23252156.367    23252161.791
       223.000         170.000
  20898799.315    -4171867.83249  -3235999.78147  20898798.313    20898804.491
       241.000         204.000
  20384239.931   -23434504.64649 -17079560.56248  20384239.365    20384243.263
       241.000         214.000
  21867453.691     5105045.52749   3989312.79547  21867453.287    21867457.300
       236.000         192.000
  23279359.615    11623078.68749   9070039.36245  23279360.104    23279366.453
       212.000         151.000
  23564777.910    -9904401.89049  -7700644.25145  23564777.064    23564784.503
       211.000         151.000
  22449827.939   -12288251.32549  -9539109.31846  22449826.848    22449833.544
       228.000         180.000
 03  3 19  2 15 30.0000000  0  8G 3G23G15G14G18G17G 9G31
  21863604.166   -15808890.48049 -12279899.26847  21863603.832    21863609.709
       237.000         194.000
  23263474.319    13079612.74049  10200200.46846  23263474.012    23263479.285
       223.000         169.000
  20908480.108    -4120994.88749  -3196358.52147  20908479.361    20908484.828
       241.000         204.000
  20378230.191   -23466086.01149 -17104169.39148  20378229.605    20378233.562
       241.000         214.000
  21877894.378     5159911.63349   4032065.61847  21877893.799    21877897.976
       237.000         192.000
  23295917.519    11710090.67249   9137840.88645  23295917.282    23295924.616
       212.000         151.000
  23568813.305    -9883195.29549  -7684119.59145  23568812.481    23568818.929
       211.000         150.000
  22446854.013   -12303879.46849  -9551287.06146  22446853.657    22446859.274
       228.000         180.000
 03  3 19  2 16  0.0000000  0  8G 3G23G15G14G18G17G 9G31
  21870139.550   -15774546.60949 -12253137.80847  21870139.128    21870145.339
       236.000         194.000
  23274794.658    13139101.59349  10246555.42046  23274794.625    23274801.327
       223.000         170.000
  20918238.375    -4069714.77749  -3156399.99147  20918237.815    20918243.322
       241.000         204.000
  20372322.198   -23497132.70449 -17128361.59348  20372321.625    20372325.622
       241.000         214.000
  21888356.439     5214890.23049   4074906.09947  21888356.226    21888359.941
       236.000         192.000
  23312526.955    11797374.41149   9205854.16545  23312525.574    23312533.839
       211.000         150.000
  23572960.102    -9861403.35549  -7667138.81245  23572959.899    23572966.299
       211.000         151.000
  22443989.033   -12318934.95549  -9563018.57846  22443988.360    22443994.368
       228.000         180.000
 03  3 19  2 16 30.0000000  0  8G 3G23G15G14G18G17G 9G31
  21876769.486   -15739706.15349 -12225989.40647  21876769.278    21876775.012
       237.000         193.000
  23286117.751    13198604.78549  10292921.56846  23286117.996    23286123.369
       223.000         170.000
  20928074.037    -4018028.05149  -3116124.61647  20928073.316    20928079.116
       241.000         204.000
  20366515.914   -23527644.80049 -17152137.22648  20366515.275    20366519.374
       241.000         214.000
  21898839.730     5269980.35349   4117833.48747  21898839.249    21898843.708
       236.000         192.000
  23329188.022    11884928.71549   9274078.26545  23329188.039    23329195.407
       210.000         150.000
  23577218.238    -9839026.73449  -7649702.46245  23577217.762    23577224.383
       212.000         152.000
  22441233.001   -12333418.06249  -9574304.08146  22441232.368    22441238.238
       228.000         180.000
 03  3 19  2 17  0.0000000  0  8G 3G23G15G14G18G17G 9G31
  21883493.490   -15704371.35649 -12198455.80347  21883492.933    21883499.316
       236.000         193.000
  23297443.462    13258121.82949  10339298.49546  23297443.136    23297449.698
       222.000         169.000
  20937987.022    -3965935.15049  -3075532.73747  20937986.284    20937992.094
       240.000         204.000
  20360811.319   -23557622.44749 -17175496.40648  20360810.794    20360814.694
       241.000         214.000
  21909344.134     5325181.37049   4160847.29347  21909343.647    21909348.163
       236.000         191.000
  23345900.327    11972752.16249   9342512.07845  23345899.490    23345906.949
       211.000         150.000
  23581587.510    -9816065.88749  -7631810.86445  23581587.866    23581593.752
       212.000         154.000
  22438585.830   -12347328.94749  -9585143.70646  22438585.081    22438590.791
       228.000         181.000
 03  3 19  2 17 30.0000000  0  8G 3G23G15G14G18G17G 9G31
  21890311.316   -15668543.39549 -12170537.91147  21890311.053    21890316.891
       236.000         193.000
  23308771.839    13317653.00549  10385686.42446  23308771.004    23308778.384
       220.000         169.000
  20947977.372    -3913435.53549  -3034623.94147  20947976.717    20947982.391
       241.000         204.000
  20355208.610   -23587064.93049 -17198438.57548  20355208.003    20355211.901
       241.000         214.000
  21919869.585     5380493.06449   4203947.33047  21919869.060    21919873.281
       236.000         191.000
  23362663.784    12060844.32249   9411155.28845  23362663.255    23362671.531
       210.000         150.000
  23586068.060    -9792520.65549  -7613463.89745  23586067.635    23586074.880
       213.000         155.000
  22436047.640   -12360667.05149  -9595536.99746  22436046.558    22436052.651
       227.000         181.000
 03  3 19  2 18  0.0000000  0  8G 3G23G15G14G18G17G 9G31
  21897222.604   -15632224.42649 -12142237.41847  21897222.378    21897228.106
       236.000         193.000
  23320102.860    13377198.06849  10432085.18146  23320102.409    23320108.193
       221.000         168.000
  20958044.966    -3860529.82649  -2993398.71047  20958044.228    20958050.011
       240.000         204.000
  20349707.676   -23615972.49949 -17220963.92448  20349707.171    20349710.925
       241.000         214.000
  21930415.946     5435914.76649   4247133.09047  21930415.160    21930420.144
       236.000         191.000
  23379478.087    12149203.87849   9480006.86445  23379477.115    23379485.181
       209.000         149.000
  23590659.658    -9768391.56649  -7594661.96945  23590659.166    23590665.469
       212.000         155.000
  22433618.357   -12373432.66549  -9605484.19546  22433617.880    22433623.832
       227.000         180.000
 03  3 19  2 18 30.0000000  0  8G 3G23G15G14G18G17G 9G31
  21904227.055   -15595415.79949 -12113555.37347  21904226.669    21904232.689
       236.000         193.000
  23331436.580    13436757.36449  10478495.03146  23331435.583    23331442.574
       219.000         167.000
  20968189.904    -3807217.80049  -2951856.87247  20968189.085    20968195.132
       240.000         204.000
  20344308.646   -23644344.41149 -17243071.88548  20344308.089    20344311.922
       241.000         214.000
  21940983.265     5491446.54849   4290404.62847  21940982.544    21940986.734
       235.000         190.000
  23396343.136    12237830.29049   9549066.37545  23396342.809    23396350.717
       209.000         149.000
  23595362.390    -9743678.20149  -7575404.76645  23595362.011    23595368.868
       213.000         154.000
  22431298.092   -12385625.24849  -9614984.87446  22431297.756    22431303.585
       228.000         180.000
 03  3 19  2 19  0.0000000  0  8G 3G23G15G14G18G17G 9G31
  21911324.306   -15558119.40449 -12084493.24347  21911323.866    21911329.863
       236.000         193.000
  23342772.957    13496330.66749  10524915.78446  23342772.535    23342777.689
       220.000         166.000
  20978412.072    -3753500.03249  -2909998.86347  20978411.378    20978416.807
       241.000         204.000
  20339011.583   -23672180.56449 -17264762.37048  20339010.996    20339014.892
       241.000         214.000
  21951571.422     5547087.71349   4333761.40347  21951570.704    21951575.024
       236.000         190.000
  23413258.821    12326722.91949   9618333.31645  23413257.459    23413266.658
       209.000         149.000
  23600176.274    -9718381.39449  -7555692.94545  23600176.108    23600182.822
       214.000         155.000
  22429086.930   -12397244.91049  -9624039.12346  22429086.606    22429091.976
       228.000         180.000
 03  3 19  2 19 30.0000000  0  8G 3G23G15G14G18G17G 9G31
  21918513.912   -15520337.50949 -12055052.79847  21918513.639    21918519.326
       236.000         192.000
  23354111.956    13555917.47249  10571347.07046  23354111.135    23354117.643
       220.000         166.000
  20988711.322    -3699377.31949  -2867825.32147  20988710.628    20988716.334
       240.000         203.000
  20333816.385   -23699481.39349 -17286035.72148  20333815.802    20333819.848
       241.000         214.000
  21962180.155     5602837.34149   4377202.68747  21962179.789    21962183.833
       235.000         190.000
  23430224.847    12415879.99949   9687806.32345  23430224.903    23430232.485
       210.000         148.000
  23605100.886    -9692502.11249  -7535527.23245  23605099.600    23605106.730
       212.000         154.000
  22426984.699   -12408292.05049  -9632647.25946  22426984.282    22426989.745
       228.000         180.000
 03  3 19  2 20  0.0000000  0  8G 3G23G15G14G18G17G 9G31
  21925795.702   -15482071.43949 -12025235.07447  21925795.238    21925801.025
       237.000         192.000
  23365453.543    13615518.19049  10617789.18846  23365453.123    23365459.524
       221.000         166.000
  20999087.617    -3644849.36749  -2825336.00647  20999086.805    20999092.604
       242.000         203.000
  20328723.212   -23726246.10049 -17306891.31648  20328722.508    20328726.447
       242.000         214.000
  21972809.659     5658695.62449   4420728.63747  21972809.530    21972813.355
       237.000         189.000
  23447241.302    12505301.26449   9757485.19445  23447240.553    23447247.977
       209.000         147.000
  23610136.420    -9666040.07349  -7514907.43445  23610136.263    23610142.677
       213.000         154.000
  22424991.586   -12418766.08449  -9640808.81746  22424991.082    22424996.118
       229.000         180.000
 03  3 19  2 20 30.0000000  0  8G 3G23G15G14G18G17G 9G31
  21933169.081   -15443324.01449 -11995042.26547  21933168.633    21933174.959
       236.000         192.000
  23376797.601    13675131.82849  10664241.39346  23376797.150    23376803.326
       220.000         165.000
  21009540.828    -3589917.28749  -2782531.79447  21009539.998    21009545.843
       241.000         203.000
  20323731.896   -23752475.55949 -17327329.83148  20323731.384    20323735.306
       241.000         214.000
  21983459.524     5714661.02749   4464338.06147  21983459.058    21983463.458
       235.000         189.000
  23464307.571    12594985.04349   9827368.62945  23464306.808    23464314.144
       210.000         147.000
  23615282.625    -9638996.38249  -7493834.40445  23615282.140    23615287.842
       211.000         153.000
  22423107.225   -12428668.08249  -9648524.63446  22423107.276    22423112.977
       228.000         181.000
 03  3 19  2 21  0.0000000  0  8G 3G23G15G14G18G17G 9G31
  21940633.873   -15404096.10249 -11964475.04947  21940633.286    21940639.582
       236.000         192.000
  23388144.361    13734759.30649  10710704.37446  23388144.205    23388150.233
       221.000         166.000
  21020071.097    -3534580.38549  -2739412.13247  21020070.418    21020075.801
       240.000         203.000
  20318842.616   -23778168.77949 -17347350.49848  20318842.068    20318845.979
       241.000         215.000
  21994129.785     5770733.87849   4508031.20247  21994129.331    21994134.080
       235.000         189.000
  23481423.616    12684930.80149   9897456.21845  23481423.219    23481431.235
       209.000         147.000
  23620539.615    -9611370.59649  -7472307.78745  23620539.751    23620545.384
       212.000         153.000
  22421331.932   -12437997.17249  -9655794.02746  22421331.185    22421337.199
       228.000         181.000
 03  3 19  2 21 30.0000000  0  8G 3G23G15G14G18G17G 9G31
  21948189.664   -15364390.22749 -11933535.39647  21948189.045    21948195.384
       236.000         192.000
  23399493.665    13794400.09949  10757177.71646  23399493.238    23399498.924
       220.000         166.000
  21030678.180    -3478839.81649  -2695977.92847  21030677.165    21030683.195
       241.000         203.000
  20314055.291   -23803326.30649 -17366953.74348  20314054.683    20314058.593
       241.000         215.000
  22004820.450     5826913.59249   4551807.61947  22004819.870    22004824.133
       235.000         189.000
  23498589.390    12775137.05949   9967746.78845  23498588.286    23498597.675
       208.000         147.000
  23625907.223    -9583163.55449  -7450328.22745  23625906.695    23625913.639
       212.000         153.000
  22419665.530   -12446753.87849  -9662617.41146  22419665.479    22419670.902
       229.000         181.000
 03  3 19  2 22  0.0000000  0  8G 3G23G15G14G18G17G 9G31
  21955836.069   -15324208.22049 -11902224.72647  21955835.821    21955841.303
       236.000         192.000
  23410845.431    13854054.14749  10803661.39146  23410844.550    23410850.725
       219.000         165.000
  21041362.072    -3422695.62349  -2652229.20647  21041360.959    21041367.263
       241.000         202.000
  20309369.965   -23827947.77849 -17386139.28248  20309369.466    20309373.266
       241.000         215.000
  22015531.296     5883199.68349   4595666.92747  22015531.515    22015534.962
       235.000         189.000
  23515804.455    12865602.74749  10038239.50345  23515803.808    23515812.342
       211.000         147.000
  23631385.250    -9554376.03349  -7427896.37045  23631385.043    23631390.999
       211.000         152.000
  22418108.083   -12454938.35949  -9668994.90946  22418107.397    22418113.196
       229.000         181.000
 03  3 19  2 22 30.0000000  0  8G 3G23G15G14G18G17G 9G31
  21963572.732   -15283551.91049 -11870544.47547  21963572.595    21963578.629
       236.000         192.000
  23422199.795    13913721.87149  10850155.73546  23422199.069    23422205.944
       220.000         165.000
  21052122.728    -3366147.76849  -2608165.95047  21052121.979    21052127.925
       241.000         202.000
  20304786.665   -23852033.06549 -17404907.01648  20304786.209    20304789.954
       241.000         215.000
  22026262.365     5939591.79149   4639608.84247  22026261.956    22026265.966
       235.000         188.000
  23533068.847    12956327.47049  10108934.06445  23533069.065    23533076.336
       208.000         147.000
  23636973.652    -9525008.10349  -7405012.23045  23636973.474    23636980.263
       212.000         153.000
  22416659.529   -12462550.43949  -9674926.38246  22416658.950    22416664.858
       229.000         181.000
 03  3 19  2 23  0.0000000  0  8G 3G23G15G14G18G17G 9G31
  21971399.230   -15242423.23949 -11838496.15247  21971398.497    21971405.027
       235.000         192.000
  23433556.749    13973402.88749  10896660.43146  23433555.297    23433563.216
       219.000         165.000
  21062960.089    -3309197.07049  -2563788.78447  21062959.447    21062965.291
       241.000         202.000
  20300305.340   -23875582.55349 -17423257.24248  20300304.881    20300308.554
       241.000         215.000
  22037013.488     5996089.35449   4683632.93347  22037012.843    22037017.797
       235.000         188.000
  23550382.223    13047309.87149  10179829.39745  23550381.420    23550389.062
       207.000         147.000
  23642672.466    -9495060.62649  -7381676.50945  23642671.839    23642678.573
       213.000         154.000
  22415319.862   -12469590.55249  -9680412.16646  22415319.297    22415325.130
       229.000         181.000
 03  3 19  2 23 30.0000000  0  8G 3G23G15G14G18G17G 9G31
  21979315.042   -15200825.16649 -11806082.05047  21979314.547    21979320.664
       235.000         191.000
  23444915.938    14033096.32049  10943174.79146  23444914.733    23444921.981
       218.000         165.000
  21073873.901    -3251844.44949  -2519098.43347  21073873.031    21073878.914
       240.000         202.000
  20295925.799   -23898597.11949 -17441190.64548  20295925.273    20295929.060
       241.000         215.000
  22047784.415     6052691.18749   4727738.26647  22047783.817    22047787.693
       234.000         188.000
  23567744.176    13138548.02149  10250924.02845  23567743.241    23567751.986
       209.000         147.000
  23648481.294    -9464535.17949  -7357890.40745  23648481.097    23648487.615
       212.000         153.000
  22414088.785   -12476059.84749  -9685453.16446  22414088.529    22414094.092
       229.000         181.000
 03  3 19  2 24  0.0000000  0  8G 3G23G15G14G18G17G 9G31
  21987320.071   -15158758.39749 -11773302.73947  21987319.815    21987325.435
       235.000         191.000
  23456277.811    14092803.41849  10989699.81546  23456277.557    23456283.674
       220.000         165.000
  21084864.395    -3194089.20149  -2474094.34747  21084863.573    21084869.449
       240.000         202.000
  20291648.307   -23921075.31849 -17458706.09948  20291647.835    20291651.641
       241.000         215.000
  22058575.390     6109398.21449   4771925.57546  22058574.906    22058579.517
       234.000         187.000
  23585154.939    13230041.80249  10322217.86345  23585153.928    23585161.441
       209.000         148.000
  23654400.215    -9433430.83349  -7333653.23145  23654400.289    23654406.540
       211.000         153.000
  22412966.582   -12481957.17249  -9690048.47146  22412966.256    22412971.859
       228.000         181.000
 03  3 19  2 24 30.0000000  0  8G 3G23G15G14G18G17G 9G31
  21995413.943   -15116224.92449 -11740159.76247  21995413.612    21995419.381
       235.000         191.000
  23467642.367    14152524.13549  11036235.46346  23467641.970    23467647.926
       220.000         165.000
  21095931.323    -3135931.96249  -2428777.01847  21095930.681    21095936.200
       240.000         202.000
  20287472.814   -23943017.59349 -17475803.95048  20287472.205    20287476.013
       240.000         215.000
  22069386.334     6166209.75849   4816194.32746  22069385.992    22069389.825
       234.000         187.000
  23602614.092    13321790.04649  10393709.98245  23602613.091    23602621.911
       209.000         148.000
  23660429.197    -9401748.26549  -7308965.48945  23660428.906    23660435.154
       212.000         154.000
  22411953.097   -12487282.90049  -9694198.37646  22411951.729    22411958.330
       229.000         181.000
 03  3 19  2 25  0.0000000  0  8G 3G23G15G14G18G17G 9G31
  22003596.070   -15073227.44649 -11706655.22447  22003595.608    22003601.312
       235.000         191.000
  23479009.242    14212257.83649  11082781.19246  23479009.050    23479014.980
       220.000         165.000
  21107074.599    -3077373.65949  -2383147.17647  21107073.967    21107079.459
       240.000         201.000
  20283399.190   -23964424.54749 -17492484.67048  20283398.625    20283402.341
       241.000         215.000
  22080216.808     6223124.78149   4860543.71346  22080216.564    22080220.624
       234.000         187.000
  23620121.415    13413791.44049  10465399.34345  23620121.390    23620128.846
       212.000         148.000
  23666567.918    -9369488.82649  -7283828.23445  23666567.696    23666573.800
       211.000         153.000
  22411048.169   -12492038.01349  -9697903.64246  22411047.285    22411053.501
       228.000         181.000
